<?xml version='1.0' encoding='UTF-8'?><gpx version="1.1" creator="JPX - https://github.com/jenetics/jpx" xmlns="http://www.topografix.com/GPX/1/1"><trk><trkseg><trkpt lat="45.50338" lon="10.7355083"><ele>74.0</ele><time>2026-04-25T15:28:51.762Z</time></trkpt><trkpt lat="45.5034467" lon="10.7354917"><ele>74.0</ele><time>2026-04-25T15:28:57.755Z</time></trkpt><trkpt lat="45.50352" lon="10.7354783"><ele>74.0</ele><time>2026-04-25T15:29:01.759Z</time></trkpt><trkpt lat="45.5035883" lon="10.7354483"><ele>74.0</ele><time>2026-04-25T15:29:04.76Z</time></trkpt><trkpt lat="45.50365" lon="10.7354"><ele>74.0</ele><time>2026-04-25T15:29:11.76Z</time></trkpt><trkpt lat="45.50369" lon="10.7353267"><ele>74.0</ele><time>2026-04-25T15:29:14.757Z</time></trkpt><trkpt lat="45.5036983" lon="10.7352317"><ele>74.0</ele><time>2026-04-25T15:29:17.759Z</time></trkpt><trkpt lat="45.5037433" lon="10.73515"><ele>74.0</ele><time>2026-04-25T15:29:22.758Z</time></trkpt><trkpt lat="45.5037983" lon="10.7352583"><ele>74.0</ele><time>2026-04-25T15:29:25.758Z</time></trkpt><trkpt lat="45.5038267" lon="10.735345"><ele>74.0</ele><time>2026-04-25T15:29:27.766Z</time></trkpt><trkpt lat="45.5038483" lon="10.73543"><ele>74.0</ele><time>2026-04-25T15:29:29.763Z</time></trkpt><trkpt lat="45.5038217" lon="10.7355283"><ele>74.0</ele><time>2026-04-25T15:29:39.759Z</time></trkpt><trkpt lat="45.50372" lon="10.7355617"><ele>74.0</ele><time>2026-04-25T15:29:41.763Z</time></trkpt><trkpt lat="45.50361" lon="10.7355767"><ele>74.0</ele><time>2026-04-25T15:29:43.761Z</time></trkpt><trkpt lat="45.5035083" lon="10.7355967"><ele>74.0</ele><time>2026-04-25T15:29:45.755Z</time></trkpt><trkpt lat="45.5034083" lon="10.735625"><ele>74.0</ele><time>2026-04-25T15:29:47.752Z</time></trkpt><trkpt lat="45.5032933" lon="10.7356533"><ele>74.0</ele><time>2026-04-25T15:29:49.759Z</time></trkpt><trkpt lat="45.503175" lon="10.7356817"><ele>74.0</ele><time>2026-04-25T15:29:51.757Z</time></trkpt><trkpt lat="45.50305" lon="10.7357183"><ele>74.0</ele><time>2026-04-25T15:29:53.762Z</time></trkpt><trkpt lat="45.5029817" lon="10.7357433"><ele>74.0</ele><time>2026-04-25T15:29:54.751Z</time></trkpt><trkpt lat="45.5029133" lon="10.73577"><ele>74.0</ele><time>2026-04-25T15:29:55.757Z</time></trkpt><trkpt lat="45.50285" lon="10.7358"><ele>74.0</ele><time>2026-04-25T15:29:56.756Z</time></trkpt><trkpt lat="45.5027867" lon="10.7358317"><ele>74.0</ele><time>2026-04-25T15:29:57.757Z</time></trkpt><trkpt lat="45.50272" lon="10.7358667"><ele>74.0</ele><time>2026-04-25T15:29:58.755Z</time></trkpt><trkpt lat="45.502655" lon="10.7359017"><ele>74.0</ele><time>2026-04-25T15:29:59.758Z</time></trkpt><trkpt lat="45.50259" lon="10.735935"><ele>74.16666666666667</ele><time>2026-04-25T15:30:00.754Z</time></trkpt><trkpt lat="45.502525" lon="10.73597"><ele>74.33333333333334</ele><time>2026-04-25T15:30:01.762Z</time></trkpt><trkpt lat="45.502455" lon="10.7360133"><ele>74.5</ele><time>2026-04-25T15:30:02.76Z</time></trkpt><trkpt lat="45.502385" lon="10.7360533"><ele>74.66666666666667</ele><time>2026-04-25T15:30:03.756Z</time></trkpt><trkpt lat="45.5023117" lon="10.7360933"><ele>74.83333333333333</ele><time>2026-04-25T15:30:04.754Z</time></trkpt><trkpt lat="45.5022383" lon="10.7361367"><ele>75.0</ele><time>2026-04-25T15:30:05.756Z</time></trkpt><trkpt lat="45.5021633" lon="10.73618"><ele>75.66666666666667</ele><time>2026-04-25T15:30:06.758Z</time></trkpt><trkpt lat="45.5020833" lon="10.7362283"><ele>76.33333333333333</ele><time>2026-04-25T15:30:07.757Z</time></trkpt><trkpt lat="45.5020017" lon="10.7362767"><ele>77.0</ele><time>2026-04-25T15:30:08.757Z</time></trkpt><trkpt lat="45.5019217" lon="10.7363217"><ele>77.66666666666666</ele><time>2026-04-25T15:30:09.759Z</time></trkpt><trkpt lat="45.50184" lon="10.7363633"><ele>78.33333333333333</ele><time>2026-04-25T15:30:10.763Z</time></trkpt><trkpt lat="45.50176" lon="10.7364083"><ele>79.0</ele><time>2026-04-25T15:30:11.758Z</time></trkpt><trkpt lat="45.50168" lon="10.73646"><ele>79.6</ele><time>2026-04-25T15:30:12.757Z</time></trkpt><trkpt lat="45.5015967" lon="10.73651"><ele>80.2</ele><time>2026-04-25T15:30:13.752Z</time></trkpt><trkpt lat="45.5015083" lon="10.73656"><ele>80.8</ele><time>2026-04-25T15:30:14.759Z</time></trkpt><trkpt lat="45.50142" lon="10.7366117"><ele>81.39999999999999</ele><time>2026-04-25T15:30:15.758Z</time></trkpt><trkpt lat="45.5013333" lon="10.73666"><ele>82.0</ele><time>2026-04-25T15:30:16.759Z</time></trkpt><trkpt lat="45.5012483" lon="10.7367067"><ele>82.16666666666666</ele><time>2026-04-25T15:30:17.755Z</time></trkpt><trkpt lat="45.501165" lon="10.7367433"><ele>82.33333333333333</ele><time>2026-04-25T15:30:18.759Z</time></trkpt><trkpt lat="45.50108" lon="10.736785"><ele>82.5</ele><time>2026-04-25T15:30:19.757Z</time></trkpt><trkpt lat="45.5009917" lon="10.7368183"><ele>82.66666666666667</ele><time>2026-04-25T15:30:20.751Z</time></trkpt><trkpt lat="45.5009" lon="10.7368467"><ele>82.83333333333334</ele><time>2026-04-25T15:30:21.756Z</time></trkpt><trkpt lat="45.5008167" lon="10.7368717"><ele>83.0</ele><time>2026-04-25T15:30:22.759Z</time></trkpt><trkpt lat="45.5007283" lon="10.7368983"><ele>83.60000000000001</ele><time>2026-04-25T15:30:23.756Z</time></trkpt><trkpt lat="45.5006417" lon="10.7369217"><ele>84.2</ele><time>2026-04-25T15:30:24.757Z</time></trkpt><trkpt lat="45.5005533" lon="10.7369467"><ele>84.8</ele><time>2026-04-25T15:30:25.756Z</time></trkpt><trkpt lat="45.5004633" lon="10.7369717"><ele>85.4</ele><time>2026-04-25T15:30:26.76Z</time></trkpt><trkpt lat="45.5003733" lon="10.7369983"><ele>86.0</ele><time>2026-04-25T15:30:27.757Z</time></trkpt><trkpt lat="45.5002817" lon="10.7370217"><ele>86.0</ele><time>2026-04-25T15:30:28.753Z</time></trkpt><trkpt lat="45.50019" lon="10.7370467"><ele>86.0</ele><time>2026-04-25T15:30:29.758Z</time></trkpt><trkpt lat="45.5000967" lon="10.7370717"><ele>86.0</ele><time>2026-04-25T15:30:30.76Z</time></trkpt><trkpt lat="45.5000033" lon="10.737095"><ele>86.0</ele><time>2026-04-25T15:30:31.759Z</time></trkpt><trkpt lat="45.49991" lon="10.7371183"><ele>86.0</ele><time>2026-04-25T15:30:32.756Z</time></trkpt><trkpt lat="45.4998133" lon="10.7371467"><ele>86.0</ele><time>2026-04-25T15:30:33.756Z</time></trkpt><trkpt lat="45.49972" lon="10.73717"><ele>86.0</ele><time>2026-04-25T15:30:34.763Z</time></trkpt><trkpt lat="45.49963" lon="10.737195"><ele>86.0</ele><time>2026-04-25T15:30:35.758Z</time></trkpt><trkpt lat="45.499545" lon="10.73723"><ele>86.0</ele><time>2026-04-25T15:30:36.76Z</time></trkpt><trkpt lat="45.4994583" lon="10.73727"><ele>86.0</ele><time>2026-04-25T15:30:37.765Z</time></trkpt><trkpt lat="45.49937" lon="10.7373083"><ele>86.0</ele><time>2026-04-25T15:30:38.759Z</time></trkpt><trkpt lat="45.4992833" lon="10.7373517"><ele>86.0</ele><time>2026-04-25T15:30:39.759Z</time></trkpt><trkpt lat="45.4991967" lon="10.7373967"><ele>86.0</ele><time>2026-04-25T15:30:40.761Z</time></trkpt><trkpt lat="45.4991117" lon="10.7374383"><ele>86.0</ele><time>2026-04-25T15:30:41.756Z</time></trkpt><trkpt lat="45.49903" lon="10.7374767"><ele>86.0</ele><time>2026-04-25T15:30:42.755Z</time></trkpt><trkpt lat="45.49895" lon="10.73752"><ele>86.0</ele><time>2026-04-25T15:30:43.757Z</time></trkpt><trkpt lat="45.4988717" lon="10.73756"><ele>86.0</ele><time>2026-04-25T15:30:44.761Z</time></trkpt><trkpt lat="45.4987967" lon="10.7376033"><ele>86.0</ele><time>2026-04-25T15:30:45.763Z</time></trkpt><trkpt lat="45.4987167" lon="10.7376517"><ele>86.0</ele><time>2026-04-25T15:30:46.756Z</time></trkpt><trkpt lat="45.498635" lon="10.7377033"><ele>86.0</ele><time>2026-04-25T15:30:47.757Z</time></trkpt><trkpt lat="45.49855" lon="10.7377583"><ele>86.0</ele><time>2026-04-25T15:30:48.795Z</time></trkpt><trkpt lat="45.4984633" lon="10.737815"><ele>86.0</ele><time>2026-04-25T15:30:49.759Z</time></trkpt><trkpt lat="45.4983783" lon="10.7378617"><ele>87.0</ele><time>2026-04-25T15:30:50.756Z</time></trkpt><trkpt lat="45.49829" lon="10.7379067"><ele>88.0</ele><time>2026-04-25T15:30:51.752Z</time></trkpt><trkpt lat="45.4982033" lon="10.737945"><ele>89.0</ele><time>2026-04-25T15:30:52.759Z</time></trkpt><trkpt lat="45.4981167" lon="10.7379767"><ele>90.0</ele><time>2026-04-25T15:30:53.756Z</time></trkpt><trkpt lat="45.49803" lon="10.738005"><ele>91.0</ele><time>2026-04-25T15:30:54.763Z</time></trkpt><trkpt lat="45.4979417" lon="10.738035"><ele>91.8</ele><time>2026-04-25T15:30:55.752Z</time></trkpt><trkpt lat="45.4978517" lon="10.7380667"><ele>92.6</ele><time>2026-04-25T15:30:56.753Z</time></trkpt><trkpt lat="45.49776" lon="10.7380983"><ele>93.4</ele><time>2026-04-25T15:30:57.757Z</time></trkpt><trkpt lat="45.4976717" lon="10.7381283"><ele>94.2</ele><time>2026-04-25T15:30:58.761Z</time></trkpt><trkpt lat="45.497585" lon="10.73815"><ele>95.0</ele><time>2026-04-25T15:30:59.759Z</time></trkpt><trkpt lat="45.4974983" lon="10.738175"><ele>95.0</ele><time>2026-04-25T15:31:00.76Z</time></trkpt><trkpt lat="45.497405" lon="10.7381967"><ele>95.0</ele><time>2026-04-25T15:31:01.757Z</time></trkpt><trkpt lat="45.4973083" lon="10.738215"><ele>95.0</ele><time>2026-04-25T15:31:02.761Z</time></trkpt><trkpt lat="45.4972133" lon="10.7382317"><ele>95.0</ele><time>2026-04-25T15:31:03.757Z</time></trkpt><trkpt lat="45.4971167" lon="10.738255"><ele>95.0</ele><time>2026-04-25T15:31:04.76Z</time></trkpt><trkpt lat="45.497025" lon="10.7382767"><ele>94.8</ele><time>2026-04-25T15:31:05.756Z</time></trkpt><trkpt lat="45.4969333" lon="10.738295"><ele>94.6</ele><time>2026-04-25T15:31:06.757Z</time></trkpt><trkpt lat="45.4968433" lon="10.73831"><ele>94.4</ele><time>2026-04-25T15:31:07.757Z</time></trkpt><trkpt lat="45.496755" lon="10.7383283"><ele>94.2</ele><time>2026-04-25T15:31:08.757Z</time></trkpt><trkpt lat="45.4966667" lon="10.7383467"><ele>94.0</ele><time>2026-04-25T15:31:09.758Z</time></trkpt><trkpt lat="45.4965783" lon="10.7383667"><ele>94.0</ele><time>2026-04-25T15:31:10.755Z</time></trkpt><trkpt lat="45.49649" lon="10.7383867"><ele>94.0</ele><time>2026-04-25T15:31:11.758Z</time></trkpt><trkpt lat="45.4964017" lon="10.738405"><ele>94.0</ele><time>2026-04-25T15:31:12.761Z</time></trkpt><trkpt lat="45.4963133" lon="10.7384217"><ele>94.0</ele><time>2026-04-25T15:31:13.757Z</time></trkpt><trkpt lat="45.496228" lon="10.7384386"><ele>94.0</ele><time>2026-04-25T15:31:14.757Z</time></trkpt><trkpt lat="45.4961432" lon="10.7384556"><ele>94.0</ele><time>2026-04-25T15:31:15.755Z</time></trkpt><trkpt lat="45.4960596" lon="10.7384758"><ele>94.5</ele><time>2026-04-25T15:31:16.752Z</time></trkpt><trkpt lat="45.4959774" lon="10.7384943"><ele>95.0</ele><time>2026-04-25T15:31:17.754Z</time></trkpt><trkpt lat="45.495896" lon="10.7385109"><ele>95.5</ele><time>2026-04-25T15:31:18.754Z</time></trkpt><trkpt lat="45.4958159" lon="10.7385292"><ele>96.0</ele><time>2026-04-25T15:31:19.756Z</time></trkpt><trkpt lat="45.4957349" lon="10.7385464"><ele>96.50000000000001</ele><time>2026-04-25T15:31:20.764Z</time></trkpt><trkpt lat="45.4956528" lon="10.7385642"><ele>97.0</ele><time>2026-04-25T15:31:21.753Z</time></trkpt><trkpt lat="45.4955736" lon="10.7385781"><ele>97.8</ele><time>2026-04-25T15:31:22.755Z</time></trkpt><trkpt lat="45.49549" lon="10.7385957"><ele>98.6</ele><time>2026-04-25T15:31:23.752Z</time></trkpt><trkpt lat="45.4954039" lon="10.7386148"><ele>99.39999999999999</ele><time>2026-04-25T15:31:24.754Z</time></trkpt><trkpt lat="45.4953115" lon="10.7386321"><ele>100.19999999999999</ele><time>2026-04-25T15:31:25.751Z</time></trkpt><trkpt lat="45.4952141" lon="10.7386533"><ele>101.0</ele><time>2026-04-25T15:31:26.761Z</time></trkpt><trkpt lat="45.4951106" lon="10.7386698"><ele>101.19999999999999</ele><time>2026-04-25T15:31:27.762Z</time></trkpt><trkpt lat="45.4950027" lon="10.7386831"><ele>101.39999999999999</ele><time>2026-04-25T15:31:28.758Z</time></trkpt><trkpt lat="45.4948939" lon="10.7386951"><ele>101.6</ele><time>2026-04-25T15:31:29.753Z</time></trkpt><trkpt lat="45.4947878" lon="10.7387014"><ele>101.8</ele><time>2026-04-25T15:31:30.763Z</time></trkpt><trkpt lat="45.4946808" lon="10.7387007"><ele>102.0</ele><time>2026-04-25T15:31:31.756Z</time></trkpt><trkpt lat="45.4945705" lon="10.7386997"><ele>102.39999999999999</ele><time>2026-04-25T15:31:32.76Z</time></trkpt><trkpt lat="45.4944633" lon="10.7386962"><ele>102.8</ele><time>2026-04-25T15:31:33.76Z</time></trkpt><trkpt lat="45.4943566" lon="10.7386919"><ele>103.2</ele><time>2026-04-25T15:31:34.757Z</time></trkpt><trkpt lat="45.4942498" lon="10.7386844"><ele>103.6</ele><time>2026-04-25T15:31:35.759Z</time></trkpt><trkpt lat="45.4941444" lon="10.7386697"><ele>104.0</ele><time>2026-04-25T15:31:36.76Z</time></trkpt><trkpt lat="45.4940385" lon="10.738651"><ele>104.0</ele><time>2026-04-25T15:31:37.758Z</time></trkpt><trkpt lat="45.4939346" lon="10.7386305"><ele>104.0</ele><time>2026-04-25T15:31:38.758Z</time></trkpt><trkpt lat="45.4938342" lon="10.7386074"><ele>104.0</ele><time>2026-04-25T15:31:39.757Z</time></trkpt><trkpt lat="45.4937344" lon="10.738581"><ele>104.0</ele><time>2026-04-25T15:31:40.758Z</time></trkpt><trkpt lat="45.4936382" lon="10.7385507"><ele>104.0</ele><time>2026-04-25T15:31:41.775Z</time></trkpt><trkpt lat="45.4935447" lon="10.7385215"><ele>104.0</ele><time>2026-04-25T15:31:42.754Z</time></trkpt><trkpt lat="45.4934523" lon="10.7384897"><ele>104.0</ele><time>2026-04-25T15:31:43.755Z</time></trkpt><trkpt lat="45.493362" lon="10.7384564"><ele>104.0</ele><time>2026-04-25T15:31:44.757Z</time></trkpt><trkpt lat="45.4932723" lon="10.7384216"><ele>104.0</ele><time>2026-04-25T15:31:45.758Z</time></trkpt><trkpt lat="45.4931838" lon="10.7383816"><ele>104.0</ele><time>2026-04-25T15:31:46.756Z</time></trkpt><trkpt lat="45.4930961" lon="10.7383385"><ele>103.99999999999999</ele><time>2026-04-25T15:31:47.755Z</time></trkpt><trkpt lat="45.493008" lon="10.7382986"><ele>104.0</ele><time>2026-04-25T15:31:48.752Z</time></trkpt><trkpt lat="45.4929199" lon="10.7382618"><ele>104.0</ele><time>2026-04-25T15:31:49.758Z</time></trkpt><trkpt lat="45.4928362" lon="10.7382306"><ele>104.0</ele><time>2026-04-25T15:31:50.755Z</time></trkpt><trkpt lat="45.4927594" lon="10.7382042"><ele>103.99999999999999</ele><time>2026-04-25T15:31:51.752Z</time></trkpt><trkpt lat="45.4926872" lon="10.7381935"><ele>104.0</ele><time>2026-04-25T15:31:52.755Z</time></trkpt><trkpt lat="45.4926193" lon="10.7382093"><ele>104.4</ele><time>2026-04-25T15:31:53.755Z</time></trkpt><trkpt lat="45.4925443" lon="10.7383559"><ele>104.80000000000001</ele><time>2026-04-25T15:31:55.76Z</time></trkpt><trkpt lat="45.4925194" lon="10.7384684"><ele>105.19999999999999</ele><time>2026-04-25T15:31:56.762Z</time></trkpt><trkpt lat="45.4924949" lon="10.738591"><ele>105.6</ele><time>2026-04-25T15:31:57.76Z</time></trkpt><trkpt lat="45.4924609" lon="10.7387132"><ele>106.0</ele><time>2026-04-25T15:31:58.758Z</time></trkpt><trkpt lat="45.492428" lon="10.7388489"><ele>106.4</ele><time>2026-04-25T15:31:59.759Z</time></trkpt><trkpt lat="45.4923895" lon="10.7389863"><ele>106.8</ele><time>2026-04-25T15:32:00.761Z</time></trkpt><trkpt lat="45.4923535" lon="10.7391301"><ele>107.20000000000002</ele><time>2026-04-25T15:32:01.759Z</time></trkpt><trkpt lat="45.4923131" lon="10.739272"><ele>107.60000000000001</ele><time>2026-04-25T15:32:02.754Z</time></trkpt><trkpt lat="45.4922686" lon="10.7394159"><ele>108.0</ele><time>2026-04-25T15:32:03.759Z</time></trkpt><trkpt lat="45.4922182" lon="10.7395559"><ele>108.5</ele><time>2026-04-25T15:32:04.758Z</time></trkpt><trkpt lat="45.4921538" lon="10.7396956"><ele>109.0</ele><time>2026-04-25T15:32:05.761Z</time></trkpt><trkpt lat="45.4920717" lon="10.7398284"><ele>109.5</ele><time>2026-04-25T15:32:06.76Z</time></trkpt><trkpt lat="45.4919762" lon="10.7399393"><ele>110.0</ele><time>2026-04-25T15:32:07.759Z</time></trkpt><trkpt lat="45.4918691" lon="10.7400261"><ele>110.0</ele><time>2026-04-25T15:32:08.763Z</time></trkpt><trkpt lat="45.4917562" lon="10.7400933"><ele>110.0</ele><time>2026-04-25T15:32:09.761Z</time></trkpt><trkpt lat="45.4916414" lon="10.7401503"><ele>110.0</ele><time>2026-04-25T15:32:10.756Z</time></trkpt><trkpt lat="45.4915216" lon="10.7402037"><ele>110.0</ele><time>2026-04-25T15:32:11.757Z</time></trkpt><trkpt lat="45.4913992" lon="10.7402553"><ele>110.0</ele><time>2026-04-25T15:32:12.761Z</time></trkpt><trkpt lat="45.4912717" lon="10.7403017"><ele>110.0</ele><time>2026-04-25T15:32:13.76Z</time></trkpt><trkpt lat="45.49114" lon="10.7403483"><ele>110.0</ele><time>2026-04-25T15:32:14.757Z</time></trkpt><trkpt lat="45.4910083" lon="10.7403933"><ele>110.0</ele><time>2026-04-25T15:32:15.752Z</time></trkpt><trkpt lat="45.4908733" lon="10.7404367"><ele>110.25</ele><time>2026-04-25T15:32:16.755Z</time></trkpt><trkpt lat="45.4907383" lon="10.7404783"><ele>110.5</ele><time>2026-04-25T15:32:17.761Z</time></trkpt><trkpt lat="45.4906" lon="10.7405317"><ele>110.75</ele><time>2026-04-25T15:32:18.755Z</time></trkpt><trkpt lat="45.490465" lon="10.7405983"><ele>111.0</ele><time>2026-04-25T15:32:19.753Z</time></trkpt><trkpt lat="45.490335" lon="10.74068"><ele>111.0</ele><time>2026-04-25T15:32:20.753Z</time></trkpt><trkpt lat="45.4902117" lon="10.7407783"><ele>111.0</ele><time>2026-04-25T15:32:21.758Z</time></trkpt><trkpt lat="45.4901" lon="10.7408967"><ele>111.0</ele><time>2026-04-25T15:32:22.752Z</time></trkpt><trkpt lat="45.4899883" lon="10.7410317"><ele>111.0</ele><time>2026-04-25T15:32:23.751Z</time></trkpt><trkpt lat="45.4898817" lon="10.7411717"><ele>111.0</ele><time>2026-04-25T15:32:24.759Z</time></trkpt><trkpt lat="45.4897717" lon="10.7413117"><ele>111.0</ele><time>2026-04-25T15:32:25.757Z</time></trkpt><trkpt lat="45.4896517" lon="10.741445"><ele>111.0</ele><time>2026-04-25T15:32:26.759Z</time></trkpt><trkpt lat="45.4895283" lon="10.741555"><ele>111.0</ele><time>2026-04-25T15:32:27.76Z</time></trkpt><trkpt lat="45.4893983" lon="10.7416383"><ele>111.66666666666666</ele><time>2026-04-25T15:32:28.757Z</time></trkpt><trkpt lat="45.4892517" lon="10.7416883"><ele>112.33333333333333</ele><time>2026-04-25T15:32:29.752Z</time></trkpt><trkpt lat="45.4891" lon="10.74172"><ele>113.0</ele><time>2026-04-25T15:32:30.758Z</time></trkpt><trkpt lat="45.4889383" lon="10.7417417"><ele>113.0</ele><time>2026-04-25T15:32:31.76Z</time></trkpt><trkpt lat="45.488775" lon="10.74176"><ele>113.0</ele><time>2026-04-25T15:32:32.757Z</time></trkpt><trkpt lat="45.4886067" lon="10.7417783"><ele>113.0</ele><time>2026-04-25T15:32:33.761Z</time></trkpt><trkpt lat="45.4884383" lon="10.7417917"><ele>113.0</ele><time>2026-04-25T15:32:34.765Z</time></trkpt><trkpt lat="45.488265" lon="10.7418133"><ele>113.0</ele><time>2026-04-25T15:32:35.761Z</time></trkpt><trkpt lat="45.4880867" lon="10.7418383"><ele>113.0</ele><time>2026-04-25T15:32:36.755Z</time></trkpt><trkpt lat="45.4879083" lon="10.7418617"><ele>113.33333333333333</ele><time>2026-04-25T15:32:37.757Z</time></trkpt><trkpt lat="45.48773" lon="10.74188"><ele>113.66666666666666</ele><time>2026-04-25T15:32:38.76Z</time></trkpt><trkpt lat="45.4875517" lon="10.7419"><ele>114.0</ele><time>2026-04-25T15:32:39.758Z</time></trkpt><trkpt lat="45.4873717" lon="10.74192"><ele>114.0</ele><time>2026-04-25T15:32:40.757Z</time></trkpt><trkpt lat="45.48719" lon="10.7419417"><ele>114.0</ele><time>2026-04-25T15:32:41.757Z</time></trkpt><trkpt lat="45.4870083" lon="10.7419633"><ele>114.0</ele><time>2026-04-25T15:32:42.757Z</time></trkpt><trkpt lat="45.48683" lon="10.7419817"><ele>114.0</ele><time>2026-04-25T15:32:43.76Z</time></trkpt><trkpt lat="45.4866567" lon="10.7419983"><ele>114.0</ele><time>2026-04-25T15:32:44.758Z</time></trkpt><trkpt lat="45.4864833" lon="10.742015"><ele>114.0</ele><time>2026-04-25T15:32:45.755Z</time></trkpt><trkpt lat="45.486315" lon="10.74203"><ele>111.33333333333334</ele><time>2026-04-25T15:32:46.751Z</time></trkpt><trkpt lat="45.4861467" lon="10.7420383"><ele>108.66666666666667</ele><time>2026-04-25T15:32:47.754Z</time></trkpt><trkpt lat="45.4859767" lon="10.74204"><ele>106.0</ele><time>2026-04-25T15:32:48.75Z</time></trkpt><trkpt lat="45.4858033" lon="10.742045"><ele>106.0</ele><time>2026-04-25T15:32:49.759Z</time></trkpt><trkpt lat="45.4856283" lon="10.7420517"><ele>106.0</ele><time>2026-04-25T15:32:50.758Z</time></trkpt><trkpt lat="45.4854533" lon="10.742055"><ele>106.0</ele><time>2026-04-25T15:32:51.757Z</time></trkpt><trkpt lat="45.4852783" lon="10.742055"><ele>104.0</ele><time>2026-04-25T15:32:52.752Z</time></trkpt><trkpt lat="45.4851033" lon="10.7420533"><ele>102.0</ele><time>2026-04-25T15:32:53.754Z</time></trkpt><trkpt lat="45.48493" lon="10.7420533"><ele>100.0</ele><time>2026-04-25T15:32:54.757Z</time></trkpt><trkpt lat="45.48476" lon="10.7420517"><ele>99.66666666666667</ele><time>2026-04-25T15:32:55.754Z</time></trkpt><trkpt lat="45.4845917" lon="10.7420533"><ele>99.33333333333334</ele><time>2026-04-25T15:32:56.758Z</time></trkpt><trkpt lat="45.4844267" lon="10.7420617"><ele>99.0</ele><time>2026-04-25T15:32:57.75Z</time></trkpt><trkpt lat="45.4842633" lon="10.742065"><ele>99.0</ele><time>2026-04-25T15:32:58.759Z</time></trkpt><trkpt lat="45.4841033" lon="10.7420617"><ele>99.0</ele><time>2026-04-25T15:32:59.768Z</time></trkpt><trkpt lat="45.4839433" lon="10.742065"><ele>99.0</ele><time>2026-04-25T15:33:00.753Z</time></trkpt><trkpt lat="45.4837867" lon="10.7420867"><ele>98.66666666666666</ele><time>2026-04-25T15:33:01.756Z</time></trkpt><trkpt lat="45.483635" lon="10.7421383"><ele>98.33333333333333</ele><time>2026-04-25T15:33:02.752Z</time></trkpt><trkpt lat="45.483485" lon="10.7422217"><ele>98.0</ele><time>2026-04-25T15:33:03.752Z</time></trkpt><trkpt lat="45.483335" lon="10.74233"><ele>98.0</ele><time>2026-04-25T15:33:04.759Z</time></trkpt><trkpt lat="45.4831917" lon="10.742445"><ele>98.0</ele><time>2026-04-25T15:33:05.757Z</time></trkpt><trkpt lat="45.483045" lon="10.7425683"><ele>98.0</ele><time>2026-04-25T15:33:06.755Z</time></trkpt><trkpt lat="45.482895" lon="10.7426867"><ele>98.0</ele><time>2026-04-25T15:33:07.761Z</time></trkpt><trkpt lat="45.4827333" lon="10.742785"><ele>98.0</ele><time>2026-04-25T15:33:08.751Z</time></trkpt><trkpt lat="45.4825633" lon="10.7428567"><ele>98.0</ele><time>2026-04-25T15:33:09.754Z</time></trkpt><trkpt lat="45.48239" lon="10.7428967"><ele>98.0</ele><time>2026-04-25T15:33:10.756Z</time></trkpt><trkpt lat="45.4822133" lon="10.7428917"><ele>98.0</ele><time>2026-04-25T15:33:11.751Z</time></trkpt><trkpt lat="45.4820367" lon="10.742845"><ele>98.0</ele><time>2026-04-25T15:33:12.757Z</time></trkpt><trkpt lat="45.48186" lon="10.7427683"><ele>98.66666666666666</ele><time>2026-04-25T15:33:13.759Z</time></trkpt><trkpt lat="45.481685" lon="10.742675"><ele>99.33333333333334</ele><time>2026-04-25T15:33:14.76Z</time></trkpt><trkpt lat="45.4815083" lon="10.7425767"><ele>100.0</ele><time>2026-04-25T15:33:15.761Z</time></trkpt><trkpt lat="45.4813333" lon="10.742475"><ele>101.0</ele><time>2026-04-25T15:33:16.752Z</time></trkpt><trkpt lat="45.4811567" lon="10.7423783"><ele>102.0</ele><time>2026-04-25T15:33:17.75Z</time></trkpt><trkpt lat="45.4809783" lon="10.742285"><ele>103.0</ele><time>2026-04-25T15:33:18.751Z</time></trkpt><trkpt lat="45.480795" lon="10.7422083"><ele>103.0</ele><time>2026-04-25T15:33:19.758Z</time></trkpt><trkpt lat="45.4806083" lon="10.7421467"><ele>103.0</ele><time>2026-04-25T15:33:20.759Z</time></trkpt><trkpt lat="45.4804167" lon="10.742105"><ele>103.0</ele><time>2026-04-25T15:33:21.759Z</time></trkpt><trkpt lat="45.4802233" lon="10.74208"><ele>103.33333333333334</ele><time>2026-04-25T15:33:22.757Z</time></trkpt><trkpt lat="45.4800267" lon="10.74206"><ele>103.66666666666666</ele><time>2026-04-25T15:33:23.759Z</time></trkpt><trkpt lat="45.4798383" lon="10.7420417"><ele>104.0</ele><time>2026-04-25T15:33:24.754Z</time></trkpt><trkpt lat="45.47965" lon="10.7420283"><ele>106.0</ele><time>2026-04-25T15:33:25.757Z</time></trkpt><trkpt lat="45.47947" lon="10.74203"><ele>108.0</ele><time>2026-04-25T15:33:26.754Z</time></trkpt><trkpt lat="45.479295" lon="10.74205"><ele>110.0</ele><time>2026-04-25T15:33:27.757Z</time></trkpt><trkpt lat="45.4791283" lon="10.74209"><ele>110.0</ele><time>2026-04-25T15:33:28.755Z</time></trkpt><trkpt lat="45.478975" lon="10.7421383"><ele>110.0</ele><time>2026-04-25T15:33:29.757Z</time></trkpt><trkpt lat="45.4788417" lon="10.742185"><ele>110.0</ele><time>2026-04-25T15:33:30.763Z</time></trkpt><trkpt lat="45.4787283" lon="10.7422217"><ele>110.0</ele><time>2026-04-25T15:33:31.757Z</time></trkpt><trkpt lat="45.4786333" lon="10.7422433"><ele>110.2</ele><time>2026-04-25T15:33:32.759Z</time></trkpt><trkpt lat="45.4785433" lon="10.7422583"><ele>110.4</ele><time>2026-04-25T15:33:33.76Z</time></trkpt><trkpt lat="45.4784567" lon="10.7422683"><ele>110.6</ele><time>2026-04-25T15:33:34.76Z</time></trkpt><trkpt lat="45.47837" lon="10.7422783"><ele>110.8</ele><time>2026-04-25T15:33:35.758Z</time></trkpt><trkpt lat="45.4782833" lon="10.7422833"><ele>111.0</ele><time>2026-04-25T15:33:36.756Z</time></trkpt><trkpt lat="45.478185" lon="10.74228"><ele>111.0</ele><time>2026-04-25T15:33:37.75Z</time></trkpt><trkpt lat="45.47808" lon="10.7422717"><ele>111.0</ele><time>2026-04-25T15:33:38.758Z</time></trkpt><trkpt lat="45.477975" lon="10.7422717"><ele>111.0</ele><time>2026-04-25T15:33:39.757Z</time></trkpt><trkpt lat="45.47787" lon="10.7422767"><ele>111.0</ele><time>2026-04-25T15:33:40.761Z</time></trkpt><trkpt lat="45.4777633" lon="10.7422883"><ele>111.0</ele><time>2026-04-25T15:33:41.755Z</time></trkpt><trkpt lat="45.4776567" lon="10.742315"><ele>110.19999999999999</ele><time>2026-04-25T15:33:42.754Z</time></trkpt><trkpt lat="45.4775517" lon="10.7423533"><ele>109.39999999999999</ele><time>2026-04-25T15:33:43.755Z</time></trkpt><trkpt lat="45.4774507" lon="10.742401"><ele>108.6</ele><time>2026-04-25T15:33:44.756Z</time></trkpt><trkpt lat="45.4773537" lon="10.7424594"><ele>107.8</ele><time>2026-04-25T15:33:45.759Z</time></trkpt><trkpt lat="45.4772576" lon="10.7425247"><ele>107.0</ele><time>2026-04-25T15:33:46.751Z</time></trkpt><trkpt lat="45.4771601" lon="10.742597"><ele>107.6</ele><time>2026-04-25T15:33:47.752Z</time></trkpt><trkpt lat="45.4770649" lon="10.7426733"><ele>108.19999999999999</ele><time>2026-04-25T15:33:48.759Z</time></trkpt><trkpt lat="45.4769758" lon="10.7427615"><ele>108.8</ele><time>2026-04-25T15:33:49.753Z</time></trkpt><trkpt lat="45.476888" lon="10.7428563"><ele>109.4</ele><time>2026-04-25T15:33:50.756Z</time></trkpt><trkpt lat="45.4768057" lon="10.7429607"><ele>110.0</ele><time>2026-04-25T15:33:51.754Z</time></trkpt><trkpt lat="45.4767286" lon="10.7430743"><ele>110.0</ele><time>2026-04-25T15:33:52.757Z</time></trkpt><trkpt lat="45.4766566" lon="10.7431888"><ele>110.0</ele><time>2026-04-25T15:33:53.759Z</time></trkpt><trkpt lat="45.4765926" lon="10.7433071"><ele>110.0</ele><time>2026-04-25T15:33:54.756Z</time></trkpt><trkpt lat="45.4765306" lon="10.7434165"><ele>110.0</ele><time>2026-04-25T15:33:55.754Z</time></trkpt><trkpt lat="45.4764762" lon="10.7435191"><ele>110.0</ele><time>2026-04-25T15:33:56.759Z</time></trkpt><trkpt lat="45.476426" lon="10.7436188"><ele>110.16666666666666</ele><time>2026-04-25T15:33:57.757Z</time></trkpt><trkpt lat="45.4763797" lon="10.7437098"><ele>110.33333333333333</ele><time>2026-04-25T15:33:58.758Z</time></trkpt><trkpt lat="45.4763083" lon="10.7438332"><ele>110.5</ele><time>2026-04-25T15:34:00.756Z</time></trkpt><trkpt lat="45.4762568" lon="10.7438891"><ele>110.66666666666666</ele><time>2026-04-25T15:34:03.758Z</time></trkpt><trkpt lat="45.4762032" lon="10.743988"><ele>110.83333333333333</ele><time>2026-04-25T15:35:10.763Z</time></trkpt><trkpt lat="45.4761396" lon="10.7440548"><ele>111.0</ele><time>2026-04-25T15:35:11.762Z</time></trkpt><trkpt lat="45.4760576" lon="10.7441157"><ele>112.19999999999999</ele><time>2026-04-25T15:35:12.767Z</time></trkpt><trkpt lat="45.47597" lon="10.7441583"><ele>113.39999999999999</ele><time>2026-04-25T15:35:13.758Z</time></trkpt><trkpt lat="45.47588" lon="10.7441833"><ele>114.6</ele><time>2026-04-25T15:35:14.763Z</time></trkpt><trkpt lat="45.4757867" lon="10.7441883"><ele>115.8</ele><time>2026-04-25T15:35:15.763Z</time></trkpt><trkpt lat="45.4756833" lon="10.74417"><ele>117.0</ele><time>2026-04-25T15:35:16.761Z</time></trkpt><trkpt lat="45.475585" lon="10.7441283"><ele>117.0</ele><time>2026-04-25T15:35:17.759Z</time></trkpt><trkpt lat="45.4754867" lon="10.7440667"><ele>117.0</ele><time>2026-04-25T15:35:18.755Z</time></trkpt><trkpt lat="45.47538" lon="10.7439883"><ele>117.0</ele><time>2026-04-25T15:35:19.751Z</time></trkpt><trkpt lat="45.4752717" lon="10.7438983"><ele>117.0</ele><time>2026-04-25T15:35:20.762Z</time></trkpt><trkpt lat="45.4751617" lon="10.7437983"><ele>121.25</ele><time>2026-04-25T15:35:21.759Z</time></trkpt><trkpt lat="45.4750417" lon="10.743705"><ele>125.5</ele><time>2026-04-25T15:35:22.763Z</time></trkpt><trkpt lat="45.4749317" lon="10.7436083"><ele>129.75</ele><time>2026-04-25T15:35:23.757Z</time></trkpt><trkpt lat="45.4748333" lon="10.7435067"><ele>134.0</ele><time>2026-04-25T15:35:24.761Z</time></trkpt><trkpt lat="45.474745" lon="10.7434217"><ele>134.0</ele><time>2026-04-25T15:35:25.758Z</time></trkpt><trkpt lat="45.4746667" lon="10.74334"><ele>134.0</ele><time>2026-04-25T15:35:26.751Z</time></trkpt><trkpt lat="45.4746133" lon="10.7432267"><ele>134.0</ele><time>2026-04-25T15:35:27.751Z</time></trkpt><trkpt lat="45.4745867" lon="10.7430917"><ele>134.0</ele><time>2026-04-25T15:35:28.753Z</time></trkpt><trkpt lat="45.474565" lon="10.7429617"><ele>134.0</ele><time>2026-04-25T15:35:29.757Z</time></trkpt><trkpt lat="45.474535" lon="10.7428367"><ele>134.16666666666666</ele><time>2026-04-25T15:35:30.762Z</time></trkpt><trkpt lat="45.4745033" lon="10.742725"><ele>134.33333333333331</ele><time>2026-04-25T15:35:31.758Z</time></trkpt><trkpt lat="45.4744483" lon="10.7426467"><ele>134.5</ele><time>2026-04-25T15:35:32.755Z</time></trkpt><trkpt lat="45.4743767" lon="10.74258"><ele>134.66666666666666</ele><time>2026-04-25T15:35:33.758Z</time></trkpt><trkpt lat="45.4742917" lon="10.742545"><ele>134.83333333333334</ele><time>2026-04-25T15:35:34.756Z</time></trkpt><trkpt lat="45.4742083" lon="10.7424967"><ele>135.0</ele><time>2026-04-25T15:35:35.76Z</time></trkpt><trkpt lat="45.47412" lon="10.7424383"><ele>134.8</ele><time>2026-04-25T15:35:36.76Z</time></trkpt><trkpt lat="45.47403" lon="10.742365"><ele>134.6</ele><time>2026-04-25T15:35:37.76Z</time></trkpt><trkpt lat="45.473935" lon="10.74229"><ele>134.4</ele><time>2026-04-25T15:35:38.752Z</time></trkpt><trkpt lat="45.473845" lon="10.7422033"><ele>134.2</ele><time>2026-04-25T15:35:39.762Z</time></trkpt><trkpt lat="45.4737517" lon="10.7421167"><ele>134.0</ele><time>2026-04-25T15:35:40.758Z</time></trkpt><trkpt lat="45.4736567" lon="10.7420333"><ele>134.0</ele><time>2026-04-25T15:35:41.758Z</time></trkpt><trkpt lat="45.4735583" lon="10.741955"><ele>134.0</ele><time>2026-04-25T15:35:42.766Z</time></trkpt><trkpt lat="45.4734517" lon="10.7418967"><ele>134.0</ele><time>2026-04-25T15:35:43.758Z</time></trkpt><trkpt lat="45.473335" lon="10.7418717"><ele>134.0</ele><time>2026-04-25T15:35:44.751Z</time></trkpt><trkpt lat="45.473215" lon="10.74188"><ele>134.0</ele><time>2026-04-25T15:35:45.758Z</time></trkpt><trkpt lat="45.473095" lon="10.7419067"><ele>134.0</ele><time>2026-04-25T15:35:46.756Z</time></trkpt><trkpt lat="45.4729667" lon="10.7419417"><ele>134.0</ele><time>2026-04-25T15:35:47.751Z</time></trkpt><trkpt lat="45.4728367" lon="10.74198"><ele>134.0</ele><time>2026-04-25T15:35:48.758Z</time></trkpt><trkpt lat="45.4727083" lon="10.7420183"><ele>133.0</ele><time>2026-04-25T15:35:49.761Z</time></trkpt><trkpt lat="45.4725783" lon="10.742055"><ele>132.0</ele><time>2026-04-25T15:35:50.752Z</time></trkpt><trkpt lat="45.4724517" lon="10.74209"><ele>131.0</ele><time>2026-04-25T15:35:51.751Z</time></trkpt><trkpt lat="45.4723267" lon="10.7421233"><ele>130.0</ele><time>2026-04-25T15:35:52.752Z</time></trkpt><trkpt lat="45.4722033" lon="10.7421517"><ele>129.25</ele><time>2026-04-25T15:35:53.754Z</time></trkpt><trkpt lat="45.47208" lon="10.7421717"><ele>128.5</ele><time>2026-04-25T15:35:54.753Z</time></trkpt><trkpt lat="45.4719567" lon="10.7421883"><ele>127.75</ele><time>2026-04-25T15:35:55.751Z</time></trkpt><trkpt lat="45.4718333" lon="10.7421983"><ele>127.0</ele><time>2026-04-25T15:35:56.752Z</time></trkpt><trkpt lat="45.4717133" lon="10.7422033"><ele>127.0</ele><time>2026-04-25T15:35:57.752Z</time></trkpt><trkpt lat="45.471595" lon="10.7422033"><ele>127.0</ele><time>2026-04-25T15:35:58.751Z</time></trkpt><trkpt lat="45.471475" lon="10.7422067"><ele>127.0</ele><time>2026-04-25T15:35:59.752Z</time></trkpt><trkpt lat="45.4713533" lon="10.7422083"><ele>127.0</ele><time>2026-04-25T15:36:00.753Z</time></trkpt><trkpt lat="45.4712367" lon="10.742205"><ele>127.0</ele><time>2026-04-25T15:36:01.751Z</time></trkpt><trkpt lat="45.471125" lon="10.7421933"><ele>126.99999999999999</ele><time>2026-04-25T15:36:02.755Z</time></trkpt><trkpt lat="45.4710183" lon="10.74219"><ele>126.99999999999999</ele><time>2026-04-25T15:36:03.752Z</time></trkpt><trkpt lat="45.470925" lon="10.7421917"><ele>127.0</ele><time>2026-04-25T15:36:04.752Z</time></trkpt><trkpt lat="45.470835" lon="10.7422117"><ele>127.0</ele><time>2026-04-25T15:36:05.753Z</time></trkpt><trkpt lat="45.47075" lon="10.7422483"><ele>127.0</ele><time>2026-04-25T15:36:06.755Z</time></trkpt><trkpt lat="45.470675" lon="10.7423017"><ele>126.99999999999999</ele><time>2026-04-25T15:36:07.754Z</time></trkpt><trkpt lat="45.470605" lon="10.742375"><ele>126.99999999999999</ele><time>2026-04-25T15:36:08.754Z</time></trkpt><trkpt lat="45.4705383" lon="10.7424617"><ele>127.0</ele><time>2026-04-25T15:36:09.752Z</time></trkpt><trkpt lat="45.4704583" lon="10.74255"><ele>127.0</ele><time>2026-04-25T15:36:10.754Z</time></trkpt><trkpt lat="45.4703717" lon="10.7426383"><ele>126.0</ele><time>2026-04-25T15:36:11.761Z</time></trkpt><trkpt lat="45.470285" lon="10.7427433"><ele>125.0</ele><time>2026-04-25T15:36:12.751Z</time></trkpt><trkpt lat="45.4701983" lon="10.7428567"><ele>124.0</ele><time>2026-04-25T15:36:13.752Z</time></trkpt><trkpt lat="45.47011" lon="10.7429817"><ele>123.0</ele><time>2026-04-25T15:36:14.755Z</time></trkpt><trkpt lat="45.47002" lon="10.7431167"><ele>123.0</ele><time>2026-04-25T15:36:15.752Z</time></trkpt><trkpt lat="45.4699267" lon="10.74325"><ele>123.0</ele><time>2026-04-25T15:36:16.755Z</time></trkpt><trkpt lat="45.46983" lon="10.7433867"><ele>123.0</ele><time>2026-04-25T15:36:17.757Z</time></trkpt><trkpt lat="45.4697317" lon="10.7435283"><ele>123.0</ele><time>2026-04-25T15:36:18.764Z</time></trkpt><trkpt lat="45.4696333" lon="10.7436717"><ele>122.5</ele><time>2026-04-25T15:36:19.76Z</time></trkpt><trkpt lat="45.4695417" lon="10.7438183"><ele>122.0</ele><time>2026-04-25T15:36:20.763Z</time></trkpt><trkpt lat="45.4694467" lon="10.743955"><ele>121.5</ele><time>2026-04-25T15:36:21.769Z</time></trkpt><trkpt lat="45.4693567" lon="10.744085"><ele>121.0</ele><time>2026-04-25T15:36:22.762Z</time></trkpt><trkpt lat="45.4692683" lon="10.744205"><ele>121.0</ele><time>2026-04-25T15:36:23.761Z</time></trkpt><trkpt lat="45.4691783" lon="10.7443083"><ele>121.0</ele><time>2026-04-25T15:36:24.752Z</time></trkpt><trkpt lat="45.4690817" lon="10.7443833"><ele>121.0</ele><time>2026-04-25T15:36:25.751Z</time></trkpt><trkpt lat="45.4689767" lon="10.7444283"><ele>121.0</ele><time>2026-04-25T15:36:26.759Z</time></trkpt><trkpt lat="45.468865" lon="10.7444483"><ele>121.0</ele><time>2026-04-25T15:36:27.758Z</time></trkpt><trkpt lat="45.4687533" lon="10.7444417"><ele>120.4</ele><time>2026-04-25T15:36:28.766Z</time></trkpt><trkpt lat="45.4686517" lon="10.7444083"><ele>119.8</ele><time>2026-04-25T15:36:29.76Z</time></trkpt><trkpt lat="45.468575" lon="10.74433"><ele>119.20000000000002</ele><time>2026-04-25T15:36:30.759Z</time></trkpt><trkpt lat="45.4685083" lon="10.7442333"><ele>118.60000000000001</ele><time>2026-04-25T15:36:31.757Z</time></trkpt><trkpt lat="45.4684283" lon="10.7441633"><ele>118.0</ele><time>2026-04-25T15:36:32.752Z</time></trkpt><trkpt lat="45.4683317" lon="10.7441283"><ele>117.75</ele><time>2026-04-25T15:36:33.759Z</time></trkpt><trkpt lat="45.46822" lon="10.7441033"><ele>117.5</ele><time>2026-04-25T15:36:34.76Z</time></trkpt><trkpt lat="45.4680967" lon="10.7440583"><ele>117.25</ele><time>2026-04-25T15:36:35.752Z</time></trkpt><trkpt lat="45.4679617" lon="10.743985"><ele>117.0</ele><time>2026-04-25T15:36:36.753Z</time></trkpt><trkpt lat="45.4678183" lon="10.7439033"><ele>116.33333333333334</ele><time>2026-04-25T15:36:37.756Z</time></trkpt><trkpt lat="45.4676683" lon="10.7438167"><ele>115.66666666666667</ele><time>2026-04-25T15:36:38.753Z</time></trkpt><trkpt lat="45.4675117" lon="10.743735"><ele>115.0</ele><time>2026-04-25T15:36:39.759Z</time></trkpt><trkpt lat="45.4673517" lon="10.7436717"><ele>115.0</ele><time>2026-04-25T15:36:40.752Z</time></trkpt><trkpt lat="45.4671833" lon="10.74365"><ele>115.0</ele><time>2026-04-25T15:36:41.756Z</time></trkpt><trkpt lat="45.4670117" lon="10.7436733"><ele>115.0</ele><time>2026-04-25T15:36:42.761Z</time></trkpt><trkpt lat="45.46684" lon="10.7437383"><ele>115.0</ele><time>2026-04-25T15:36:43.755Z</time></trkpt><trkpt lat="45.46667" lon="10.7438267"><ele>115.0</ele><time>2026-04-25T15:36:44.761Z</time></trkpt><trkpt lat="45.4665017" lon="10.7439217"><ele>115.0</ele><time>2026-04-25T15:36:45.759Z</time></trkpt><trkpt lat="45.4663283" lon="10.74402"><ele>113.33333333333334</ele><time>2026-04-25T15:36:46.758Z</time></trkpt><trkpt lat="45.4661533" lon="10.7441167"><ele>111.66666666666666</ele><time>2026-04-25T15:36:47.76Z</time></trkpt><trkpt lat="45.465975" lon="10.744215"><ele>110.0</ele><time>2026-04-25T15:36:48.753Z</time></trkpt><trkpt lat="45.4657967" lon="10.7443183"><ele>109.66666666666666</ele><time>2026-04-25T15:36:49.759Z</time></trkpt><trkpt lat="45.4656183" lon="10.7444217"><ele>109.33333333333334</ele><time>2026-04-25T15:36:50.758Z</time></trkpt><trkpt lat="45.4654367" lon="10.7445267"><ele>109.0</ele><time>2026-04-25T15:36:51.759Z</time></trkpt><trkpt lat="45.4652567" lon="10.74463"><ele>109.0</ele><time>2026-04-25T15:36:52.758Z</time></trkpt><trkpt lat="45.4650733" lon="10.744735"><ele>109.0</ele><time>2026-04-25T15:36:53.752Z</time></trkpt><trkpt lat="45.4648883" lon="10.74484"><ele>109.0</ele><time>2026-04-25T15:36:54.759Z</time></trkpt><trkpt lat="45.4647067" lon="10.7449433"><ele>109.33333333333334</ele><time>2026-04-25T15:36:55.758Z</time></trkpt><trkpt lat="45.4645233" lon="10.74505"><ele>109.66666666666666</ele><time>2026-04-25T15:36:56.758Z</time></trkpt><trkpt lat="45.4643417" lon="10.7451533"><ele>110.0</ele><time>2026-04-25T15:36:57.751Z</time></trkpt><trkpt lat="45.46416" lon="10.7452583"><ele>110.0</ele><time>2026-04-25T15:36:58.757Z</time></trkpt><trkpt lat="45.4639833" lon="10.7453583"><ele>110.0</ele><time>2026-04-25T15:36:59.757Z</time></trkpt><trkpt lat="45.4638117" lon="10.7454517"><ele>110.0</ele><time>2026-04-25T15:37:00.756Z</time></trkpt><trkpt lat="45.4636383" lon="10.74553"><ele>109.33333333333333</ele><time>2026-04-25T15:37:01.76Z</time></trkpt><trkpt lat="45.4634683" lon="10.7455867"><ele>108.66666666666666</ele><time>2026-04-25T15:37:02.759Z</time></trkpt><trkpt lat="45.463295" lon="10.7456133"><ele>108.0</ele><time>2026-04-25T15:37:03.759Z</time></trkpt><trkpt lat="45.4631167" lon="10.74561"><ele>108.0</ele><time>2026-04-25T15:37:04.76Z</time></trkpt><trkpt lat="45.4629433" lon="10.745575"><ele>108.0</ele><time>2026-04-25T15:37:05.757Z</time></trkpt><trkpt lat="45.4627733" lon="10.745515"><ele>108.0</ele><time>2026-04-25T15:37:06.752Z</time></trkpt><trkpt lat="45.4626" lon="10.7454367"><ele>108.0</ele><time>2026-04-25T15:37:07.755Z</time></trkpt><trkpt lat="45.4624283" lon="10.7453433"><ele>108.0</ele><time>2026-04-25T15:37:08.759Z</time></trkpt><trkpt lat="45.4622567" lon="10.7452517"><ele>108.0</ele><time>2026-04-25T15:37:09.754Z</time></trkpt><trkpt lat="45.4620817" lon="10.7451633"><ele>108.33333333333334</ele><time>2026-04-25T15:37:10.766Z</time></trkpt><trkpt lat="45.4619083" lon="10.7450717"><ele>108.66666666666667</ele><time>2026-04-25T15:37:11.754Z</time></trkpt><trkpt lat="45.461735" lon="10.7449783"><ele>109.0</ele><time>2026-04-25T15:37:12.76Z</time></trkpt><trkpt lat="45.4615617" lon="10.74488"><ele>109.0</ele><time>2026-04-25T15:37:13.752Z</time></trkpt><trkpt lat="45.46139" lon="10.74478"><ele>109.0</ele><time>2026-04-25T15:37:14.752Z</time></trkpt><trkpt lat="45.46122" lon="10.7446783"><ele>109.0</ele><time>2026-04-25T15:37:15.752Z</time></trkpt><trkpt lat="45.46105" lon="10.7445683"><ele>109.0</ele><time>2026-04-25T15:37:16.759Z</time></trkpt><trkpt lat="45.4608817" lon="10.7444617"><ele>109.0</ele><time>2026-04-25T15:37:17.758Z</time></trkpt><trkpt lat="45.4607167" lon="10.7443467"><ele>109.0</ele><time>2026-04-25T15:37:18.756Z</time></trkpt><trkpt lat="45.4605517" lon="10.7442333"><ele>107.33333333333334</ele><time>2026-04-25T15:37:19.757Z</time></trkpt><trkpt lat="45.460385" lon="10.7441283"><ele>105.66666666666666</ele><time>2026-04-25T15:37:20.756Z</time></trkpt><trkpt lat="45.4602167" lon="10.74403"><ele>104.0</ele><time>2026-04-25T15:37:21.761Z</time></trkpt><trkpt lat="45.4600467" lon="10.74395"><ele>104.0</ele><time>2026-04-25T15:37:22.757Z</time></trkpt><trkpt lat="45.459875" lon="10.743885"><ele>104.0</ele><time>2026-04-25T15:37:23.757Z</time></trkpt><trkpt lat="45.4597017" lon="10.7438367"><ele>104.0</ele><time>2026-04-25T15:37:24.759Z</time></trkpt><trkpt lat="45.459525" lon="10.7437983"><ele>104.66666666666666</ele><time>2026-04-25T15:37:25.758Z</time></trkpt><trkpt lat="45.4593483" lon="10.7437583"><ele>105.33333333333334</ele><time>2026-04-25T15:37:26.76Z</time></trkpt><trkpt lat="45.4591683" lon="10.743715"><ele>106.0</ele><time>2026-04-25T15:37:27.758Z</time></trkpt><trkpt lat="45.4589883" lon="10.7436617"><ele>106.0</ele><time>2026-04-25T15:37:28.751Z</time></trkpt><trkpt lat="45.458805" lon="10.743595"><ele>106.0</ele><time>2026-04-25T15:37:29.757Z</time></trkpt><trkpt lat="45.458625" lon="10.74352"><ele>106.0</ele><time>2026-04-25T15:37:30.756Z</time></trkpt><trkpt lat="45.458445" lon="10.743435"><ele>106.0</ele><time>2026-04-25T15:37:31.76Z</time></trkpt><trkpt lat="45.458265" lon="10.743345"><ele>106.0</ele><time>2026-04-25T15:37:32.757Z</time></trkpt><trkpt lat="45.4580833" lon="10.743245"><ele>106.0</ele><time>2026-04-25T15:37:33.758Z</time></trkpt><trkpt lat="45.4579033" lon="10.743135"><ele>106.0</ele><time>2026-04-25T15:37:34.753Z</time></trkpt><trkpt lat="45.4577233" lon="10.7430217"><ele>106.0</ele><time>2026-04-25T15:37:35.767Z</time></trkpt><trkpt lat="45.457545" lon="10.7429067"><ele>106.0</ele><time>2026-04-25T15:37:36.759Z</time></trkpt><trkpt lat="45.45736" lon="10.7428033"><ele>106.0</ele><time>2026-04-25T15:37:37.753Z</time></trkpt><trkpt lat="45.45717" lon="10.7427117"><ele>106.0</ele><time>2026-04-25T15:37:38.761Z</time></trkpt><trkpt lat="45.4569767" lon="10.742625"><ele>106.0</ele><time>2026-04-25T15:37:39.758Z</time></trkpt><trkpt lat="45.45678" lon="10.742545"><ele>106.0</ele><time>2026-04-25T15:37:40.756Z</time></trkpt><trkpt lat="45.456585" lon="10.7424617"><ele>106.0</ele><time>2026-04-25T15:37:41.753Z</time></trkpt><trkpt lat="45.45639" lon="10.7423783"><ele>106.0</ele><time>2026-04-25T15:37:42.753Z</time></trkpt><trkpt lat="45.456195" lon="10.742295"><ele>105.66666666666667</ele><time>2026-04-25T15:37:43.759Z</time></trkpt><trkpt lat="45.4559983" lon="10.7422117"><ele>105.33333333333334</ele><time>2026-04-25T15:37:44.756Z</time></trkpt><trkpt lat="45.4558" lon="10.7421283"><ele>105.0</ele><time>2026-04-25T15:37:45.758Z</time></trkpt><trkpt lat="45.4556" lon="10.742045"><ele>105.0</ele><time>2026-04-25T15:37:46.758Z</time></trkpt><trkpt lat="45.4553983" lon="10.7419633"><ele>105.0</ele><time>2026-04-25T15:37:47.759Z</time></trkpt><trkpt lat="45.4551967" lon="10.7418817"><ele>105.0</ele><time>2026-04-25T15:37:48.758Z</time></trkpt><trkpt lat="45.4549933" lon="10.7418"><ele>105.33333333333334</ele><time>2026-04-25T15:37:49.754Z</time></trkpt><trkpt lat="45.4547883" lon="10.7417167"><ele>105.66666666666667</ele><time>2026-04-25T15:37:50.762Z</time></trkpt><trkpt lat="45.4545833" lon="10.7416333"><ele>106.0</ele><time>2026-04-25T15:37:51.759Z</time></trkpt><trkpt lat="45.4543783" lon="10.7415483"><ele>105.0</ele><time>2026-04-25T15:37:52.757Z</time></trkpt><trkpt lat="45.454175" lon="10.7414617"><ele>104.0</ele><time>2026-04-25T15:37:53.757Z</time></trkpt><trkpt lat="45.4539717" lon="10.7413767"><ele>103.0</ele><time>2026-04-25T15:37:54.759Z</time></trkpt><trkpt lat="45.4537717" lon="10.7412883"><ele>103.0</ele><time>2026-04-25T15:37:55.763Z</time></trkpt><trkpt lat="45.4535717" lon="10.7412"><ele>103.0</ele><time>2026-04-25T15:37:56.761Z</time></trkpt><trkpt lat="45.4533733" lon="10.7411133"><ele>103.0</ele><time>2026-04-25T15:37:57.762Z</time></trkpt><trkpt lat="45.453175" lon="10.7410283"><ele>103.0</ele><time>2026-04-25T15:37:58.762Z</time></trkpt><trkpt lat="45.4529767" lon="10.7409483"><ele>103.0</ele><time>2026-04-25T15:37:59.759Z</time></trkpt><trkpt lat="45.45278" lon="10.740875"><ele>103.0</ele><time>2026-04-25T15:38:00.759Z</time></trkpt><trkpt lat="45.4525783" lon="10.7408117"><ele>103.0</ele><time>2026-04-25T15:38:01.762Z</time></trkpt><trkpt lat="45.4523767" lon="10.7407567"><ele>103.0</ele><time>2026-04-25T15:38:02.759Z</time></trkpt><trkpt lat="45.452175" lon="10.7407017"><ele>103.0</ele><time>2026-04-25T15:38:03.758Z</time></trkpt><trkpt lat="45.4519717" lon="10.740645"><ele>103.0</ele><time>2026-04-25T15:38:04.754Z</time></trkpt><trkpt lat="45.4517683" lon="10.74059"><ele>103.0</ele><time>2026-04-25T15:38:05.757Z</time></trkpt><trkpt lat="45.4515633" lon="10.7405367"><ele>103.0</ele><time>2026-04-25T15:38:06.752Z</time></trkpt><trkpt lat="45.4513583" lon="10.7404883"><ele>102.66666666666667</ele><time>2026-04-25T15:38:07.758Z</time></trkpt><trkpt lat="45.4511533" lon="10.7404433"><ele>102.33333333333334</ele><time>2026-04-25T15:38:08.758Z</time></trkpt><trkpt lat="45.4509467" lon="10.7404067"><ele>102.0</ele><time>2026-04-25T15:38:09.759Z</time></trkpt><trkpt lat="45.45074" lon="10.7403817"><ele>102.0</ele><time>2026-04-25T15:38:10.757Z</time></trkpt><trkpt lat="45.45053" lon="10.7403683"><ele>102.0</ele><time>2026-04-25T15:38:11.761Z</time></trkpt><trkpt lat="45.4503183" lon="10.740365"><ele>102.0</ele><time>2026-04-25T15:38:12.762Z</time></trkpt><trkpt lat="45.4501067" lon="10.740365"><ele>102.0</ele><time>2026-04-25T15:38:13.76Z</time></trkpt><trkpt lat="45.449895" lon="10.7403667"><ele>102.0</ele><time>2026-04-25T15:38:14.752Z</time></trkpt><trkpt lat="45.4496817" lon="10.7403683"><ele>102.0</ele><time>2026-04-25T15:38:15.76Z</time></trkpt><trkpt lat="45.4494667" lon="10.7403683"><ele>102.0</ele><time>2026-04-25T15:38:16.757Z</time></trkpt><trkpt lat="45.4492517" lon="10.7403667"><ele>102.0</ele><time>2026-04-25T15:38:17.759Z</time></trkpt><trkpt lat="45.449035" lon="10.7403667"><ele>102.0</ele><time>2026-04-25T15:38:18.759Z</time></trkpt><trkpt lat="45.44882" lon="10.7403667"><ele>102.33333333333334</ele><time>2026-04-25T15:38:19.756Z</time></trkpt><trkpt lat="45.4486033" lon="10.7403683"><ele>102.66666666666667</ele><time>2026-04-25T15:38:20.759Z</time></trkpt><trkpt lat="45.4483867" lon="10.7403717"><ele>103.0</ele><time>2026-04-25T15:38:21.757Z</time></trkpt><trkpt lat="45.4481683" lon="10.7403733"><ele>102.66666666666667</ele><time>2026-04-25T15:38:22.76Z</time></trkpt><trkpt lat="45.44795" lon="10.7403783"><ele>102.33333333333334</ele><time>2026-04-25T15:38:23.759Z</time></trkpt><trkpt lat="45.4477333" lon="10.7403817"><ele>102.0</ele><time>2026-04-25T15:38:24.761Z</time></trkpt><trkpt lat="45.4475167" lon="10.740385"><ele>102.0</ele><time>2026-04-25T15:38:25.762Z</time></trkpt><trkpt lat="45.447305" lon="10.7403883"><ele>102.0</ele><time>2026-04-25T15:38:26.765Z</time></trkpt><trkpt lat="45.4470983" lon="10.74039"><ele>102.0</ele><time>2026-04-25T15:38:27.761Z</time></trkpt><trkpt lat="45.4469" lon="10.7403833"><ele>101.33333333333334</ele><time>2026-04-25T15:38:28.759Z</time></trkpt><trkpt lat="45.4467067" lon="10.740365"><ele>100.66666666666667</ele><time>2026-04-25T15:38:29.764Z</time></trkpt><trkpt lat="45.4465133" lon="10.74034"><ele>100.0</ele><time>2026-04-25T15:38:30.756Z</time></trkpt><trkpt lat="45.4463183" lon="10.7403083"><ele>100.0</ele><time>2026-04-25T15:38:31.752Z</time></trkpt><trkpt lat="45.446125" lon="10.7402667"><ele>100.0</ele><time>2026-04-25T15:38:32.759Z</time></trkpt><trkpt lat="45.4459317" lon="10.7402183"><ele>100.0</ele><time>2026-04-25T15:38:33.754Z</time></trkpt><trkpt lat="45.4457383" lon="10.7401633"><ele>99.66666666666667</ele><time>2026-04-25T15:38:34.76Z</time></trkpt><trkpt lat="45.4455433" lon="10.7401083"><ele>99.33333333333334</ele><time>2026-04-25T15:38:35.761Z</time></trkpt><trkpt lat="45.4453467" lon="10.7400567"><ele>99.0</ele><time>2026-04-25T15:38:36.758Z</time></trkpt><trkpt lat="45.4451483" lon="10.7400067"><ele>99.66666666666666</ele><time>2026-04-25T15:38:37.764Z</time></trkpt><trkpt lat="45.4449517" lon="10.73996"><ele>100.33333333333333</ele><time>2026-04-25T15:38:38.757Z</time></trkpt><trkpt lat="45.4447583" lon="10.739915"><ele>101.0</ele><time>2026-04-25T15:38:39.765Z</time></trkpt><trkpt lat="45.4445633" lon="10.7398767"><ele>101.0</ele><time>2026-04-25T15:38:40.756Z</time></trkpt><trkpt lat="45.4443683" lon="10.7398467"><ele>101.0</ele><time>2026-04-25T15:38:41.755Z</time></trkpt><trkpt lat="45.4441767" lon="10.739825"><ele>101.0</ele><time>2026-04-25T15:38:42.758Z</time></trkpt><trkpt lat="45.4439883" lon="10.7398133"><ele>101.0</ele><time>2026-04-25T15:38:43.759Z</time></trkpt><trkpt lat="45.4438033" lon="10.739815"><ele>101.0</ele><time>2026-04-25T15:38:44.753Z</time></trkpt><trkpt lat="45.4436267" lon="10.739825"><ele>101.0</ele><time>2026-04-25T15:38:45.756Z</time></trkpt><trkpt lat="45.443455" lon="10.73984"><ele>100.66666666666666</ele><time>2026-04-25T15:38:46.757Z</time></trkpt><trkpt lat="45.4432933" lon="10.73986"><ele>100.33333333333334</ele><time>2026-04-25T15:38:47.758Z</time></trkpt><trkpt lat="45.4431383" lon="10.73988"><ele>100.0</ele><time>2026-04-25T15:38:48.757Z</time></trkpt><trkpt lat="45.442995" lon="10.739895"><ele>100.0</ele><time>2026-04-25T15:38:49.758Z</time></trkpt><trkpt lat="45.442855" lon="10.7399083"><ele>100.0</ele><time>2026-04-25T15:38:50.76Z</time></trkpt><trkpt lat="45.442725" lon="10.7399217"><ele>100.0</ele><time>2026-04-25T15:38:51.758Z</time></trkpt><trkpt lat="45.4426083" lon="10.7399333"><ele>100.0</ele><time>2026-04-25T15:38:52.761Z</time></trkpt><trkpt lat="45.4425033" lon="10.7399433"><ele>100.0</ele><time>2026-04-25T15:38:53.755Z</time></trkpt><trkpt lat="45.4424133" lon="10.7399533"><ele>100.0</ele><time>2026-04-25T15:38:54.761Z</time></trkpt><trkpt lat="45.44234" lon="10.7399617"><ele>100.0</ele><time>2026-04-25T15:38:55.756Z</time></trkpt><trkpt lat="45.442215" lon="10.7399883"><ele>100.0</ele><time>2026-04-25T15:38:57.757Z</time></trkpt><trkpt lat="45.4421367" lon="10.7400017"><ele>100.0</ele><time>2026-04-25T15:38:58.757Z</time></trkpt><trkpt lat="45.44204" lon="10.7400117"><ele>100.2</ele><time>2026-04-25T15:38:59.757Z</time></trkpt><trkpt lat="45.4419383" lon="10.7400167"><ele>100.4</ele><time>2026-04-25T15:39:00.754Z</time></trkpt><trkpt lat="45.4418367" lon="10.74002"><ele>100.6</ele><time>2026-04-25T15:39:01.757Z</time></trkpt><trkpt lat="45.4417317" lon="10.7400333"><ele>100.8</ele><time>2026-04-25T15:39:02.76Z</time></trkpt><trkpt lat="45.441615" lon="10.74005"><ele>101.0</ele><time>2026-04-25T15:39:03.757Z</time></trkpt><trkpt lat="45.4414883" lon="10.7400683"><ele>101.0</ele><time>2026-04-25T15:39:04.756Z</time></trkpt><trkpt lat="45.441355" lon="10.7400817"><ele>101.0</ele><time>2026-04-25T15:39:05.756Z</time></trkpt><trkpt lat="45.4412167" lon="10.7400983"><ele>101.0</ele><time>2026-04-25T15:39:06.757Z</time></trkpt><trkpt lat="45.4410733" lon="10.740115"><ele>101.0</ele><time>2026-04-25T15:39:07.761Z</time></trkpt><trkpt lat="45.4409267" lon="10.7401317"><ele>100.75</ele><time>2026-04-25T15:39:08.757Z</time></trkpt><trkpt lat="45.4407783" lon="10.7401467"><ele>100.5</ele><time>2026-04-25T15:39:09.762Z</time></trkpt><trkpt lat="45.44063" lon="10.7401633"><ele>100.25</ele><time>2026-04-25T15:39:10.761Z</time></trkpt><trkpt lat="45.44048" lon="10.740185"><ele>100.0</ele><time>2026-04-25T15:39:11.756Z</time></trkpt><trkpt lat="45.440335" lon="10.7402033"><ele>100.0</ele><time>2026-04-25T15:39:12.754Z</time></trkpt><trkpt lat="45.4401917" lon="10.7402217"><ele>100.0</ele><time>2026-04-25T15:39:13.756Z</time></trkpt><trkpt lat="45.4400517" lon="10.7402383"><ele>100.0</ele><time>2026-04-25T15:39:14.755Z</time></trkpt><trkpt lat="45.43992" lon="10.7402583"><ele>100.0</ele><time>2026-04-25T15:39:15.757Z</time></trkpt><trkpt lat="45.4397917" lon="10.7402783"><ele>100.0</ele><time>2026-04-25T15:39:16.753Z</time></trkpt><trkpt lat="45.4396717" lon="10.74031"><ele>100.0</ele><time>2026-04-25T15:39:17.759Z</time></trkpt><trkpt lat="45.4395583" lon="10.7403617"><ele>100.0</ele><time>2026-04-25T15:39:18.758Z</time></trkpt><trkpt lat="45.43946" lon="10.7404283"><ele>100.0</ele><time>2026-04-25T15:39:19.759Z</time></trkpt><trkpt lat="45.4393717" lon="10.7405117"><ele>100.2</ele><time>2026-04-25T15:39:20.758Z</time></trkpt><trkpt lat="45.439295" lon="10.7406"><ele>100.4</ele><time>2026-04-25T15:39:21.76Z</time></trkpt><trkpt lat="45.4392233" lon="10.74069"><ele>100.6</ele><time>2026-04-25T15:39:22.76Z</time></trkpt><trkpt lat="45.439155" lon="10.7407817"><ele>100.8</ele><time>2026-04-25T15:39:23.757Z</time></trkpt><trkpt lat="45.4390917" lon="10.7408717"><ele>101.0</ele><time>2026-04-25T15:39:24.764Z</time></trkpt><trkpt lat="45.4390283" lon="10.740965"><ele>100.6</ele><time>2026-04-25T15:39:25.759Z</time></trkpt><trkpt lat="45.4389583" lon="10.741065"><ele>100.19999999999999</ele><time>2026-04-25T15:39:26.756Z</time></trkpt><trkpt lat="45.4388817" lon="10.7411717"><ele>99.80000000000001</ele><time>2026-04-25T15:39:27.758Z</time></trkpt><trkpt lat="45.4388017" lon="10.7412817"><ele>99.4</ele><time>2026-04-25T15:39:28.752Z</time></trkpt><trkpt lat="45.4387183" lon="10.7413983"><ele>99.0</ele><time>2026-04-25T15:39:29.75Z</time></trkpt><trkpt lat="45.4386317" lon="10.7415183"><ele>99.0</ele><time>2026-04-25T15:39:30.757Z</time></trkpt><trkpt lat="45.4385483" lon="10.7416367"><ele>99.0</ele><time>2026-04-25T15:39:31.76Z</time></trkpt><trkpt lat="45.4384667" lon="10.741745"><ele>99.0</ele><time>2026-04-25T15:39:32.758Z</time></trkpt><trkpt lat="45.4383883" lon="10.74184"><ele>99.0</ele><time>2026-04-25T15:39:33.75Z</time></trkpt><trkpt lat="45.4383083" lon="10.7419117"><ele>99.0</ele><time>2026-04-25T15:39:34.757Z</time></trkpt><trkpt lat="45.4382333" lon="10.741955"><ele>99.16666666666667</ele><time>2026-04-25T15:39:35.754Z</time></trkpt><trkpt lat="45.4381683" lon="10.741975"><ele>99.33333333333334</ele><time>2026-04-25T15:39:36.754Z</time></trkpt><trkpt lat="45.4380733" lon="10.741995"><ele>99.5</ele><time>2026-04-25T15:39:38.762Z</time></trkpt><trkpt lat="45.437955" lon="10.7420117"><ele>99.66666666666667</ele><time>2026-04-25T15:39:43.759Z</time></trkpt><trkpt lat="45.4378783" lon="10.7420233"><ele>99.83333333333334</ele><time>2026-04-25T15:39:44.752Z</time></trkpt><trkpt lat="45.437795" lon="10.74205"><ele>100.0</ele><time>2026-04-25T15:39:45.754Z</time></trkpt><trkpt lat="45.4377083" lon="10.7420833"><ele>100.0</ele><time>2026-04-25T15:39:46.759Z</time></trkpt><trkpt lat="45.43761" lon="10.7421117"><ele>100.0</ele><time>2026-04-25T15:39:47.758Z</time></trkpt><trkpt lat="45.437505" lon="10.7421333"><ele>100.0</ele><time>2026-04-25T15:39:48.757Z</time></trkpt><trkpt lat="45.4373933" lon="10.7421383"><ele>100.0</ele><time>2026-04-25T15:39:49.757Z</time></trkpt><trkpt lat="45.43728" lon="10.742115"><ele>100.0</ele><time>2026-04-25T15:39:50.757Z</time></trkpt><trkpt lat="45.4371617" lon="10.7420817"><ele>100.0</ele><time>2026-04-25T15:39:51.759Z</time></trkpt><trkpt lat="45.4370317" lon="10.7420467"><ele>100.0</ele><time>2026-04-25T15:39:52.761Z</time></trkpt><trkpt lat="45.4368917" lon="10.7420067"><ele>100.0</ele><time>2026-04-25T15:39:53.756Z</time></trkpt><trkpt lat="45.4367383" lon="10.741965"><ele>100.0</ele><time>2026-04-25T15:39:54.754Z</time></trkpt><trkpt lat="45.436575" lon="10.74192"><ele>100.33333333333334</ele><time>2026-04-25T15:39:55.756Z</time></trkpt><trkpt lat="45.43641" lon="10.74188"><ele>100.66666666666666</ele><time>2026-04-25T15:39:56.759Z</time></trkpt><trkpt lat="45.4362383" lon="10.741845"><ele>101.0</ele><time>2026-04-25T15:39:57.754Z</time></trkpt><trkpt lat="45.436065" lon="10.7418033"><ele>101.33333333333333</ele><time>2026-04-25T15:39:58.756Z</time></trkpt><trkpt lat="45.4358933" lon="10.741755"><ele>101.66666666666666</ele><time>2026-04-25T15:39:59.755Z</time></trkpt><trkpt lat="45.4357183" lon="10.7417067"><ele>102.0</ele><time>2026-04-25T15:40:00.759Z</time></trkpt><trkpt lat="45.43554" lon="10.7416567"><ele>101.0</ele><time>2026-04-25T15:40:01.76Z</time></trkpt><trkpt lat="45.4353617" lon="10.741605"><ele>100.0</ele><time>2026-04-25T15:40:02.755Z</time></trkpt><trkpt lat="45.435185" lon="10.7415517"><ele>99.0</ele><time>2026-04-25T15:40:03.757Z</time></trkpt><trkpt lat="45.4350083" lon="10.7414967"><ele>99.0</ele><time>2026-04-25T15:40:04.756Z</time></trkpt><trkpt lat="45.4348333" lon="10.7414483"><ele>99.0</ele><time>2026-04-25T15:40:05.751Z</time></trkpt><trkpt lat="45.4346683" lon="10.7414067"><ele>99.0</ele><time>2026-04-25T15:40:06.753Z</time></trkpt><trkpt lat="45.4345033" lon="10.7413783"><ele>97.0</ele><time>2026-04-25T15:40:07.756Z</time></trkpt><trkpt lat="45.4343383" lon="10.7413633"><ele>95.0</ele><time>2026-04-25T15:40:08.752Z</time></trkpt><trkpt lat="45.4341717" lon="10.74135"><ele>93.0</ele><time>2026-04-25T15:40:09.759Z</time></trkpt><trkpt lat="45.4340083" lon="10.7413417"><ele>93.0</ele><time>2026-04-25T15:40:10.767Z</time></trkpt><trkpt lat="45.433855" lon="10.741335"><ele>93.0</ele><time>2026-04-25T15:40:11.758Z</time></trkpt><trkpt lat="45.433705" lon="10.7413283"><ele>93.0</ele><time>2026-04-25T15:40:12.759Z</time></trkpt><trkpt lat="45.4335617" lon="10.7413283"><ele>93.0</ele><time>2026-04-25T15:40:13.759Z</time></trkpt><trkpt lat="45.4334283" lon="10.7413283"><ele>93.0</ele><time>2026-04-25T15:40:14.756Z</time></trkpt><trkpt lat="45.4333" lon="10.741335"><ele>93.0</ele><time>2026-04-25T15:40:15.765Z</time></trkpt><trkpt lat="45.433175" lon="10.74134"><ele>93.0</ele><time>2026-04-25T15:40:16.756Z</time></trkpt><trkpt lat="45.4330467" lon="10.7413517"><ele>93.0</ele><time>2026-04-25T15:40:17.757Z</time></trkpt><trkpt lat="45.432915" lon="10.7413667"><ele>94.5</ele><time>2026-04-25T15:40:18.756Z</time></trkpt><trkpt lat="45.43278" lon="10.741385"><ele>96.0</ele><time>2026-04-25T15:40:19.763Z</time></trkpt><trkpt lat="45.4326417" lon="10.7414067"><ele>97.5</ele><time>2026-04-25T15:40:20.757Z</time></trkpt><trkpt lat="45.432505" lon="10.74143"><ele>99.0</ele><time>2026-04-25T15:40:21.752Z</time></trkpt><trkpt lat="45.4323717" lon="10.7414583"><ele>99.0</ele><time>2026-04-25T15:40:22.751Z</time></trkpt><trkpt lat="45.43224" lon="10.7414883"><ele>99.0</ele><time>2026-04-25T15:40:23.757Z</time></trkpt><trkpt lat="45.43211" lon="10.7415233"><ele>99.0</ele><time>2026-04-25T15:40:24.756Z</time></trkpt><trkpt lat="45.431985" lon="10.741555"><ele>99.0</ele><time>2026-04-25T15:40:25.751Z</time></trkpt><trkpt lat="45.4318633" lon="10.741585"><ele>99.25</ele><time>2026-04-25T15:40:26.752Z</time></trkpt><trkpt lat="45.4317433" lon="10.7416117"><ele>99.5</ele><time>2026-04-25T15:40:27.758Z</time></trkpt><trkpt lat="45.43162" lon="10.7416283"><ele>99.75</ele><time>2026-04-25T15:40:28.751Z</time></trkpt><trkpt lat="45.4314933" lon="10.741635"><ele>100.0</ele><time>2026-04-25T15:40:29.759Z</time></trkpt><trkpt lat="45.4313633" lon="10.74163"><ele>99.5</ele><time>2026-04-25T15:40:30.755Z</time></trkpt><trkpt lat="45.431235" lon="10.741605"><ele>99.0</ele><time>2026-04-25T15:40:31.764Z</time></trkpt><trkpt lat="45.43111" lon="10.7415617"><ele>98.5</ele><time>2026-04-25T15:40:32.758Z</time></trkpt><trkpt lat="45.4309883" lon="10.741505"><ele>98.0</ele><time>2026-04-25T15:40:33.757Z</time></trkpt><trkpt lat="45.43087" lon="10.7414333"><ele>98.0</ele><time>2026-04-25T15:40:34.754Z</time></trkpt><trkpt lat="45.430755" lon="10.74135"><ele>98.0</ele><time>2026-04-25T15:40:35.755Z</time></trkpt><trkpt lat="45.4306433" lon="10.7412517"><ele>98.0</ele><time>2026-04-25T15:40:36.756Z</time></trkpt><trkpt lat="45.4305383" lon="10.74114"><ele>98.0</ele><time>2026-04-25T15:40:37.763Z</time></trkpt><trkpt lat="45.4304417" lon="10.7410183"><ele>98.5</ele><time>2026-04-25T15:40:38.757Z</time></trkpt><trkpt lat="45.43035" lon="10.7408833"><ele>99.0</ele><time>2026-04-25T15:40:39.757Z</time></trkpt><trkpt lat="45.4302667" lon="10.7407267"><ele>99.5</ele><time>2026-04-25T15:40:40.76Z</time></trkpt><trkpt lat="45.430195" lon="10.740555"><ele>100.0</ele><time>2026-04-25T15:40:41.762Z</time></trkpt><trkpt lat="45.4301283" lon="10.7403717"><ele>100.0</ele><time>2026-04-25T15:40:42.761Z</time></trkpt><trkpt lat="45.430075" lon="10.74018"><ele>100.0</ele><time>2026-04-25T15:40:43.756Z</time></trkpt><trkpt lat="45.4300267" lon="10.7399867"><ele>100.0</ele><time>2026-04-25T15:40:44.76Z</time></trkpt><trkpt lat="45.4299867" lon="10.739795"><ele>100.0</ele><time>2026-04-25T15:40:45.764Z</time></trkpt><trkpt lat="45.4299433" lon="10.7396117"><ele>100.0</ele><time>2026-04-25T15:40:46.76Z</time></trkpt><trkpt lat="45.4299033" lon="10.7394283"><ele>100.0</ele><time>2026-04-25T15:40:47.758Z</time></trkpt><trkpt lat="45.429865" lon="10.7392433"><ele>100.0</ele><time>2026-04-25T15:40:48.757Z</time></trkpt><trkpt lat="45.4298283" lon="10.73906"><ele>100.0</ele><time>2026-04-25T15:40:49.756Z</time></trkpt><trkpt lat="45.42979" lon="10.738885"><ele>100.25</ele><time>2026-04-25T15:40:50.751Z</time></trkpt><trkpt lat="45.4297533" lon="10.7387083"><ele>100.5</ele><time>2026-04-25T15:40:51.755Z</time></trkpt><trkpt lat="45.42972" lon="10.7385383"><ele>100.75</ele><time>2026-04-25T15:40:52.757Z</time></trkpt><trkpt lat="45.4296883" lon="10.7383717"><ele>101.0</ele><time>2026-04-25T15:40:53.756Z</time></trkpt><trkpt lat="45.4296583" lon="10.73821"><ele>101.0</ele><time>2026-04-25T15:40:54.756Z</time></trkpt><trkpt lat="45.4296283" lon="10.7380467"><ele>101.0</ele><time>2026-04-25T15:40:55.752Z</time></trkpt><trkpt lat="45.4296" lon="10.7378833"><ele>101.0</ele><time>2026-04-25T15:40:56.757Z</time></trkpt><trkpt lat="45.4295733" lon="10.7377217"><ele>101.0</ele><time>2026-04-25T15:40:57.755Z</time></trkpt><trkpt lat="45.429545" lon="10.7375633"><ele>100.8</ele><time>2026-04-25T15:40:58.76Z</time></trkpt><trkpt lat="45.4295183" lon="10.73741"><ele>100.6</ele><time>2026-04-25T15:40:59.756Z</time></trkpt><trkpt lat="45.4294933" lon="10.737265"><ele>100.4</ele><time>2026-04-25T15:41:00.754Z</time></trkpt><trkpt lat="45.42947" lon="10.7371233"><ele>100.2</ele><time>2026-04-25T15:41:01.75Z</time></trkpt><trkpt lat="45.429445" lon="10.736985"><ele>100.0</ele><time>2026-04-25T15:41:02.758Z</time></trkpt><trkpt lat="45.4294233" lon="10.7368483"><ele>100.0</ele><time>2026-04-25T15:41:03.755Z</time></trkpt><trkpt lat="45.4294" lon="10.7367083"><ele>100.0</ele><time>2026-04-25T15:41:04.755Z</time></trkpt><trkpt lat="45.429375" lon="10.736565"><ele>100.0</ele><time>2026-04-25T15:41:05.755Z</time></trkpt><trkpt lat="45.4293538" lon="10.7364183"><ele>100.0</ele><time>2026-04-25T15:41:06.758Z</time></trkpt><trkpt lat="45.4293316" lon="10.7362687"><ele>100.0</ele><time>2026-04-25T15:41:07.758Z</time></trkpt><trkpt lat="45.429311" lon="10.7361165"><ele>100.2</ele><time>2026-04-25T15:41:08.761Z</time></trkpt><trkpt lat="45.4292927" lon="10.7359622"><ele>100.4</ele><time>2026-04-25T15:41:09.757Z</time></trkpt><trkpt lat="45.4292756" lon="10.7358038"><ele>100.6</ele><time>2026-04-25T15:41:10.758Z</time></trkpt><trkpt lat="45.4292601" lon="10.7356463"><ele>100.8</ele><time>2026-04-25T15:41:11.758Z</time></trkpt><trkpt lat="45.4292506" lon="10.7354873"><ele>101.0</ele><time>2026-04-25T15:41:12.755Z</time></trkpt><trkpt lat="45.4292404" lon="10.7353213"><ele>100.75</ele><time>2026-04-25T15:41:13.75Z</time></trkpt><trkpt lat="45.4292318" lon="10.7351464"><ele>100.5</ele><time>2026-04-25T15:41:14.758Z</time></trkpt><trkpt lat="45.4292284" lon="10.7349648"><ele>100.25</ele><time>2026-04-25T15:41:15.762Z</time></trkpt><trkpt lat="45.4292274" lon="10.7347761"><ele>100.0</ele><time>2026-04-25T15:41:16.756Z</time></trkpt><trkpt lat="45.4292276" lon="10.7345817"><ele>99.75</ele><time>2026-04-25T15:41:17.754Z</time></trkpt><trkpt lat="45.4292351" lon="10.7343847"><ele>99.5</ele><time>2026-04-25T15:41:18.75Z</time></trkpt><trkpt lat="45.4292454" lon="10.7341812"><ele>99.25</ele><time>2026-04-25T15:41:19.754Z</time></trkpt><trkpt lat="45.4292592" lon="10.7339729"><ele>99.0</ele><time>2026-04-25T15:41:20.758Z</time></trkpt><trkpt lat="45.429279" lon="10.7337603"><ele>100.66666666666666</ele><time>2026-04-25T15:41:21.758Z</time></trkpt><trkpt lat="45.4293029" lon="10.7335424"><ele>102.33333333333333</ele><time>2026-04-25T15:41:22.757Z</time></trkpt><trkpt lat="45.4293277" lon="10.7333204"><ele>104.0</ele><time>2026-04-25T15:41:23.761Z</time></trkpt><trkpt lat="45.4293533" lon="10.7330991"><ele>104.0</ele><time>2026-04-25T15:41:24.762Z</time></trkpt><trkpt lat="45.4293773" lon="10.7328765"><ele>104.0</ele><time>2026-04-25T15:41:25.755Z</time></trkpt><trkpt lat="45.4294027" lon="10.7326554"><ele>104.0</ele><time>2026-04-25T15:41:26.757Z</time></trkpt><trkpt lat="45.429427" lon="10.7324397"><ele>103.66666666666666</ele><time>2026-04-25T15:41:27.755Z</time></trkpt><trkpt lat="45.4294507" lon="10.7322267"><ele>103.33333333333334</ele><time>2026-04-25T15:41:28.755Z</time></trkpt><trkpt lat="45.429474" lon="10.7320151"><ele>103.0</ele><time>2026-04-25T15:41:29.754Z</time></trkpt><trkpt lat="45.4294986" lon="10.7318006"><ele>103.0</ele><time>2026-04-25T15:41:30.758Z</time></trkpt><trkpt lat="45.4295211" lon="10.7315806"><ele>103.0</ele><time>2026-04-25T15:41:31.758Z</time></trkpt><trkpt lat="45.4295425" lon="10.7313554"><ele>103.0</ele><time>2026-04-25T15:41:32.763Z</time></trkpt><trkpt lat="45.429564" lon="10.7311277"><ele>102.66666666666667</ele><time>2026-04-25T15:41:33.756Z</time></trkpt><trkpt lat="45.4295858" lon="10.7308969"><ele>102.33333333333334</ele><time>2026-04-25T15:41:34.759Z</time></trkpt><trkpt lat="45.4296083" lon="10.7306683"><ele>102.0</ele><time>2026-04-25T15:41:35.758Z</time></trkpt><trkpt lat="45.4296283" lon="10.7304333"><ele>102.0</ele><time>2026-04-25T15:41:36.762Z</time></trkpt><trkpt lat="45.42965" lon="10.7302"><ele>102.0</ele><time>2026-04-25T15:41:37.755Z</time></trkpt><trkpt lat="45.4296717" lon="10.729965"><ele>102.0</ele><time>2026-04-25T15:41:38.759Z</time></trkpt><trkpt lat="45.42969" lon="10.729735"><ele>102.0</ele><time>2026-04-25T15:41:39.756Z</time></trkpt><trkpt lat="45.4297067" lon="10.729505"><ele>102.0</ele><time>2026-04-25T15:41:40.756Z</time></trkpt><trkpt lat="45.429725" lon="10.72928"><ele>102.0</ele><time>2026-04-25T15:41:41.755Z</time></trkpt><trkpt lat="45.4297433" lon="10.7290583"><ele>103.0</ele><time>2026-04-25T15:41:42.756Z</time></trkpt><trkpt lat="45.42976" lon="10.7288417"><ele>104.0</ele><time>2026-04-25T15:41:43.756Z</time></trkpt><trkpt lat="45.4297767" lon="10.7286317"><ele>105.0</ele><time>2026-04-25T15:41:44.759Z</time></trkpt><trkpt lat="45.4297917" lon="10.728415"><ele>106.66666666666666</ele><time>2026-04-25T15:41:45.756Z</time></trkpt><trkpt lat="45.4298067" lon="10.7281983"><ele>108.33333333333333</ele><time>2026-04-25T15:41:46.758Z</time></trkpt><trkpt lat="45.4298233" lon="10.727985"><ele>110.0</ele><time>2026-04-25T15:41:47.755Z</time></trkpt><trkpt lat="45.4298383" lon="10.727765"><ele>111.33333333333333</ele><time>2026-04-25T15:41:48.759Z</time></trkpt><trkpt lat="45.4298517" lon="10.72753"><ele>112.66666666666666</ele><time>2026-04-25T15:41:49.751Z</time></trkpt><trkpt lat="45.4298667" lon="10.7272817"><ele>114.0</ele><time>2026-04-25T15:41:50.756Z</time></trkpt><trkpt lat="45.4298817" lon="10.72702"><ele>113.66666666666666</ele><time>2026-04-25T15:41:51.757Z</time></trkpt><trkpt lat="45.4298967" lon="10.7267567"><ele>113.33333333333333</ele><time>2026-04-25T15:41:52.755Z</time></trkpt><trkpt lat="45.4299067" lon="10.7264933"><ele>113.0</ele><time>2026-04-25T15:41:53.755Z</time></trkpt><trkpt lat="45.4299083" lon="10.7262267"><ele>112.66666666666666</ele><time>2026-04-25T15:41:54.759Z</time></trkpt><trkpt lat="45.4299067" lon="10.7259583"><ele>112.33333333333334</ele><time>2026-04-25T15:41:55.757Z</time></trkpt><trkpt lat="45.4299017" lon="10.72569"><ele>112.0</ele><time>2026-04-25T15:41:56.76Z</time></trkpt><trkpt lat="45.4298967" lon="10.7254283"><ele>111.0</ele><time>2026-04-25T15:41:57.756Z</time></trkpt><trkpt lat="45.429885" lon="10.7251667"><ele>110.0</ele><time>2026-04-25T15:41:58.763Z</time></trkpt><trkpt lat="45.4298733" lon="10.7249167"><ele>109.0</ele><time>2026-04-25T15:41:59.757Z</time></trkpt><trkpt lat="45.4298617" lon="10.7246783"><ele>109.0</ele><time>2026-04-25T15:42:00.766Z</time></trkpt><trkpt lat="45.4298417" lon="10.72445"><ele>109.0</ele><time>2026-04-25T15:42:01.761Z</time></trkpt><trkpt lat="45.42983" lon="10.72423"><ele>109.0</ele><time>2026-04-25T15:42:02.759Z</time></trkpt><trkpt lat="45.429825" lon="10.7240167"><ele>109.0</ele><time>2026-04-25T15:42:03.757Z</time></trkpt><trkpt lat="45.4298183" lon="10.723805"><ele>109.0</ele><time>2026-04-25T15:42:04.759Z</time></trkpt><trkpt lat="45.4298117" lon="10.7235983"><ele>109.0</ele><time>2026-04-25T15:42:05.758Z</time></trkpt><trkpt lat="45.42981" lon="10.72339"><ele>109.0</ele><time>2026-04-25T15:42:06.76Z</time></trkpt><trkpt lat="45.4298083" lon="10.72318"><ele>109.33333333333334</ele><time>2026-04-25T15:42:07.755Z</time></trkpt><trkpt lat="45.4298033" lon="10.7229617"><ele>109.66666666666666</ele><time>2026-04-25T15:42:08.755Z</time></trkpt><trkpt lat="45.4298017" lon="10.7227417"><ele>110.0</ele><time>2026-04-25T15:42:09.757Z</time></trkpt><trkpt lat="45.4298" lon="10.7225217"><ele>109.25</ele><time>2026-04-25T15:42:10.756Z</time></trkpt><trkpt lat="45.429795" lon="10.7223083"><ele>108.5</ele><time>2026-04-25T15:42:11.757Z</time></trkpt><trkpt lat="45.42979" lon="10.7220933"><ele>107.75</ele><time>2026-04-25T15:42:12.761Z</time></trkpt><trkpt lat="45.429785" lon="10.7218833"><ele>107.0</ele><time>2026-04-25T15:42:13.751Z</time></trkpt><trkpt lat="45.4297833" lon="10.721675"><ele>106.33333333333333</ele><time>2026-04-25T15:42:14.752Z</time></trkpt><trkpt lat="45.4297817" lon="10.7214617"><ele>105.66666666666666</ele><time>2026-04-25T15:42:15.758Z</time></trkpt><trkpt lat="45.4297817" lon="10.72125"><ele>105.0</ele><time>2026-04-25T15:42:16.757Z</time></trkpt><trkpt lat="45.4297817" lon="10.7210317"><ele>104.0</ele><time>2026-04-25T15:42:17.754Z</time></trkpt><trkpt lat="45.4297817" lon="10.7208133"><ele>103.0</ele><time>2026-04-25T15:42:18.756Z</time></trkpt><trkpt lat="45.4297817" lon="10.7205883"><ele>102.0</ele><time>2026-04-25T15:42:19.756Z</time></trkpt><trkpt lat="45.4297833" lon="10.72036"><ele>101.33333333333334</ele><time>2026-04-25T15:42:20.757Z</time></trkpt><trkpt lat="45.42978" lon="10.7201283"><ele>100.66666666666667</ele><time>2026-04-25T15:42:21.755Z</time></trkpt><trkpt lat="45.4297783" lon="10.7198917"><ele>100.0</ele><time>2026-04-25T15:42:22.754Z</time></trkpt><trkpt lat="45.4297783" lon="10.71965"><ele>100.0</ele><time>2026-04-25T15:42:23.758Z</time></trkpt><trkpt lat="45.42978" lon="10.7194083"><ele>100.0</ele><time>2026-04-25T15:42:24.756Z</time></trkpt><trkpt lat="45.4297783" lon="10.7191667"><ele>100.0</ele><time>2026-04-25T15:42:25.757Z</time></trkpt><trkpt lat="45.4297767" lon="10.7189267"><ele>100.0</ele><time>2026-04-25T15:42:26.77Z</time></trkpt><trkpt lat="45.4297717" lon="10.71869"><ele>100.0</ele><time>2026-04-25T15:42:27.757Z</time></trkpt><trkpt lat="45.4297667" lon="10.7184567"><ele>100.0</ele><time>2026-04-25T15:42:28.757Z</time></trkpt><trkpt lat="45.4297633" lon="10.7182267"><ele>100.0</ele><time>2026-04-25T15:42:29.76Z</time></trkpt><trkpt lat="45.42976" lon="10.7179983"><ele>100.0</ele><time>2026-04-25T15:42:30.751Z</time></trkpt><trkpt lat="45.429755" lon="10.71777"><ele>100.0</ele><time>2026-04-25T15:42:31.76Z</time></trkpt><trkpt lat="45.4297533" lon="10.7175417"><ele>99.66666666666667</ele><time>2026-04-25T15:42:32.756Z</time></trkpt><trkpt lat="45.42975" lon="10.717315"><ele>99.33333333333334</ele><time>2026-04-25T15:42:33.758Z</time></trkpt><trkpt lat="45.4297467" lon="10.7170933"><ele>99.0</ele><time>2026-04-25T15:42:34.754Z</time></trkpt><trkpt lat="45.429745" lon="10.7168733"><ele>99.0</ele><time>2026-04-25T15:42:35.753Z</time></trkpt><trkpt lat="45.4297417" lon="10.716655"><ele>99.0</ele><time>2026-04-25T15:42:36.759Z</time></trkpt><trkpt lat="45.42974" lon="10.71644"><ele>99.0</ele><time>2026-04-25T15:42:37.755Z</time></trkpt><trkpt lat="45.4297367" lon="10.7162283"><ele>99.75</ele><time>2026-04-25T15:42:38.758Z</time></trkpt><trkpt lat="45.429735" lon="10.7160183"><ele>100.5</ele><time>2026-04-25T15:42:39.763Z</time></trkpt><trkpt lat="45.4297317" lon="10.7158083"><ele>101.25</ele><time>2026-04-25T15:42:40.75Z</time></trkpt><trkpt lat="45.42973" lon="10.7155983"><ele>102.0</ele><time>2026-04-25T15:42:41.754Z</time></trkpt><trkpt lat="45.4297317" lon="10.7153867"><ele>102.0</ele><time>2026-04-25T15:42:42.75Z</time></trkpt><trkpt lat="45.4297333" lon="10.71517"><ele>102.0</ele><time>2026-04-25T15:42:43.756Z</time></trkpt><trkpt lat="45.42973" lon="10.7149517"><ele>102.0</ele><time>2026-04-25T15:42:44.759Z</time></trkpt><trkpt lat="45.4297283" lon="10.7147317"><ele>102.0</ele><time>2026-04-25T15:42:45.755Z</time></trkpt><trkpt lat="45.429725" lon="10.71451"><ele>102.0</ele><time>2026-04-25T15:42:46.755Z</time></trkpt><trkpt lat="45.4297217" lon="10.7142883"><ele>102.0</ele><time>2026-04-25T15:42:47.756Z</time></trkpt><trkpt lat="45.4297183" lon="10.7140633"><ele>102.0</ele><time>2026-04-25T15:42:48.756Z</time></trkpt><trkpt lat="45.4297117" lon="10.7138367"><ele>102.0</ele><time>2026-04-25T15:42:49.759Z</time></trkpt><trkpt lat="45.4297083" lon="10.713605"><ele>102.0</ele><time>2026-04-25T15:42:50.758Z</time></trkpt><trkpt lat="45.4297033" lon="10.71337"><ele>102.0</ele><time>2026-04-25T15:42:51.757Z</time></trkpt><trkpt lat="45.4297" lon="10.713135"><ele>102.0</ele><time>2026-04-25T15:42:52.766Z</time></trkpt><trkpt lat="45.4296967" lon="10.7128983"><ele>102.0</ele><time>2026-04-25T15:42:53.755Z</time></trkpt><trkpt lat="45.4296917" lon="10.7126617"><ele>101.66666666666666</ele><time>2026-04-25T15:42:54.759Z</time></trkpt><trkpt lat="45.4296867" lon="10.71243"><ele>101.33333333333333</ele><time>2026-04-25T15:42:55.761Z</time></trkpt><trkpt lat="45.4296833" lon="10.7122017"><ele>101.0</ele><time>2026-04-25T15:42:56.761Z</time></trkpt><trkpt lat="45.4296833" lon="10.7119733"><ele>99.66666666666666</ele><time>2026-04-25T15:42:57.757Z</time></trkpt><trkpt lat="45.4296867" lon="10.71175"><ele>98.33333333333334</ele><time>2026-04-25T15:42:58.754Z</time></trkpt><trkpt lat="45.4297033" lon="10.7115333"><ele>97.0</ele><time>2026-04-25T15:42:59.757Z</time></trkpt><trkpt lat="45.4297333" lon="10.7113233"><ele>97.0</ele><time>2026-04-25T15:43:00.762Z</time></trkpt><trkpt lat="45.4297683" lon="10.7111133"><ele>97.0</ele><time>2026-04-25T15:43:01.757Z</time></trkpt><trkpt lat="45.4298067" lon="10.7109"><ele>97.0</ele><time>2026-04-25T15:43:02.757Z</time></trkpt><trkpt lat="45.4298517" lon="10.7106833"><ele>95.66666666666667</ele><time>2026-04-25T15:43:03.756Z</time></trkpt><trkpt lat="45.4299" lon="10.71047"><ele>94.33333333333334</ele><time>2026-04-25T15:43:04.757Z</time></trkpt><trkpt lat="45.429955" lon="10.7102533"><ele>93.0</ele><time>2026-04-25T15:43:05.757Z</time></trkpt><trkpt lat="45.4300167" lon="10.7100417"><ele>91.33333333333333</ele><time>2026-04-25T15:43:06.761Z</time></trkpt><trkpt lat="45.4300867" lon="10.7098283"><ele>89.66666666666666</ele><time>2026-04-25T15:43:07.752Z</time></trkpt><trkpt lat="45.4301633" lon="10.70962"><ele>88.0</ele><time>2026-04-25T15:43:08.759Z</time></trkpt><trkpt lat="45.430255" lon="10.7094183"><ele>87.66666666666666</ele><time>2026-04-25T15:43:09.757Z</time></trkpt><trkpt lat="45.4303517" lon="10.7092183"><ele>87.33333333333333</ele><time>2026-04-25T15:43:10.755Z</time></trkpt><trkpt lat="45.4304567" lon="10.70902"><ele>87.0</ele><time>2026-04-25T15:43:11.756Z</time></trkpt><trkpt lat="45.4305683" lon="10.7088267"><ele>87.0</ele><time>2026-04-25T15:43:12.755Z</time></trkpt><trkpt lat="45.4306833" lon="10.708635"><ele>87.0</ele><time>2026-04-25T15:43:13.755Z</time></trkpt><trkpt lat="45.4308017" lon="10.70844"><ele>87.0</ele><time>2026-04-25T15:43:14.754Z</time></trkpt><trkpt lat="45.4309183" lon="10.7082433"><ele>86.66666666666667</ele><time>2026-04-25T15:43:15.759Z</time></trkpt><trkpt lat="45.431035" lon="10.7080433"><ele>86.33333333333334</ele><time>2026-04-25T15:43:16.761Z</time></trkpt><trkpt lat="45.4311517" lon="10.70784"><ele>86.0</ele><time>2026-04-25T15:43:17.761Z</time></trkpt><trkpt lat="45.431265" lon="10.7076333"><ele>82.0</ele><time>2026-04-25T15:43:18.767Z</time></trkpt><trkpt lat="45.431375" lon="10.7074183"><ele>78.0</ele><time>2026-04-25T15:43:19.757Z</time></trkpt><trkpt lat="45.431475" lon="10.7071933"><ele>74.0</ele><time>2026-04-25T15:43:20.758Z</time></trkpt><trkpt lat="45.431565" lon="10.70696"><ele>72.0</ele><time>2026-04-25T15:43:21.759Z</time></trkpt><trkpt lat="45.4316467" lon="10.7067183"><ele>70.0</ele><time>2026-04-25T15:43:22.751Z</time></trkpt><trkpt lat="45.431715" lon="10.7064683"><ele>68.0</ele><time>2026-04-25T15:43:23.76Z</time></trkpt><trkpt lat="45.43177" lon="10.70621"><ele>68.33333333333334</ele><time>2026-04-25T15:43:24.752Z</time></trkpt><trkpt lat="45.4318083" lon="10.7059433"><ele>68.66666666666667</ele><time>2026-04-25T15:43:25.758Z</time></trkpt><trkpt lat="45.4318367" lon="10.7056733"><ele>69.0</ele><time>2026-04-25T15:43:26.759Z</time></trkpt><trkpt lat="45.4318467" lon="10.7053967"><ele>68.66666666666667</ele><time>2026-04-25T15:43:27.757Z</time></trkpt><trkpt lat="45.4318483" lon="10.7051233"><ele>68.33333333333334</ele><time>2026-04-25T15:43:28.76Z</time></trkpt><trkpt lat="45.43183" lon="10.7048483"><ele>68.0</ele><time>2026-04-25T15:43:29.759Z</time></trkpt><trkpt lat="45.4318" lon="10.704585"><ele>68.66666666666667</ele><time>2026-04-25T15:43:30.76Z</time></trkpt><trkpt lat="45.4317567" lon="10.7043383"><ele>69.33333333333333</ele><time>2026-04-25T15:43:31.763Z</time></trkpt><trkpt lat="45.4317067" lon="10.7041083"><ele>70.0</ele><time>2026-04-25T15:43:32.757Z</time></trkpt><trkpt lat="45.4316533" lon="10.7038867"><ele>70.0</ele><time>2026-04-25T15:43:33.751Z</time></trkpt><trkpt lat="45.4316017" lon="10.7036733"><ele>70.0</ele><time>2026-04-25T15:43:34.759Z</time></trkpt><trkpt lat="45.4315533" lon="10.7034667"><ele>70.0</ele><time>2026-04-25T15:43:35.756Z</time></trkpt><trkpt lat="45.4315183" lon="10.703265"><ele>70.0</ele><time>2026-04-25T15:43:36.755Z</time></trkpt><trkpt lat="45.431495" lon="10.7030583"><ele>70.0</ele><time>2026-04-25T15:43:37.751Z</time></trkpt><trkpt lat="45.4314767" lon="10.7028467"><ele>70.0</ele><time>2026-04-25T15:43:38.761Z</time></trkpt><trkpt lat="45.4314633" lon="10.70263"><ele>70.0</ele><time>2026-04-25T15:43:39.751Z</time></trkpt><trkpt lat="45.431455" lon="10.7024117"><ele>69.75</ele><time>2026-04-25T15:43:40.76Z</time></trkpt><trkpt lat="45.4314467" lon="10.7021983"><ele>69.5</ele><time>2026-04-25T15:43:41.754Z</time></trkpt><trkpt lat="45.4314367" lon="10.701995"><ele>69.25</ele><time>2026-04-25T15:43:42.752Z</time></trkpt><trkpt lat="45.4314267" lon="10.7018067"><ele>69.0</ele><time>2026-04-25T15:43:43.758Z</time></trkpt><trkpt lat="45.4314117" lon="10.70162"><ele>68.75</ele><time>2026-04-25T15:43:44.75Z</time></trkpt><trkpt lat="45.4314" lon="10.70144"><ele>68.5</ele><time>2026-04-25T15:43:45.75Z</time></trkpt><trkpt lat="45.4313883" lon="10.70127"><ele>68.25</ele><time>2026-04-25T15:43:46.756Z</time></trkpt><trkpt lat="45.43138" lon="10.70111"><ele>68.0</ele><time>2026-04-25T15:43:47.756Z</time></trkpt><trkpt lat="45.43137" lon="10.70095"><ele>67.5</ele><time>2026-04-25T15:43:48.758Z</time></trkpt><trkpt lat="45.4313633" lon="10.7007933"><ele>67.0</ele><time>2026-04-25T15:43:49.759Z</time></trkpt><trkpt lat="45.4313533" lon="10.7006333"><ele>66.5</ele><time>2026-04-25T15:43:50.75Z</time></trkpt><trkpt lat="45.4313433" lon="10.7004683"><ele>66.0</ele><time>2026-04-25T15:43:51.756Z</time></trkpt><trkpt lat="45.4313317" lon="10.7002983"><ele>66.0</ele><time>2026-04-25T15:43:52.758Z</time></trkpt><trkpt lat="45.4313217" lon="10.7001217"><ele>66.0</ele><time>2026-04-25T15:43:53.759Z</time></trkpt><trkpt lat="45.4313083" lon="10.69994"><ele>66.0</ele><time>2026-04-25T15:43:54.757Z</time></trkpt><trkpt lat="45.4312967" lon="10.6997483"><ele>66.0</ele><time>2026-04-25T15:43:55.755Z</time></trkpt><trkpt lat="45.4312833" lon="10.6995533"><ele>67.25</ele><time>2026-04-25T15:43:56.762Z</time></trkpt><trkpt lat="45.4312733" lon="10.6993567"><ele>68.5</ele><time>2026-04-25T15:43:57.752Z</time></trkpt><trkpt lat="45.4312617" lon="10.69916"><ele>69.75</ele><time>2026-04-25T15:43:58.755Z</time></trkpt><trkpt lat="45.43125" lon="10.698965"><ele>71.0</ele><time>2026-04-25T15:43:59.755Z</time></trkpt><trkpt lat="45.43124" lon="10.69877"><ele>71.66666666666667</ele><time>2026-04-25T15:44:00.755Z</time></trkpt><trkpt lat="45.4312233" lon="10.6983933"><ele>72.33333333333333</ele><time>2026-04-25T15:44:02.75Z</time></trkpt><trkpt lat="45.431215" lon="10.6982117"><ele>73.0</ele><time>2026-04-25T15:44:03.756Z</time></trkpt><trkpt lat="45.431205" lon="10.6980333"><ele>73.0</ele><time>2026-04-25T15:44:04.76Z</time></trkpt><trkpt lat="45.4311967" lon="10.6978567"><ele>73.0</ele><time>2026-04-25T15:44:05.759Z</time></trkpt><trkpt lat="45.431185" lon="10.6976767"><ele>73.0</ele><time>2026-04-25T15:44:06.755Z</time></trkpt><trkpt lat="45.431175" lon="10.697495"><ele>73.0</ele><time>2026-04-25T15:44:07.757Z</time></trkpt><trkpt lat="45.4311648" lon="10.6973118"><ele>73.25</ele><time>2026-04-25T15:44:08.756Z</time></trkpt><trkpt lat="45.4311556" lon="10.6971257"><ele>73.5</ele><time>2026-04-25T15:44:09.754Z</time></trkpt><trkpt lat="45.431147" lon="10.6969373"><ele>73.75</ele><time>2026-04-25T15:44:10.755Z</time></trkpt><trkpt lat="45.4311374" lon="10.696746"><ele>74.0</ele><time>2026-04-25T15:44:11.757Z</time></trkpt><trkpt lat="45.4311286" lon="10.6965552"><ele>74.75</ele><time>2026-04-25T15:44:12.757Z</time></trkpt><trkpt lat="45.4311189" lon="10.6963597"><ele>75.5</ele><time>2026-04-25T15:44:13.765Z</time></trkpt><trkpt lat="45.4311078" lon="10.6961622"><ele>76.25</ele><time>2026-04-25T15:44:14.761Z</time></trkpt><trkpt lat="45.4310945" lon="10.695961"><ele>77.0</ele><time>2026-04-25T15:44:15.756Z</time></trkpt><trkpt lat="45.4310852" lon="10.6957604"><ele>77.5</ele><time>2026-04-25T15:44:16.756Z</time></trkpt><trkpt lat="45.4310731" lon="10.6955572"><ele>78.0</ele><time>2026-04-25T15:44:17.759Z</time></trkpt><trkpt lat="45.4310595" lon="10.6953524"><ele>78.5</ele><time>2026-04-25T15:44:18.758Z</time></trkpt><trkpt lat="45.431046" lon="10.6951456"><ele>79.0</ele><time>2026-04-25T15:44:19.759Z</time></trkpt><trkpt lat="45.4310344" lon="10.6949404"><ele>79.0</ele><time>2026-04-25T15:44:20.757Z</time></trkpt><trkpt lat="45.4310217" lon="10.6947368"><ele>79.0</ele><time>2026-04-25T15:44:21.757Z</time></trkpt><trkpt lat="45.4310068" lon="10.6945333"><ele>79.0</ele><time>2026-04-25T15:44:22.759Z</time></trkpt><trkpt lat="45.4309928" lon="10.6943282"><ele>79.0</ele><time>2026-04-25T15:44:23.763Z</time></trkpt><trkpt lat="45.4309792" lon="10.6941194"><ele>79.66666666666666</ele><time>2026-04-25T15:44:24.755Z</time></trkpt><trkpt lat="45.4309658" lon="10.6939072"><ele>80.33333333333333</ele><time>2026-04-25T15:44:25.755Z</time></trkpt><trkpt lat="45.4309554" lon="10.6936906"><ele>81.0</ele><time>2026-04-25T15:44:26.758Z</time></trkpt><trkpt lat="45.4309417" lon="10.6934709"><ele>83.66666666666667</ele><time>2026-04-25T15:44:27.757Z</time></trkpt><trkpt lat="45.4309276" lon="10.6932488"><ele>86.33333333333334</ele><time>2026-04-25T15:44:28.755Z</time></trkpt><trkpt lat="45.4309145" lon="10.6930218"><ele>89.0</ele><time>2026-04-25T15:44:29.761Z</time></trkpt><trkpt lat="45.4308989" lon="10.6927922"><ele>89.0</ele><time>2026-04-25T15:44:30.758Z</time></trkpt><trkpt lat="45.4308844" lon="10.6925624"><ele>89.0</ele><time>2026-04-25T15:44:31.76Z</time></trkpt><trkpt lat="45.4308729" lon="10.6923348"><ele>89.0</ele><time>2026-04-25T15:44:32.755Z</time></trkpt><trkpt lat="45.4308609" lon="10.6921078"><ele>89.0</ele><time>2026-04-25T15:44:33.755Z</time></trkpt><trkpt lat="45.4308478" lon="10.6918767"><ele>89.0</ele><time>2026-04-25T15:44:34.757Z</time></trkpt><trkpt lat="45.4308357" lon="10.691643"><ele>89.0</ele><time>2026-04-25T15:44:35.751Z</time></trkpt><trkpt lat="45.4308239" lon="10.6914046"><ele>89.0</ele><time>2026-04-25T15:44:36.755Z</time></trkpt><trkpt lat="45.4308146" lon="10.6911624"><ele>89.0</ele><time>2026-04-25T15:44:37.752Z</time></trkpt><trkpt lat="45.4308041" lon="10.6909123"><ele>89.0</ele><time>2026-04-25T15:44:38.757Z</time></trkpt><trkpt lat="45.4307941" lon="10.6906554"><ele>89.66666666666667</ele><time>2026-04-25T15:44:39.764Z</time></trkpt><trkpt lat="45.4307849" lon="10.6903956"><ele>90.33333333333333</ele><time>2026-04-25T15:44:40.761Z</time></trkpt><trkpt lat="45.4307795" lon="10.6901332"><ele>91.0</ele><time>2026-04-25T15:44:41.761Z</time></trkpt><trkpt lat="45.4307788" lon="10.6898735"><ele>91.0</ele><time>2026-04-25T15:44:42.761Z</time></trkpt><trkpt lat="45.4307832" lon="10.6896197"><ele>91.0</ele><time>2026-04-25T15:44:43.761Z</time></trkpt><trkpt lat="45.4307931" lon="10.6893711"><ele>91.0</ele><time>2026-04-25T15:44:44.763Z</time></trkpt><trkpt lat="45.4308028" lon="10.6891221"><ele>91.0</ele><time>2026-04-25T15:44:45.751Z</time></trkpt><trkpt lat="45.4308181" lon="10.6888713"><ele>91.0</ele><time>2026-04-25T15:44:46.757Z</time></trkpt><trkpt lat="45.4308422" lon="10.6886258"><ele>91.0</ele><time>2026-04-25T15:44:47.757Z</time></trkpt><trkpt lat="45.4308698" lon="10.6883809"><ele>89.66666666666666</ele><time>2026-04-25T15:44:48.759Z</time></trkpt><trkpt lat="45.4309007" lon="10.6881344"><ele>88.33333333333333</ele><time>2026-04-25T15:44:49.758Z</time></trkpt><trkpt lat="45.4309385" lon="10.6878863"><ele>87.0</ele><time>2026-04-25T15:44:50.758Z</time></trkpt><trkpt lat="45.4309808" lon="10.6876353"><ele>87.0</ele><time>2026-04-25T15:44:51.757Z</time></trkpt><trkpt lat="45.4310287" lon="10.6873856"><ele>87.0</ele><time>2026-04-25T15:44:52.753Z</time></trkpt><trkpt lat="45.431084" lon="10.6871349"><ele>87.0</ele><time>2026-04-25T15:44:53.757Z</time></trkpt><trkpt lat="45.4311423" lon="10.6868837"><ele>86.66666666666667</ele><time>2026-04-25T15:44:54.755Z</time></trkpt><trkpt lat="45.431204" lon="10.6866336"><ele>86.33333333333334</ele><time>2026-04-25T15:44:55.759Z</time></trkpt><trkpt lat="45.4312701" lon="10.6863904"><ele>86.0</ele><time>2026-04-25T15:44:56.761Z</time></trkpt><trkpt lat="45.431336" lon="10.686152"><ele>86.33333333333334</ele><time>2026-04-25T15:44:57.757Z</time></trkpt><trkpt lat="45.4314074" lon="10.6859182"><ele>86.66666666666667</ele><time>2026-04-25T15:44:58.757Z</time></trkpt><trkpt lat="45.4314821" lon="10.6856882"><ele>87.0</ele><time>2026-04-25T15:44:59.758Z</time></trkpt><trkpt lat="45.4315634" lon="10.6854636"><ele>86.66666666666667</ele><time>2026-04-25T15:45:00.758Z</time></trkpt><trkpt lat="45.4316615" lon="10.6852465"><ele>86.33333333333334</ele><time>2026-04-25T15:45:01.758Z</time></trkpt><trkpt lat="45.4317707" lon="10.6850359"><ele>86.0</ele><time>2026-04-25T15:45:02.76Z</time></trkpt><trkpt lat="45.4318895" lon="10.6848311"><ele>86.0</ele><time>2026-04-25T15:45:03.763Z</time></trkpt><trkpt lat="45.4320121" lon="10.6846262"><ele>86.0</ele><time>2026-04-25T15:45:04.757Z</time></trkpt><trkpt lat="45.4321392" lon="10.6844179"><ele>86.0</ele><time>2026-04-25T15:45:05.762Z</time></trkpt><trkpt lat="45.4322691" lon="10.6842114"><ele>85.66666666666667</ele><time>2026-04-25T15:45:06.759Z</time></trkpt><trkpt lat="45.4324017" lon="10.68401"><ele>85.33333333333333</ele><time>2026-04-25T15:45:07.761Z</time></trkpt><trkpt lat="45.43253" lon="10.6838133"><ele>85.0</ele><time>2026-04-25T15:45:08.753Z</time></trkpt><trkpt lat="45.4326583" lon="10.6836283"><ele>84.66666666666666</ele><time>2026-04-25T15:45:09.757Z</time></trkpt><trkpt lat="45.4327867" lon="10.6834567"><ele>84.33333333333333</ele><time>2026-04-25T15:45:10.755Z</time></trkpt><trkpt lat="45.4329183" lon="10.6832967"><ele>84.0</ele><time>2026-04-25T15:45:11.756Z</time></trkpt><trkpt lat="45.4330483" lon="10.6831467"><ele>84.66666666666667</ele><time>2026-04-25T15:45:12.757Z</time></trkpt><trkpt lat="45.43318" lon="10.6830083"><ele>85.33333333333334</ele><time>2026-04-25T15:45:13.757Z</time></trkpt><trkpt lat="45.4333117" lon="10.682875"><ele>86.0</ele><time>2026-04-25T15:45:14.758Z</time></trkpt><trkpt lat="45.4334467" lon="10.6827467"><ele>86.33333333333334</ele><time>2026-04-25T15:45:15.753Z</time></trkpt><trkpt lat="45.4335867" lon="10.68262"><ele>86.66666666666667</ele><time>2026-04-25T15:45:16.752Z</time></trkpt><trkpt lat="45.4337267" lon="10.682495"><ele>87.0</ele><time>2026-04-25T15:45:17.752Z</time></trkpt><trkpt lat="45.4338667" lon="10.68237"><ele>87.0</ele><time>2026-04-25T15:45:18.758Z</time></trkpt><trkpt lat="45.4340067" lon="10.6822517"><ele>87.0</ele><time>2026-04-25T15:45:19.757Z</time></trkpt><trkpt lat="45.434145" lon="10.6821283"><ele>87.0</ele><time>2026-04-25T15:45:20.76Z</time></trkpt><trkpt lat="45.4342867" lon="10.682005"><ele>86.66666666666667</ele><time>2026-04-25T15:45:21.752Z</time></trkpt><trkpt lat="45.43443" lon="10.6818867"><ele>86.33333333333334</ele><time>2026-04-25T15:45:22.75Z</time></trkpt><trkpt lat="45.434575" lon="10.6817617"><ele>86.0</ele><time>2026-04-25T15:45:23.751Z</time></trkpt><trkpt lat="45.4347217" lon="10.6816517"><ele>87.66666666666667</ele><time>2026-04-25T15:45:24.758Z</time></trkpt><trkpt lat="45.4348667" lon="10.6815333"><ele>89.33333333333333</ele><time>2026-04-25T15:45:25.761Z</time></trkpt><trkpt lat="45.4350117" lon="10.6814233"><ele>91.0</ele><time>2026-04-25T15:45:26.752Z</time></trkpt><trkpt lat="45.4351583" lon="10.6813133"><ele>91.0</ele><time>2026-04-25T15:45:27.753Z</time></trkpt><trkpt lat="45.4353" lon="10.6812"><ele>91.0</ele><time>2026-04-25T15:45:28.76Z</time></trkpt><trkpt lat="45.43544" lon="10.6810833"><ele>91.0</ele><time>2026-04-25T15:45:29.762Z</time></trkpt><trkpt lat="45.4355783" lon="10.6809767"><ele>91.0</ele><time>2026-04-25T15:45:30.761Z</time></trkpt><trkpt lat="45.4357083" lon="10.6808783"><ele>91.0</ele><time>2026-04-25T15:45:31.759Z</time></trkpt><trkpt lat="45.4358333" lon="10.6807917"><ele>91.0</ele><time>2026-04-25T15:45:32.754Z</time></trkpt><trkpt lat="45.4359517" lon="10.6807033"><ele>91.0</ele><time>2026-04-25T15:45:33.761Z</time></trkpt><trkpt lat="45.43606" lon="10.6806183"><ele>91.0</ele><time>2026-04-25T15:45:34.755Z</time></trkpt><trkpt lat="45.436165" lon="10.6805367"><ele>91.0</ele><time>2026-04-25T15:45:35.756Z</time></trkpt><trkpt lat="45.436265" lon="10.6804667"><ele>91.0</ele><time>2026-04-25T15:45:36.758Z</time></trkpt><trkpt lat="45.4363617" lon="10.6803983"><ele>91.0</ele><time>2026-04-25T15:45:37.757Z</time></trkpt><trkpt lat="45.436456" lon="10.6803283"><ele>91.0</ele><time>2026-04-25T15:45:38.757Z</time></trkpt><trkpt lat="45.4365472" lon="10.6802607"><ele>91.0</ele><time>2026-04-25T15:45:39.752Z</time></trkpt><trkpt lat="45.4366414" lon="10.6801863"><ele>91.0</ele><time>2026-04-25T15:45:40.757Z</time></trkpt><trkpt lat="45.436734" lon="10.6801097"><ele>91.0</ele><time>2026-04-25T15:45:41.758Z</time></trkpt><trkpt lat="45.4368215" lon="10.6800365"><ele>91.0</ele><time>2026-04-25T15:45:42.758Z</time></trkpt><trkpt lat="45.4369027" lon="10.6799728"><ele>91.0</ele><time>2026-04-25T15:45:43.759Z</time></trkpt><trkpt lat="45.4369816" lon="10.6799148"><ele>91.0</ele><time>2026-04-25T15:45:44.757Z</time></trkpt><trkpt lat="45.4370613" lon="10.6798565"><ele>91.0</ele><time>2026-04-25T15:45:45.757Z</time></trkpt><trkpt lat="45.4371468" lon="10.6797951"><ele>91.0</ele><time>2026-04-25T15:45:46.757Z</time></trkpt><trkpt lat="45.4372383" lon="10.6797265"><ele>91.0</ele><time>2026-04-25T15:45:47.757Z</time></trkpt><trkpt lat="45.4373355" lon="10.6796525"><ele>91.0</ele><time>2026-04-25T15:45:48.758Z</time></trkpt><trkpt lat="45.4374399" lon="10.6795744"><ele>91.0</ele><time>2026-04-25T15:45:49.761Z</time></trkpt><trkpt lat="45.43755" lon="10.6794891"><ele>91.0</ele><time>2026-04-25T15:45:50.762Z</time></trkpt><trkpt lat="45.4376662" lon="10.6794005"><ele>91.0</ele><time>2026-04-25T15:45:51.76Z</time></trkpt><trkpt lat="45.4377854" lon="10.6793094"><ele>91.0</ele><time>2026-04-25T15:45:52.76Z</time></trkpt><trkpt lat="45.4379072" lon="10.6792173"><ele>90.5</ele><time>2026-04-25T15:45:53.765Z</time></trkpt><trkpt lat="45.4380305" lon="10.6791228"><ele>90.0</ele><time>2026-04-25T15:45:54.756Z</time></trkpt><trkpt lat="45.4381562" lon="10.6790269"><ele>89.5</ele><time>2026-04-25T15:45:55.763Z</time></trkpt><trkpt lat="45.4382796" lon="10.6789303"><ele>89.0</ele><time>2026-04-25T15:45:56.76Z</time></trkpt><trkpt lat="45.4384054" lon="10.6788357"><ele>89.0</ele><time>2026-04-25T15:45:57.752Z</time></trkpt><trkpt lat="45.438533" lon="10.6787394"><ele>89.0</ele><time>2026-04-25T15:45:58.755Z</time></trkpt><trkpt lat="45.4386568" lon="10.6786427"><ele>89.0</ele><time>2026-04-25T15:45:59.759Z</time></trkpt><trkpt lat="45.4387796" lon="10.6785454"><ele>89.0</ele><time>2026-04-25T15:46:00.76Z</time></trkpt><trkpt lat="45.4389009" lon="10.6784481"><ele>88.5</ele><time>2026-04-25T15:46:01.753Z</time></trkpt><trkpt lat="45.4390216" lon="10.6783518"><ele>88.0</ele><time>2026-04-25T15:46:02.756Z</time></trkpt><trkpt lat="45.4391424" lon="10.6782608"><ele>87.5</ele><time>2026-04-25T15:46:03.752Z</time></trkpt><trkpt lat="45.4392605" lon="10.6781719"><ele>87.0</ele><time>2026-04-25T15:46:04.759Z</time></trkpt><trkpt lat="45.4393766" lon="10.6780825"><ele>87.0</ele><time>2026-04-25T15:46:05.759Z</time></trkpt><trkpt lat="45.4394918" lon="10.6779915"><ele>87.0</ele><time>2026-04-25T15:46:06.76Z</time></trkpt><trkpt lat="45.4396089" lon="10.6778981"><ele>87.0</ele><time>2026-04-25T15:46:07.756Z</time></trkpt><trkpt lat="45.4397306" lon="10.6778012"><ele>87.0</ele><time>2026-04-25T15:46:08.757Z</time></trkpt><trkpt lat="45.4398524" lon="10.6777017"><ele>86.5</ele><time>2026-04-25T15:46:09.76Z</time></trkpt><trkpt lat="45.4399738" lon="10.6775978"><ele>86.0</ele><time>2026-04-25T15:46:10.758Z</time></trkpt><trkpt lat="45.4400971" lon="10.6774925"><ele>85.5</ele><time>2026-04-25T15:46:11.758Z</time></trkpt><trkpt lat="45.4402225" lon="10.6773793"><ele>85.0</ele><time>2026-04-25T15:46:12.756Z</time></trkpt><trkpt lat="45.4403507" lon="10.677256"><ele>85.0</ele><time>2026-04-25T15:46:13.756Z</time></trkpt><trkpt lat="45.4404783" lon="10.6771188"><ele>85.0</ele><time>2026-04-25T15:46:14.758Z</time></trkpt><trkpt lat="45.4406048" lon="10.67697"><ele>85.0</ele><time>2026-04-25T15:46:15.759Z</time></trkpt><trkpt lat="45.4407267" lon="10.6768078"><ele>85.33333333333333</ele><time>2026-04-25T15:46:16.752Z</time></trkpt><trkpt lat="45.4408441" lon="10.6766274"><ele>85.66666666666667</ele><time>2026-04-25T15:46:17.752Z</time></trkpt><trkpt lat="45.4409535" lon="10.6764302"><ele>86.0</ele><time>2026-04-25T15:46:18.754Z</time></trkpt><trkpt lat="45.4410543" lon="10.6762192"><ele>85.66666666666667</ele><time>2026-04-25T15:46:19.753Z</time></trkpt><trkpt lat="45.4411489" lon="10.6759952"><ele>85.33333333333333</ele><time>2026-04-25T15:46:20.754Z</time></trkpt><trkpt lat="45.441238" lon="10.6757627"><ele>85.0</ele><time>2026-04-25T15:46:21.753Z</time></trkpt><trkpt lat="45.4413197" lon="10.6755208"><ele>84.33333333333333</ele><time>2026-04-25T15:46:22.752Z</time></trkpt><trkpt lat="45.4413923" lon="10.6752663"><ele>83.66666666666667</ele><time>2026-04-25T15:46:23.753Z</time></trkpt><trkpt lat="45.4414595" lon="10.6750056"><ele>83.0</ele><time>2026-04-25T15:46:24.753Z</time></trkpt><trkpt lat="45.4415255" lon="10.6747398"><ele>83.0</ele><time>2026-04-25T15:46:25.753Z</time></trkpt><trkpt lat="45.4415903" lon="10.6744696"><ele>83.0</ele><time>2026-04-25T15:46:26.753Z</time></trkpt><trkpt lat="45.4416573" lon="10.6741976"><ele>83.0</ele><time>2026-04-25T15:46:27.755Z</time></trkpt><trkpt lat="45.4417258" lon="10.6739254"><ele>83.0</ele><time>2026-04-25T15:46:28.752Z</time></trkpt><trkpt lat="45.4417933" lon="10.6736534"><ele>83.0</ele><time>2026-04-25T15:46:29.752Z</time></trkpt><trkpt lat="45.4418599" lon="10.6733792"><ele>83.0</ele><time>2026-04-25T15:46:30.755Z</time></trkpt><trkpt lat="45.4419277" lon="10.6731068"><ele>82.33333333333334</ele><time>2026-04-25T15:46:31.753Z</time></trkpt><trkpt lat="45.4419965" lon="10.6728297"><ele>81.66666666666667</ele><time>2026-04-25T15:46:32.755Z</time></trkpt><trkpt lat="45.4420645" lon="10.6725511"><ele>81.0</ele><time>2026-04-25T15:46:33.754Z</time></trkpt><trkpt lat="45.4421338" lon="10.6722735"><ele>80.33333333333333</ele><time>2026-04-25T15:46:34.756Z</time></trkpt><trkpt lat="45.4421978" lon="10.6719982"><ele>79.66666666666666</ele><time>2026-04-25T15:46:35.753Z</time></trkpt><trkpt lat="45.4422556" lon="10.6717244"><ele>79.0</ele><time>2026-04-25T15:46:36.757Z</time></trkpt><trkpt lat="45.4423083" lon="10.67146"><ele>78.66666666666666</ele><time>2026-04-25T15:46:37.758Z</time></trkpt><trkpt lat="45.4423533" lon="10.6712017"><ele>78.33333333333333</ele><time>2026-04-25T15:46:38.758Z</time></trkpt><trkpt lat="45.44239" lon="10.6709483"><ele>78.0</ele><time>2026-04-25T15:46:39.757Z</time></trkpt><trkpt lat="45.4424233" lon="10.6707017"><ele>78.0</ele><time>2026-04-25T15:46:40.752Z</time></trkpt><trkpt lat="45.4424517" lon="10.67046"><ele>78.0</ele><time>2026-04-25T15:46:41.752Z</time></trkpt><trkpt lat="45.442475" lon="10.6702183"><ele>78.0</ele><time>2026-04-25T15:46:42.758Z</time></trkpt><trkpt lat="45.442495" lon="10.6699767"><ele>78.0</ele><time>2026-04-25T15:46:43.757Z</time></trkpt><trkpt lat="45.4425083" lon="10.6697283"><ele>78.0</ele><time>2026-04-25T15:46:44.759Z</time></trkpt><trkpt lat="45.4425183" lon="10.669475"><ele>78.0</ele><time>2026-04-25T15:46:45.757Z</time></trkpt><trkpt lat="45.4425233" lon="10.669215"><ele>77.66666666666667</ele><time>2026-04-25T15:46:46.759Z</time></trkpt><trkpt lat="45.442525" lon="10.66895"><ele>77.33333333333334</ele><time>2026-04-25T15:46:47.759Z</time></trkpt><trkpt lat="45.4425217" lon="10.6686783"><ele>77.0</ele><time>2026-04-25T15:46:48.762Z</time></trkpt><trkpt lat="45.4425117" lon="10.6684067"><ele>76.66666666666667</ele><time>2026-04-25T15:46:49.761Z</time></trkpt><trkpt lat="45.4424967" lon="10.668135"><ele>76.33333333333333</ele><time>2026-04-25T15:46:50.76Z</time></trkpt><trkpt lat="45.4424767" lon="10.667865"><ele>76.0</ele><time>2026-04-25T15:46:51.763Z</time></trkpt><trkpt lat="45.44245" lon="10.6675983"><ele>76.0</ele><time>2026-04-25T15:46:52.759Z</time></trkpt><trkpt lat="45.4424217" lon="10.66734"><ele>76.0</ele><time>2026-04-25T15:46:53.761Z</time></trkpt><trkpt lat="45.44239" lon="10.667085"><ele>76.0</ele><time>2026-04-25T15:46:54.762Z</time></trkpt><trkpt lat="45.4423517" lon="10.6668383"><ele>75.33333333333333</ele><time>2026-04-25T15:46:55.758Z</time></trkpt><trkpt lat="45.4423117" lon="10.6665967"><ele>74.66666666666667</ele><time>2026-04-25T15:46:56.76Z</time></trkpt><trkpt lat="45.44227" lon="10.6663583"><ele>74.0</ele><time>2026-04-25T15:46:57.756Z</time></trkpt><trkpt lat="45.442225" lon="10.666125"><ele>75.0</ele><time>2026-04-25T15:46:58.756Z</time></trkpt><trkpt lat="45.4421783" lon="10.6658917"><ele>76.0</ele><time>2026-04-25T15:46:59.758Z</time></trkpt><trkpt lat="45.4421317" lon="10.6656567"><ele>77.0</ele><time>2026-04-25T15:47:00.761Z</time></trkpt><trkpt lat="45.442085" lon="10.6654183"><ele>77.0</ele><time>2026-04-25T15:47:01.756Z</time></trkpt><trkpt lat="45.44204" lon="10.665175"><ele>77.0</ele><time>2026-04-25T15:47:02.761Z</time></trkpt><trkpt lat="45.442" lon="10.664925"><ele>77.0</ele><time>2026-04-25T15:47:03.757Z</time></trkpt><trkpt lat="45.4419633" lon="10.6646717"><ele>77.66666666666667</ele><time>2026-04-25T15:47:04.757Z</time></trkpt><trkpt lat="45.441925" lon="10.664415"><ele>78.33333333333333</ele><time>2026-04-25T15:47:05.754Z</time></trkpt><trkpt lat="45.44189" lon="10.664155"><ele>79.0</ele><time>2026-04-25T15:47:06.759Z</time></trkpt><trkpt lat="45.4418567" lon="10.6638933"><ele>79.0</ele><time>2026-04-25T15:47:07.758Z</time></trkpt><trkpt lat="45.441825" lon="10.6636333"><ele>79.0</ele><time>2026-04-25T15:47:08.757Z</time></trkpt><trkpt lat="45.44179" lon="10.6633717"><ele>79.0</ele><time>2026-04-25T15:47:09.758Z</time></trkpt><trkpt lat="45.44176" lon="10.6631083"><ele>79.33333333333333</ele><time>2026-04-25T15:47:10.758Z</time></trkpt><trkpt lat="45.44173" lon="10.6628433"><ele>79.66666666666667</ele><time>2026-04-25T15:47:11.754Z</time></trkpt><trkpt lat="45.4417017" lon="10.6625767"><ele>80.0</ele><time>2026-04-25T15:47:12.761Z</time></trkpt><trkpt lat="45.4416767" lon="10.6623067"><ele>80.0</ele><time>2026-04-25T15:47:13.764Z</time></trkpt><trkpt lat="45.4416533" lon="10.662035"><ele>80.0</ele><time>2026-04-25T15:47:14.755Z</time></trkpt><trkpt lat="45.4416317" lon="10.661765"><ele>80.0</ele><time>2026-04-25T15:47:15.766Z</time></trkpt><trkpt lat="45.4416117" lon="10.6614917"><ele>80.0</ele><time>2026-04-25T15:47:16.762Z</time></trkpt><trkpt lat="45.44159" lon="10.6612183"><ele>80.0</ele><time>2026-04-25T15:47:17.759Z</time></trkpt><trkpt lat="45.44157" lon="10.6609483"><ele>80.0</ele><time>2026-04-25T15:47:18.757Z</time></trkpt><trkpt lat="45.4415483" lon="10.6606783"><ele>80.33333333333334</ele><time>2026-04-25T15:47:19.763Z</time></trkpt><trkpt lat="45.4415283" lon="10.66041"><ele>80.66666666666667</ele><time>2026-04-25T15:47:20.759Z</time></trkpt><trkpt lat="45.4415083" lon="10.66014"><ele>81.0</ele><time>2026-04-25T15:47:21.753Z</time></trkpt><trkpt lat="45.4414883" lon="10.659865"><ele>80.33333333333333</ele><time>2026-04-25T15:47:22.757Z</time></trkpt><trkpt lat="45.4414667" lon="10.65959"><ele>79.66666666666666</ele><time>2026-04-25T15:47:23.758Z</time></trkpt><trkpt lat="45.4414467" lon="10.65931"><ele>79.0</ele><time>2026-04-25T15:47:24.763Z</time></trkpt><trkpt lat="45.4414283" lon="10.659025"><ele>78.66666666666666</ele><time>2026-04-25T15:47:25.758Z</time></trkpt><trkpt lat="45.4414067" lon="10.658735"><ele>78.33333333333333</ele><time>2026-04-25T15:47:26.76Z</time></trkpt><trkpt lat="45.441385" lon="10.65844"><ele>78.0</ele><time>2026-04-25T15:47:27.761Z</time></trkpt><trkpt lat="45.4413633" lon="10.658145"><ele>78.0</ele><time>2026-04-25T15:47:28.758Z</time></trkpt><trkpt lat="45.4413417" lon="10.6578483"><ele>78.0</ele><time>2026-04-25T15:47:29.761Z</time></trkpt><trkpt lat="45.44132" lon="10.657545"><ele>78.0</ele><time>2026-04-25T15:47:30.762Z</time></trkpt><trkpt lat="45.4412983" lon="10.6572383"><ele>78.33333333333333</ele><time>2026-04-25T15:47:31.759Z</time></trkpt><trkpt lat="45.4412783" lon="10.6569283"><ele>78.66666666666666</ele><time>2026-04-25T15:47:32.759Z</time></trkpt><trkpt lat="45.441255" lon="10.6566233"><ele>79.0</ele><time>2026-04-25T15:47:33.753Z</time></trkpt><trkpt lat="45.4412317" lon="10.6563233"><ele>78.66666666666666</ele><time>2026-04-25T15:47:34.759Z</time></trkpt><trkpt lat="45.4412083" lon="10.6560317"><ele>78.33333333333333</ele><time>2026-04-25T15:47:35.757Z</time></trkpt><trkpt lat="45.4411867" lon="10.6557433"><ele>78.0</ele><time>2026-04-25T15:47:36.758Z</time></trkpt><trkpt lat="45.441165" lon="10.65546"><ele>77.66666666666667</ele><time>2026-04-25T15:47:37.752Z</time></trkpt><trkpt lat="45.4411433" lon="10.65518"><ele>77.33333333333334</ele><time>2026-04-25T15:47:38.759Z</time></trkpt><trkpt lat="45.4411233" lon="10.6549033"><ele>77.0</ele><time>2026-04-25T15:47:39.76Z</time></trkpt><trkpt lat="45.4411017" lon="10.65463"><ele>76.33333333333334</ele><time>2026-04-25T15:47:40.754Z</time></trkpt><trkpt lat="45.4410817" lon="10.6543567"><ele>75.66666666666667</ele><time>2026-04-25T15:47:41.77Z</time></trkpt><trkpt lat="45.44106" lon="10.6540817"><ele>75.0</ele><time>2026-04-25T15:47:42.761Z</time></trkpt><trkpt lat="45.44104" lon="10.6538033"><ele>75.0</ele><time>2026-04-25T15:47:43.758Z</time></trkpt><trkpt lat="45.4410217" lon="10.6535217"><ele>75.0</ele><time>2026-04-25T15:47:44.758Z</time></trkpt><trkpt lat="45.4410083" lon="10.6532383"><ele>75.0</ele><time>2026-04-25T15:47:45.758Z</time></trkpt><trkpt lat="45.4409983" lon="10.6529517"><ele>74.66666666666667</ele><time>2026-04-25T15:47:46.752Z</time></trkpt><trkpt lat="45.4409933" lon="10.6526667"><ele>74.33333333333334</ele><time>2026-04-25T15:47:47.759Z</time></trkpt><trkpt lat="45.4409967" lon="10.6523833"><ele>74.0</ele><time>2026-04-25T15:47:48.759Z</time></trkpt><trkpt lat="45.441005" lon="10.6521033"><ele>73.66666666666667</ele><time>2026-04-25T15:47:49.753Z</time></trkpt><trkpt lat="45.4410217" lon="10.6518267"><ele>73.33333333333333</ele><time>2026-04-25T15:47:50.758Z</time></trkpt><trkpt lat="45.4410483" lon="10.6515533"><ele>73.0</ele><time>2026-04-25T15:47:51.758Z</time></trkpt><trkpt lat="45.4410783" lon="10.651285"><ele>72.33333333333333</ele><time>2026-04-25T15:47:52.76Z</time></trkpt><trkpt lat="45.4411133" lon="10.6510133"><ele>71.66666666666667</ele><time>2026-04-25T15:47:53.757Z</time></trkpt><trkpt lat="45.4411567" lon="10.6507483"><ele>71.0</ele><time>2026-04-25T15:47:54.758Z</time></trkpt><trkpt lat="45.4412083" lon="10.6504867"><ele>71.0</ele><time>2026-04-25T15:47:55.752Z</time></trkpt><trkpt lat="45.4412667" lon="10.65023"><ele>71.0</ele><time>2026-04-25T15:47:56.758Z</time></trkpt><trkpt lat="45.4413333" lon="10.6499783"><ele>71.0</ele><time>2026-04-25T15:47:57.758Z</time></trkpt><trkpt lat="45.441405" lon="10.64973"><ele>70.66666666666667</ele><time>2026-04-25T15:47:58.759Z</time></trkpt><trkpt lat="45.441485" lon="10.6494867"><ele>70.33333333333333</ele><time>2026-04-25T15:47:59.756Z</time></trkpt><trkpt lat="45.4415683" lon="10.64925"><ele>70.0</ele><time>2026-04-25T15:48:00.76Z</time></trkpt><trkpt lat="45.4416567" lon="10.6490167"><ele>69.66666666666666</ele><time>2026-04-25T15:48:01.76Z</time></trkpt><trkpt lat="45.4417483" lon="10.648785"><ele>69.33333333333333</ele><time>2026-04-25T15:48:02.761Z</time></trkpt><trkpt lat="45.4418433" lon="10.6485567"><ele>69.0</ele><time>2026-04-25T15:48:03.759Z</time></trkpt><trkpt lat="45.4419433" lon="10.64833"><ele>69.0</ele><time>2026-04-25T15:48:04.758Z</time></trkpt><trkpt lat="45.44205" lon="10.6480983"><ele>69.0</ele><time>2026-04-25T15:48:05.761Z</time></trkpt><trkpt lat="45.44217" lon="10.647865"><ele>69.0</ele><time>2026-04-25T15:48:06.759Z</time></trkpt><trkpt lat="45.4422967" lon="10.6476217"><ele>70.0</ele><time>2026-04-25T15:48:07.761Z</time></trkpt><trkpt lat="45.4424283" lon="10.64737"><ele>71.0</ele><time>2026-04-25T15:48:08.751Z</time></trkpt><trkpt lat="45.442565" lon="10.647115"><ele>72.0</ele><time>2026-04-25T15:48:09.753Z</time></trkpt><trkpt lat="45.4427067" lon="10.6468583"><ele>72.5</ele><time>2026-04-25T15:48:10.762Z</time></trkpt><trkpt lat="45.44285" lon="10.6466017"><ele>73.0</ele><time>2026-04-25T15:48:11.762Z</time></trkpt><trkpt lat="45.44299" lon="10.6463433"><ele>73.5</ele><time>2026-04-25T15:48:12.761Z</time></trkpt><trkpt lat="45.4431283" lon="10.6460817"><ele>74.0</ele><time>2026-04-25T15:48:13.757Z</time></trkpt><trkpt lat="45.44326" lon="10.6458167"><ele>74.0</ele><time>2026-04-25T15:48:14.76Z</time></trkpt><trkpt lat="45.44338" lon="10.6455467"><ele>74.0</ele><time>2026-04-25T15:48:15.752Z</time></trkpt><trkpt lat="45.4434883" lon="10.6452717"><ele>74.0</ele><time>2026-04-25T15:48:16.758Z</time></trkpt><trkpt lat="45.44359" lon="10.6449983"><ele>74.33333333333334</ele><time>2026-04-25T15:48:17.767Z</time></trkpt><trkpt lat="45.44368" lon="10.6447217"><ele>74.66666666666667</ele><time>2026-04-25T15:48:18.761Z</time></trkpt><trkpt lat="45.443765" lon="10.64445"><ele>75.0</ele><time>2026-04-25T15:48:19.752Z</time></trkpt><trkpt lat="45.4438433" lon="10.64418"><ele>75.33333333333333</ele><time>2026-04-25T15:48:20.756Z</time></trkpt><trkpt lat="45.4439133" lon="10.6439117"><ele>75.66666666666666</ele><time>2026-04-25T15:48:21.752Z</time></trkpt><trkpt lat="45.443975" lon="10.6436433"><ele>76.0</ele><time>2026-04-25T15:48:22.758Z</time></trkpt><trkpt lat="45.444025" lon="10.6433717"><ele>76.0</ele><time>2026-04-25T15:48:23.758Z</time></trkpt><trkpt lat="45.4440633" lon="10.6431017"><ele>76.0</ele><time>2026-04-25T15:48:24.757Z</time></trkpt><trkpt lat="45.4440933" lon="10.6428333"><ele>76.0</ele><time>2026-04-25T15:48:25.761Z</time></trkpt><trkpt lat="45.444115" lon="10.642565"><ele>76.0</ele><time>2026-04-25T15:48:26.769Z</time></trkpt><trkpt lat="45.4441317" lon="10.6422917"><ele>76.0</ele><time>2026-04-25T15:48:27.754Z</time></trkpt><trkpt lat="45.444145" lon="10.6420183"><ele>76.0</ele><time>2026-04-25T15:48:28.759Z</time></trkpt><trkpt lat="45.444155" lon="10.6417483"><ele>76.33333333333333</ele><time>2026-04-25T15:48:29.758Z</time></trkpt><trkpt lat="45.44416" lon="10.6414817"><ele>76.66666666666667</ele><time>2026-04-25T15:48:30.759Z</time></trkpt><trkpt lat="45.4441633" lon="10.6412183"><ele>77.0</ele><time>2026-04-25T15:48:31.759Z</time></trkpt><trkpt lat="45.4441633" lon="10.64095"><ele>77.0</ele><time>2026-04-25T15:48:32.764Z</time></trkpt><trkpt lat="45.4441617" lon="10.6406833"><ele>77.0</ele><time>2026-04-25T15:48:33.752Z</time></trkpt><trkpt lat="45.4441583" lon="10.6404133"><ele>77.0</ele><time>2026-04-25T15:48:34.752Z</time></trkpt><trkpt lat="45.4441567" lon="10.640145"><ele>77.33333333333334</ele><time>2026-04-25T15:48:35.76Z</time></trkpt><trkpt lat="45.444155" lon="10.639875"><ele>77.66666666666667</ele><time>2026-04-25T15:48:36.76Z</time></trkpt><trkpt lat="45.4441533" lon="10.639605"><ele>78.0</ele><time>2026-04-25T15:48:37.757Z</time></trkpt><trkpt lat="45.4441533" lon="10.6393317"><ele>78.0</ele><time>2026-04-25T15:48:38.764Z</time></trkpt><trkpt lat="45.4441517" lon="10.6390567"><ele>78.0</ele><time>2026-04-25T15:48:39.762Z</time></trkpt><trkpt lat="45.4441517" lon="10.6387817"><ele>78.0</ele><time>2026-04-25T15:48:40.756Z</time></trkpt><trkpt lat="45.4441517" lon="10.638505"><ele>78.0</ele><time>2026-04-25T15:48:41.756Z</time></trkpt><trkpt lat="45.44415" lon="10.6382233"><ele>78.0</ele><time>2026-04-25T15:48:42.76Z</time></trkpt><trkpt lat="45.4441483" lon="10.63794"><ele>78.0</ele><time>2026-04-25T15:48:43.76Z</time></trkpt><trkpt lat="45.4441433" lon="10.6376533"><ele>78.0</ele><time>2026-04-25T15:48:44.76Z</time></trkpt><trkpt lat="45.44414" lon="10.6373667"><ele>78.0</ele><time>2026-04-25T15:48:45.76Z</time></trkpt><trkpt lat="45.4441367" lon="10.637075"><ele>78.0</ele><time>2026-04-25T15:48:46.757Z</time></trkpt><trkpt lat="45.444135" lon="10.6367833"><ele>78.0</ele><time>2026-04-25T15:48:47.758Z</time></trkpt><trkpt lat="45.4441333" lon="10.6364917"><ele>78.0</ele><time>2026-04-25T15:48:48.757Z</time></trkpt><trkpt lat="45.44413" lon="10.6361967"><ele>78.0</ele><time>2026-04-25T15:48:49.752Z</time></trkpt><trkpt lat="45.444125" lon="10.6359033"><ele>77.66666666666667</ele><time>2026-04-25T15:48:50.763Z</time></trkpt><trkpt lat="45.4441217" lon="10.6356117"><ele>77.33333333333334</ele><time>2026-04-25T15:48:51.758Z</time></trkpt><trkpt lat="45.4441167" lon="10.6353183"><ele>77.0</ele><time>2026-04-25T15:48:52.756Z</time></trkpt><trkpt lat="45.4441133" lon="10.6350267"><ele>77.0</ele><time>2026-04-25T15:48:53.756Z</time></trkpt><trkpt lat="45.4441133" lon="10.634735"><ele>77.0</ele><time>2026-04-25T15:48:54.758Z</time></trkpt><trkpt lat="45.4441117" lon="10.6344467"><ele>77.0</ele><time>2026-04-25T15:48:55.76Z</time></trkpt><trkpt lat="45.4441117" lon="10.6341617"><ele>76.66666666666667</ele><time>2026-04-25T15:48:56.762Z</time></trkpt><trkpt lat="45.4441083" lon="10.633875"><ele>76.33333333333333</ele><time>2026-04-25T15:48:57.762Z</time></trkpt><trkpt lat="45.444105" lon="10.63359"><ele>76.0</ele><time>2026-04-25T15:48:58.757Z</time></trkpt><trkpt lat="45.4441" lon="10.633305"><ele>74.66666666666666</ele><time>2026-04-25T15:48:59.758Z</time></trkpt><trkpt lat="45.4440967" lon="10.6330167"><ele>73.33333333333333</ele><time>2026-04-25T15:49:00.763Z</time></trkpt><trkpt lat="45.4440933" lon="10.6327267"><ele>72.0</ele><time>2026-04-25T15:49:01.757Z</time></trkpt><trkpt lat="45.44409" lon="10.63244"><ele>72.0</ele><time>2026-04-25T15:49:02.759Z</time></trkpt><trkpt lat="45.4440867" lon="10.6321517"><ele>72.0</ele><time>2026-04-25T15:49:03.757Z</time></trkpt><trkpt lat="45.4440833" lon="10.6318617"><ele>72.0</ele><time>2026-04-25T15:49:04.76Z</time></trkpt><trkpt lat="45.44408" lon="10.6315683"><ele>72.0</ele><time>2026-04-25T15:49:05.759Z</time></trkpt><trkpt lat="45.444075" lon="10.631275"><ele>72.0</ele><time>2026-04-25T15:49:06.767Z</time></trkpt><trkpt lat="45.44407" lon="10.6309867"><ele>72.0</ele><time>2026-04-25T15:49:07.757Z</time></trkpt><trkpt lat="45.4440667" lon="10.6306967"><ele>71.33333333333333</ele><time>2026-04-25T15:49:08.761Z</time></trkpt><trkpt lat="45.4440617" lon="10.6304067"><ele>70.66666666666666</ele><time>2026-04-25T15:49:09.753Z</time></trkpt><trkpt lat="45.444055" lon="10.6301133"><ele>70.0</ele><time>2026-04-25T15:49:10.757Z</time></trkpt><trkpt lat="45.44405" lon="10.6298167"><ele>69.66666666666666</ele><time>2026-04-25T15:49:11.758Z</time></trkpt><trkpt lat="45.4440467" lon="10.6295233"><ele>69.33333333333333</ele><time>2026-04-25T15:49:12.762Z</time></trkpt><trkpt lat="45.4440433" lon="10.6292417"><ele>69.0</ele><time>2026-04-25T15:49:13.752Z</time></trkpt><trkpt lat="45.4440383" lon="10.6289617"><ele>69.66666666666667</ele><time>2026-04-25T15:49:14.757Z</time></trkpt><trkpt lat="45.4440367" lon="10.6286817"><ele>70.33333333333334</ele><time>2026-04-25T15:49:15.759Z</time></trkpt><trkpt lat="45.444035" lon="10.6284033"><ele>71.0</ele><time>2026-04-25T15:49:16.758Z</time></trkpt><trkpt lat="45.4440283" lon="10.6281267"><ele>71.33333333333334</ele><time>2026-04-25T15:49:17.752Z</time></trkpt><trkpt lat="45.444025" lon="10.627855"><ele>71.66666666666667</ele><time>2026-04-25T15:49:18.76Z</time></trkpt><trkpt lat="45.4440217" lon="10.6275767"><ele>72.0</ele><time>2026-04-25T15:49:19.758Z</time></trkpt><trkpt lat="45.4440167" lon="10.6272983"><ele>72.0</ele><time>2026-04-25T15:49:20.76Z</time></trkpt><trkpt lat="45.4440117" lon="10.6270233"><ele>72.0</ele><time>2026-04-25T15:49:21.756Z</time></trkpt><trkpt lat="45.4440083" lon="10.6267517"><ele>72.0</ele><time>2026-04-25T15:49:22.758Z</time></trkpt><trkpt lat="45.444005" lon="10.6264833"><ele>71.33333333333333</ele><time>2026-04-25T15:49:23.757Z</time></trkpt><trkpt lat="45.4440017" lon="10.6262133"><ele>70.66666666666666</ele><time>2026-04-25T15:49:24.757Z</time></trkpt><trkpt lat="45.444" lon="10.625945"><ele>70.0</ele><time>2026-04-25T15:49:25.759Z</time></trkpt><trkpt lat="45.4439967" lon="10.6256733"><ele>70.0</ele><time>2026-04-25T15:49:26.76Z</time></trkpt><trkpt lat="45.44399" lon="10.6253967"><ele>70.0</ele><time>2026-04-25T15:49:27.757Z</time></trkpt><trkpt lat="45.4439833" lon="10.62512"><ele>70.0</ele><time>2026-04-25T15:49:28.759Z</time></trkpt><trkpt lat="45.44398" lon="10.6248433"><ele>71.0</ele><time>2026-04-25T15:49:29.759Z</time></trkpt><trkpt lat="45.4439767" lon="10.624565"><ele>72.0</ele><time>2026-04-25T15:49:30.757Z</time></trkpt><trkpt lat="45.4439733" lon="10.624285"><ele>73.0</ele><time>2026-04-25T15:49:31.76Z</time></trkpt><trkpt lat="45.44397" lon="10.6240033"><ele>73.0</ele><time>2026-04-25T15:49:32.753Z</time></trkpt><trkpt lat="45.4439667" lon="10.62372"><ele>73.0</ele><time>2026-04-25T15:49:33.759Z</time></trkpt><trkpt lat="45.4439617" lon="10.623435"><ele>73.0</ele><time>2026-04-25T15:49:34.759Z</time></trkpt><trkpt lat="45.443955" lon="10.6231517"><ele>73.0</ele><time>2026-04-25T15:49:35.765Z</time></trkpt><trkpt lat="45.4439517" lon="10.6228683"><ele>73.0</ele><time>2026-04-25T15:49:36.757Z</time></trkpt><trkpt lat="45.4439467" lon="10.622585"><ele>73.0</ele><time>2026-04-25T15:49:37.756Z</time></trkpt><trkpt lat="45.4439467" lon="10.622305"><ele>73.33333333333333</ele><time>2026-04-25T15:49:38.755Z</time></trkpt><trkpt lat="45.4439467" lon="10.622025"><ele>73.66666666666667</ele><time>2026-04-25T15:49:39.752Z</time></trkpt><trkpt lat="45.44395" lon="10.6217433"><ele>74.0</ele><time>2026-04-25T15:49:40.752Z</time></trkpt><trkpt lat="45.4439583" lon="10.6214667"><ele>74.0</ele><time>2026-04-25T15:49:41.758Z</time></trkpt><trkpt lat="45.4439633" lon="10.6211883"><ele>74.0</ele><time>2026-04-25T15:49:42.76Z</time></trkpt><trkpt lat="45.44397" lon="10.6209133"><ele>74.0</ele><time>2026-04-25T15:49:43.756Z</time></trkpt><trkpt lat="45.4439783" lon="10.620635"><ele>73.66666666666667</ele><time>2026-04-25T15:49:44.757Z</time></trkpt><trkpt lat="45.4439917" lon="10.6203583"><ele>73.33333333333333</ele><time>2026-04-25T15:49:45.757Z</time></trkpt><trkpt lat="45.4440083" lon="10.6200767"><ele>73.0</ele><time>2026-04-25T15:49:46.756Z</time></trkpt><trkpt lat="45.4440267" lon="10.6197967"><ele>72.33333333333333</ele><time>2026-04-25T15:49:47.755Z</time></trkpt><trkpt lat="45.4440467" lon="10.6195183"><ele>71.66666666666667</ele><time>2026-04-25T15:49:48.759Z</time></trkpt><trkpt lat="45.4440683" lon="10.619245"><ele>71.0</ele><time>2026-04-25T15:49:49.757Z</time></trkpt><trkpt lat="45.4440883" lon="10.6189733"><ele>71.0</ele><time>2026-04-25T15:49:50.756Z</time></trkpt><trkpt lat="45.4441117" lon="10.6187067"><ele>71.0</ele><time>2026-04-25T15:49:51.761Z</time></trkpt><trkpt lat="45.44413" lon="10.6184367"><ele>71.0</ele><time>2026-04-25T15:49:52.758Z</time></trkpt><trkpt lat="45.4441517" lon="10.6181667"><ele>71.33333333333334</ele><time>2026-04-25T15:49:53.765Z</time></trkpt><trkpt lat="45.4441717" lon="10.6178967"><ele>71.66666666666667</ele><time>2026-04-25T15:49:54.759Z</time></trkpt><trkpt lat="45.4441917" lon="10.61763"><ele>72.0</ele><time>2026-04-25T15:49:55.757Z</time></trkpt><trkpt lat="45.4442117" lon="10.6173633"><ele>73.0</ele><time>2026-04-25T15:49:56.756Z</time></trkpt><trkpt lat="45.4442317" lon="10.6170967"><ele>74.0</ele><time>2026-04-25T15:49:57.759Z</time></trkpt><trkpt lat="45.4442483" lon="10.616835"><ele>75.0</ele><time>2026-04-25T15:49:58.756Z</time></trkpt><trkpt lat="45.444265" lon="10.6165733"><ele>75.33333333333333</ele><time>2026-04-25T15:49:59.757Z</time></trkpt><trkpt lat="45.4442817" lon="10.6163083"><ele>75.66666666666666</ele><time>2026-04-25T15:50:00.753Z</time></trkpt><trkpt lat="45.4442983" lon="10.6160517"><ele>76.0</ele><time>2026-04-25T15:50:01.751Z</time></trkpt><trkpt lat="45.4443133" lon="10.6157967"><ele>75.33333333333333</ele><time>2026-04-25T15:50:02.758Z</time></trkpt><trkpt lat="45.4443317" lon="10.61555"><ele>74.66666666666667</ele><time>2026-04-25T15:50:03.756Z</time></trkpt><trkpt lat="45.4443483" lon="10.615315"><ele>74.0</ele><time>2026-04-25T15:50:04.757Z</time></trkpt><trkpt lat="45.444365" lon="10.615085"><ele>73.0</ele><time>2026-04-25T15:50:05.759Z</time></trkpt><trkpt lat="45.4443833" lon="10.6148583"><ele>72.0</ele><time>2026-04-25T15:50:06.751Z</time></trkpt><trkpt lat="45.4444" lon="10.6146317"><ele>71.0</ele><time>2026-04-25T15:50:07.76Z</time></trkpt><trkpt lat="45.4444167" lon="10.614405"><ele>71.0</ele><time>2026-04-25T15:50:08.761Z</time></trkpt><trkpt lat="45.444435" lon="10.61417"><ele>71.0</ele><time>2026-04-25T15:50:09.755Z</time></trkpt><trkpt lat="45.4444533" lon="10.6139317"><ele>71.0</ele><time>2026-04-25T15:50:10.75Z</time></trkpt><trkpt lat="45.4444733" lon="10.6136933"><ele>71.66666666666667</ele><time>2026-04-25T15:50:11.757Z</time></trkpt><trkpt lat="45.4444967" lon="10.6134467"><ele>72.33333333333333</ele><time>2026-04-25T15:50:12.75Z</time></trkpt><trkpt lat="45.44452" lon="10.613195"><ele>73.0</ele><time>2026-04-25T15:50:13.756Z</time></trkpt><trkpt lat="45.44454" lon="10.6129383"><ele>72.66666666666666</ele><time>2026-04-25T15:50:14.759Z</time></trkpt><trkpt lat="45.4445583" lon="10.61268"><ele>72.33333333333333</ele><time>2026-04-25T15:50:15.754Z</time></trkpt><trkpt lat="45.444575" lon="10.61242"><ele>72.0</ele><time>2026-04-25T15:50:16.76Z</time></trkpt><trkpt lat="45.44459" lon="10.6121567"><ele>72.0</ele><time>2026-04-25T15:50:17.752Z</time></trkpt><trkpt lat="45.4446083" lon="10.6118867"><ele>72.0</ele><time>2026-04-25T15:50:18.755Z</time></trkpt><trkpt lat="45.444625" lon="10.611615"><ele>72.0</ele><time>2026-04-25T15:50:19.753Z</time></trkpt><trkpt lat="45.4446433" lon="10.61134"><ele>71.66666666666667</ele><time>2026-04-25T15:50:20.758Z</time></trkpt><trkpt lat="45.44466" lon="10.6110633"><ele>71.33333333333334</ele><time>2026-04-25T15:50:21.758Z</time></trkpt><trkpt lat="45.4446783" lon="10.610785"><ele>71.0</ele><time>2026-04-25T15:50:22.756Z</time></trkpt><trkpt lat="45.444695" lon="10.6105067"><ele>70.66666666666667</ele><time>2026-04-25T15:50:23.758Z</time></trkpt><trkpt lat="45.4447117" lon="10.6102283"><ele>70.33333333333333</ele><time>2026-04-25T15:50:24.752Z</time></trkpt><trkpt lat="45.4447283" lon="10.60995"><ele>70.0</ele><time>2026-04-25T15:50:25.76Z</time></trkpt><trkpt lat="45.4447417" lon="10.6096717"><ele>70.33333333333333</ele><time>2026-04-25T15:50:26.76Z</time></trkpt><trkpt lat="45.4447517" lon="10.6093933"><ele>70.66666666666667</ele><time>2026-04-25T15:50:27.755Z</time></trkpt><trkpt lat="45.4447633" lon="10.609115"><ele>71.0</ele><time>2026-04-25T15:50:28.755Z</time></trkpt><trkpt lat="45.4447717" lon="10.6088367"><ele>72.0</ele><time>2026-04-25T15:50:29.751Z</time></trkpt><trkpt lat="45.4447783" lon="10.60856"><ele>73.0</ele><time>2026-04-25T15:50:30.752Z</time></trkpt><trkpt lat="45.444785" lon="10.6082833"><ele>74.0</ele><time>2026-04-25T15:50:31.757Z</time></trkpt><trkpt lat="45.4447917" lon="10.6080083"><ele>75.0</ele><time>2026-04-25T15:50:32.753Z</time></trkpt><trkpt lat="45.4448" lon="10.6077367"><ele>76.0</ele><time>2026-04-25T15:50:33.756Z</time></trkpt><trkpt lat="45.4448067" lon="10.6074667"><ele>77.0</ele><time>2026-04-25T15:50:34.76Z</time></trkpt><trkpt lat="45.44481" lon="10.6071933"><ele>76.66666666666667</ele><time>2026-04-25T15:50:35.755Z</time></trkpt><trkpt lat="45.4448217" lon="10.6069283"><ele>76.33333333333333</ele><time>2026-04-25T15:50:36.759Z</time></trkpt><trkpt lat="45.444825" lon="10.6066533"><ele>76.0</ele><time>2026-04-25T15:50:37.759Z</time></trkpt><trkpt lat="45.4448317" lon="10.6063783"><ele>75.33333333333333</ele><time>2026-04-25T15:50:38.751Z</time></trkpt><trkpt lat="45.4448394" lon="10.6061013"><ele>74.66666666666667</ele><time>2026-04-25T15:50:39.752Z</time></trkpt><trkpt lat="45.4448466" lon="10.6058226"><ele>74.0</ele><time>2026-04-25T15:50:40.755Z</time></trkpt><trkpt lat="45.4448545" lon="10.6055435"><ele>74.0</ele><time>2026-04-25T15:50:41.761Z</time></trkpt><trkpt lat="45.4448627" lon="10.6052634"><ele>74.0</ele><time>2026-04-25T15:50:42.756Z</time></trkpt><trkpt lat="45.4448698" lon="10.6049825"><ele>74.0</ele><time>2026-04-25T15:50:43.76Z</time></trkpt><trkpt lat="45.4448768" lon="10.6047018"><ele>74.66666666666667</ele><time>2026-04-25T15:50:44.757Z</time></trkpt><trkpt lat="45.4448823" lon="10.6044219"><ele>75.33333333333333</ele><time>2026-04-25T15:50:45.753Z</time></trkpt><trkpt lat="45.4448871" lon="10.6041398"><ele>76.0</ele><time>2026-04-25T15:50:46.76Z</time></trkpt><trkpt lat="45.4448944" lon="10.6038621"><ele>76.66666666666666</ele><time>2026-04-25T15:50:47.762Z</time></trkpt><trkpt lat="45.4449001" lon="10.6035819"><ele>77.33333333333333</ele><time>2026-04-25T15:50:48.759Z</time></trkpt><trkpt lat="45.444905" lon="10.6033009"><ele>78.0</ele><time>2026-04-25T15:50:49.751Z</time></trkpt><trkpt lat="45.4449139" lon="10.6030205"><ele>78.0</ele><time>2026-04-25T15:50:50.759Z</time></trkpt><trkpt lat="45.4449225" lon="10.6027412"><ele>78.0</ele><time>2026-04-25T15:50:51.759Z</time></trkpt><trkpt lat="45.444931" lon="10.6024629"><ele>78.0</ele><time>2026-04-25T15:50:52.754Z</time></trkpt><trkpt lat="45.444938" lon="10.6021881"><ele>78.66666666666667</ele><time>2026-04-25T15:50:53.756Z</time></trkpt><trkpt lat="45.4449442" lon="10.6019157"><ele>79.33333333333334</ele><time>2026-04-25T15:50:54.759Z</time></trkpt><trkpt lat="45.4449501" lon="10.6016463"><ele>80.0</ele><time>2026-04-25T15:50:55.759Z</time></trkpt><trkpt lat="45.4449571" lon="10.6013805"><ele>80.0</ele><time>2026-04-25T15:50:56.759Z</time></trkpt><trkpt lat="45.4449644" lon="10.6011202"><ele>80.0</ele><time>2026-04-25T15:50:57.756Z</time></trkpt><trkpt lat="45.444975" lon="10.6008632"><ele>80.0</ele><time>2026-04-25T15:50:58.761Z</time></trkpt><trkpt lat="45.4449854" lon="10.600611"><ele>80.0</ele><time>2026-04-25T15:50:59.753Z</time></trkpt><trkpt lat="45.4449952" lon="10.6003605"><ele>80.0</ele><time>2026-04-25T15:51:00.752Z</time></trkpt><trkpt lat="45.4450051" lon="10.6001092"><ele>80.0</ele><time>2026-04-25T15:51:01.755Z</time></trkpt><trkpt lat="45.4450103" lon="10.5998605"><ele>79.66666666666667</ele><time>2026-04-25T15:51:02.755Z</time></trkpt><trkpt lat="45.4450161" lon="10.599611"><ele>79.33333333333333</ele><time>2026-04-25T15:51:03.757Z</time></trkpt><trkpt lat="45.4450242" lon="10.5993592"><ele>79.0</ele><time>2026-04-25T15:51:04.772Z</time></trkpt><trkpt lat="45.4450317" lon="10.59911"><ele>79.0</ele><time>2026-04-25T15:51:05.75Z</time></trkpt><trkpt lat="45.4450328" lon="10.5988551"><ele>79.0</ele><time>2026-04-25T15:51:06.752Z</time></trkpt><trkpt lat="45.4450358" lon="10.5985957"><ele>79.0</ele><time>2026-04-25T15:51:07.761Z</time></trkpt><trkpt lat="45.445042" lon="10.598335"><ele>78.66666666666666</ele><time>2026-04-25T15:51:08.761Z</time></trkpt><trkpt lat="45.4450494" lon="10.5980745"><ele>78.33333333333333</ele><time>2026-04-25T15:51:09.759Z</time></trkpt><trkpt lat="45.4450586" lon="10.5978124"><ele>78.0</ele><time>2026-04-25T15:51:10.75Z</time></trkpt><trkpt lat="45.4450685" lon="10.5975453"><ele>78.0</ele><time>2026-04-25T15:51:11.758Z</time></trkpt><trkpt lat="45.4450785" lon="10.5972756"><ele>78.0</ele><time>2026-04-25T15:51:12.76Z</time></trkpt><trkpt lat="45.4450873" lon="10.5970039"><ele>78.0</ele><time>2026-04-25T15:51:13.761Z</time></trkpt><trkpt lat="45.4450969" lon="10.5967291"><ele>78.33333333333333</ele><time>2026-04-25T15:51:14.751Z</time></trkpt><trkpt lat="45.4451069" lon="10.5964547"><ele>78.66666666666666</ele><time>2026-04-25T15:51:15.758Z</time></trkpt><trkpt lat="45.445117" lon="10.596187"><ele>79.0</ele><time>2026-04-25T15:51:16.762Z</time></trkpt><trkpt lat="45.4451253" lon="10.5959321"><ele>79.0</ele><time>2026-04-25T15:51:17.761Z</time></trkpt><trkpt lat="45.4451316" lon="10.5956881"><ele>79.0</ele><time>2026-04-25T15:51:18.758Z</time></trkpt><trkpt lat="45.4451361" lon="10.5954504"><ele>79.0</ele><time>2026-04-25T15:51:19.76Z</time></trkpt><trkpt lat="45.445141" lon="10.5952154"><ele>79.33333333333333</ele><time>2026-04-25T15:51:20.759Z</time></trkpt><trkpt lat="45.4451478" lon="10.5949804"><ele>79.66666666666667</ele><time>2026-04-25T15:51:21.756Z</time></trkpt><trkpt lat="45.4451545" lon="10.594747"><ele>80.0</ele><time>2026-04-25T15:51:22.755Z</time></trkpt><trkpt lat="45.4451599" lon="10.5945231"><ele>80.25</ele><time>2026-04-25T15:51:23.752Z</time></trkpt><trkpt lat="45.4451644" lon="10.5943088"><ele>80.5</ele><time>2026-04-25T15:51:24.759Z</time></trkpt><trkpt lat="45.445171" lon="10.594104"><ele>80.75</ele><time>2026-04-25T15:51:25.76Z</time></trkpt><trkpt lat="45.4451776" lon="10.5939004"><ele>81.0</ele><time>2026-04-25T15:51:26.759Z</time></trkpt><trkpt lat="45.4451842" lon="10.5936955"><ele>81.0</ele><time>2026-04-25T15:51:27.753Z</time></trkpt><trkpt lat="45.4451909" lon="10.5934886"><ele>81.0</ele><time>2026-04-25T15:51:28.75Z</time></trkpt><trkpt lat="45.4451976" lon="10.5932778"><ele>81.0</ele><time>2026-04-25T15:51:29.756Z</time></trkpt><trkpt lat="45.445202" lon="10.5930708"><ele>81.0</ele><time>2026-04-25T15:51:30.76Z</time></trkpt><trkpt lat="45.4452049" lon="10.5928681"><ele>80.5</ele><time>2026-04-25T15:51:31.755Z</time></trkpt><trkpt lat="45.4452104" lon="10.5926652"><ele>80.0</ele><time>2026-04-25T15:51:32.752Z</time></trkpt><trkpt lat="45.4452161" lon="10.5924626"><ele>79.5</ele><time>2026-04-25T15:51:33.753Z</time></trkpt><trkpt lat="45.4452226" lon="10.5922567"><ele>79.0</ele><time>2026-04-25T15:51:34.758Z</time></trkpt><trkpt lat="45.445228" lon="10.5920475"><ele>79.0</ele><time>2026-04-25T15:51:35.758Z</time></trkpt><trkpt lat="45.4452339" lon="10.5918323"><ele>79.0</ele><time>2026-04-25T15:51:36.757Z</time></trkpt><trkpt lat="45.4452415" lon="10.591617"><ele>79.0</ele><time>2026-04-25T15:51:37.758Z</time></trkpt><trkpt lat="45.4452492" lon="10.5914021"><ele>79.0</ele><time>2026-04-25T15:51:38.757Z</time></trkpt><trkpt lat="45.4452561" lon="10.5911904"><ele>79.0</ele><time>2026-04-25T15:51:39.752Z</time></trkpt><trkpt lat="45.4452616" lon="10.5909826"><ele>79.0</ele><time>2026-04-25T15:51:40.75Z</time></trkpt><trkpt lat="45.4452655" lon="10.5907781"><ele>79.0</ele><time>2026-04-25T15:51:41.758Z</time></trkpt><trkpt lat="45.4452702" lon="10.5905727"><ele>79.66666666666666</ele><time>2026-04-25T15:51:42.758Z</time></trkpt><trkpt lat="45.4452738" lon="10.5903632"><ele>80.33333333333333</ele><time>2026-04-25T15:51:43.751Z</time></trkpt><trkpt lat="45.4452771" lon="10.5901486"><ele>81.0</ele><time>2026-04-25T15:51:44.751Z</time></trkpt><trkpt lat="45.4452817" lon="10.5899279"><ele>81.66666666666667</ele><time>2026-04-25T15:51:45.759Z</time></trkpt><trkpt lat="45.4452853" lon="10.5897016"><ele>82.33333333333334</ele><time>2026-04-25T15:51:46.759Z</time></trkpt><trkpt lat="45.4452872" lon="10.5894727"><ele>83.0</ele><time>2026-04-25T15:51:47.762Z</time></trkpt><trkpt lat="45.4452913" lon="10.5892412"><ele>83.0</ele><time>2026-04-25T15:51:48.759Z</time></trkpt><trkpt lat="45.4452973" lon="10.589012"><ele>83.0</ele><time>2026-04-25T15:51:49.757Z</time></trkpt><trkpt lat="45.445304" lon="10.5887881"><ele>83.0</ele><time>2026-04-25T15:51:50.759Z</time></trkpt><trkpt lat="45.4453136" lon="10.5885689"><ele>83.0</ele><time>2026-04-25T15:51:51.75Z</time></trkpt><trkpt lat="45.4453211" lon="10.5883534"><ele>83.0</ele><time>2026-04-25T15:51:52.751Z</time></trkpt><trkpt lat="45.4453292" lon="10.5881404"><ele>83.0</ele><time>2026-04-25T15:51:53.759Z</time></trkpt><trkpt lat="45.4453337" lon="10.5879311"><ele>83.0</ele><time>2026-04-25T15:51:54.758Z</time></trkpt><trkpt lat="45.4453431" lon="10.5877227"><ele>83.5</ele><time>2026-04-25T15:51:55.766Z</time></trkpt><trkpt lat="45.4453532" lon="10.5875152"><ele>84.0</ele><time>2026-04-25T15:51:56.765Z</time></trkpt><trkpt lat="45.4453623" lon="10.5873085"><ele>84.5</ele><time>2026-04-25T15:51:57.765Z</time></trkpt><trkpt lat="45.4453683" lon="10.5870985"><ele>85.0</ele><time>2026-04-25T15:51:58.757Z</time></trkpt><trkpt lat="45.445372" lon="10.5868879"><ele>85.33333333333333</ele><time>2026-04-25T15:51:59.759Z</time></trkpt><trkpt lat="45.4453753" lon="10.5866724"><ele>85.66666666666667</ele><time>2026-04-25T15:52:00.759Z</time></trkpt><trkpt lat="45.4453788" lon="10.586454"><ele>86.0</ele><time>2026-04-25T15:52:01.758Z</time></trkpt><trkpt lat="45.4453833" lon="10.5862318"><ele>85.33333333333334</ele><time>2026-04-25T15:52:02.751Z</time></trkpt><trkpt lat="45.4453853" lon="10.5860059"><ele>84.66666666666667</ele><time>2026-04-25T15:52:03.758Z</time></trkpt><trkpt lat="45.445384" lon="10.5857776"><ele>84.0</ele><time>2026-04-25T15:52:04.76Z</time></trkpt><trkpt lat="45.4453823" lon="10.5855499"><ele>83.66666666666667</ele><time>2026-04-25T15:52:05.757Z</time></trkpt><trkpt lat="45.4453818" lon="10.5853198"><ele>83.33333333333334</ele><time>2026-04-25T15:52:06.757Z</time></trkpt><trkpt lat="45.4453817" lon="10.5850905"><ele>83.0</ele><time>2026-04-25T15:52:07.751Z</time></trkpt><trkpt lat="45.4453841" lon="10.5848625"><ele>83.0</ele><time>2026-04-25T15:52:08.758Z</time></trkpt><trkpt lat="45.4453831" lon="10.5846379"><ele>83.0</ele><time>2026-04-25T15:52:09.756Z</time></trkpt><trkpt lat="45.4453825" lon="10.5844119"><ele>83.0</ele><time>2026-04-25T15:52:10.759Z</time></trkpt><trkpt lat="45.4453865" lon="10.5841891"><ele>83.33333333333334</ele><time>2026-04-25T15:52:11.764Z</time></trkpt><trkpt lat="45.4453888" lon="10.5839676"><ele>83.66666666666667</ele><time>2026-04-25T15:52:12.761Z</time></trkpt><trkpt lat="45.4453876" lon="10.583742"><ele>84.0</ele><time>2026-04-25T15:52:13.759Z</time></trkpt><trkpt lat="45.4453832" lon="10.5835125"><ele>84.33333333333333</ele><time>2026-04-25T15:52:14.759Z</time></trkpt><trkpt lat="45.4453769" lon="10.5832823"><ele>84.66666666666666</ele><time>2026-04-25T15:52:15.757Z</time></trkpt><trkpt lat="45.4453686" lon="10.583053"><ele>85.0</ele><time>2026-04-25T15:52:16.761Z</time></trkpt><trkpt lat="45.4453602" lon="10.5828232"><ele>85.66666666666666</ele><time>2026-04-25T15:52:17.758Z</time></trkpt><trkpt lat="45.4453505" lon="10.5825877"><ele>86.33333333333333</ele><time>2026-04-25T15:52:18.76Z</time></trkpt><trkpt lat="45.4453418" lon="10.5823517"><ele>87.0</ele><time>2026-04-25T15:52:19.751Z</time></trkpt><trkpt lat="45.4453321" lon="10.5821124"><ele>87.0</ele><time>2026-04-25T15:52:20.761Z</time></trkpt><trkpt lat="45.4453258" lon="10.5818724"><ele>87.0</ele><time>2026-04-25T15:52:21.751Z</time></trkpt><trkpt lat="45.445318" lon="10.5816334"><ele>87.0</ele><time>2026-04-25T15:52:22.758Z</time></trkpt><trkpt lat="45.4453083" lon="10.5813952"><ele>86.33333333333333</ele><time>2026-04-25T15:52:23.757Z</time></trkpt><trkpt lat="45.445298" lon="10.5811589"><ele>85.66666666666666</ele><time>2026-04-25T15:52:24.766Z</time></trkpt><trkpt lat="45.4452853" lon="10.5809254"><ele>85.0</ele><time>2026-04-25T15:52:25.752Z</time></trkpt><trkpt lat="45.4452719" lon="10.580688"><ele>85.0</ele><time>2026-04-25T15:52:26.761Z</time></trkpt><trkpt lat="45.4452582" lon="10.580449"><ele>85.0</ele><time>2026-04-25T15:52:27.76Z</time></trkpt><trkpt lat="45.445243" lon="10.5802115"><ele>85.0</ele><time>2026-04-25T15:52:28.758Z</time></trkpt><trkpt lat="45.4452309" lon="10.5799794"><ele>85.0</ele><time>2026-04-25T15:52:29.759Z</time></trkpt><trkpt lat="45.4452206" lon="10.5797509"><ele>85.0</ele><time>2026-04-25T15:52:30.76Z</time></trkpt><trkpt lat="45.4452119" lon="10.5795238"><ele>85.0</ele><time>2026-04-25T15:52:31.759Z</time></trkpt><trkpt lat="45.445204" lon="10.5792947"><ele>85.33333333333333</ele><time>2026-04-25T15:52:32.76Z</time></trkpt><trkpt lat="45.445193" lon="10.5790679"><ele>85.66666666666667</ele><time>2026-04-25T15:52:33.757Z</time></trkpt><trkpt lat="45.4451799" lon="10.5788429"><ele>86.0</ele><time>2026-04-25T15:52:34.755Z</time></trkpt><trkpt lat="45.4451664" lon="10.578618"><ele>86.0</ele><time>2026-04-25T15:52:35.752Z</time></trkpt><trkpt lat="45.4451526" lon="10.5783914"><ele>86.0</ele><time>2026-04-25T15:52:36.753Z</time></trkpt><trkpt lat="45.4451419" lon="10.5781663"><ele>86.0</ele><time>2026-04-25T15:52:37.753Z</time></trkpt><trkpt lat="45.4451316" lon="10.5779428"><ele>87.0</ele><time>2026-04-25T15:52:38.768Z</time></trkpt><trkpt lat="45.4451213" lon="10.5777258"><ele>88.0</ele><time>2026-04-25T15:52:39.759Z</time></trkpt><trkpt lat="45.4451106" lon="10.5775064"><ele>89.0</ele><time>2026-04-25T15:52:40.756Z</time></trkpt><trkpt lat="45.445101" lon="10.5772865"><ele>89.0</ele><time>2026-04-25T15:52:41.759Z</time></trkpt><trkpt lat="45.4450923" lon="10.5770694"><ele>89.0</ele><time>2026-04-25T15:52:42.758Z</time></trkpt><trkpt lat="45.4450853" lon="10.5768528"><ele>89.0</ele><time>2026-04-25T15:52:43.758Z</time></trkpt><trkpt lat="45.4450772" lon="10.5766277"><ele>90.0</ele><time>2026-04-25T15:52:44.758Z</time></trkpt><trkpt lat="45.4450711" lon="10.5763985"><ele>91.0</ele><time>2026-04-25T15:52:45.759Z</time></trkpt><trkpt lat="45.4450676" lon="10.5761692"><ele>92.0</ele><time>2026-04-25T15:52:46.755Z</time></trkpt><trkpt lat="45.4450523" lon="10.5759415"><ele>92.33333333333334</ele><time>2026-04-25T15:52:47.757Z</time></trkpt><trkpt lat="45.4450315" lon="10.5757143"><ele>92.66666666666667</ele><time>2026-04-25T15:52:48.752Z</time></trkpt><trkpt lat="45.445015" lon="10.575483"><ele>93.0</ele><time>2026-04-25T15:52:49.763Z</time></trkpt><trkpt lat="45.4450017" lon="10.5752493"><ele>92.33333333333333</ele><time>2026-04-25T15:52:50.759Z</time></trkpt><trkpt lat="45.4449891" lon="10.5750117"><ele>91.66666666666666</ele><time>2026-04-25T15:52:51.76Z</time></trkpt><trkpt lat="45.4449779" lon="10.5747768"><ele>91.0</ele><time>2026-04-25T15:52:52.76Z</time></trkpt><trkpt lat="45.4449655" lon="10.574544"><ele>90.0</ele><time>2026-04-25T15:52:53.76Z</time></trkpt><trkpt lat="45.4449535" lon="10.5743122"><ele>89.0</ele><time>2026-04-25T15:52:54.762Z</time></trkpt><trkpt lat="45.4449423" lon="10.5740808"><ele>88.0</ele><time>2026-04-25T15:52:55.758Z</time></trkpt><trkpt lat="45.4449325" lon="10.5738466"><ele>88.0</ele><time>2026-04-25T15:52:56.757Z</time></trkpt><trkpt lat="45.4449202" lon="10.5736137"><ele>88.0</ele><time>2026-04-25T15:52:57.759Z</time></trkpt><trkpt lat="45.4449077" lon="10.5733847"><ele>88.0</ele><time>2026-04-25T15:52:58.758Z</time></trkpt><trkpt lat="45.4448982" lon="10.5731609"><ele>88.0</ele><time>2026-04-25T15:52:59.759Z</time></trkpt><trkpt lat="45.4448878" lon="10.5729382"><ele>88.0</ele><time>2026-04-25T15:53:00.755Z</time></trkpt><trkpt lat="45.4448748" lon="10.5727136"><ele>88.0</ele><time>2026-04-25T15:53:01.757Z</time></trkpt><trkpt lat="45.4448616" lon="10.5724844"><ele>88.0</ele><time>2026-04-25T15:53:02.759Z</time></trkpt><trkpt lat="45.44485" lon="10.5722535"><ele>88.0</ele><time>2026-04-25T15:53:03.758Z</time></trkpt><trkpt lat="45.444842" lon="10.5720202"><ele>88.0</ele><time>2026-04-25T15:53:04.757Z</time></trkpt><trkpt lat="45.4448388" lon="10.5717819"><ele>88.0</ele><time>2026-04-25T15:53:05.757Z</time></trkpt><trkpt lat="45.4448393" lon="10.5715409"><ele>88.0</ele><time>2026-04-25T15:53:06.753Z</time></trkpt><trkpt lat="45.4448409" lon="10.5712969"><ele>88.0</ele><time>2026-04-25T15:53:07.756Z</time></trkpt><trkpt lat="45.4448462" lon="10.571053"><ele>88.0</ele><time>2026-04-25T15:53:08.76Z</time></trkpt><trkpt lat="45.4448551" lon="10.5708086"><ele>88.0</ele><time>2026-04-25T15:53:09.757Z</time></trkpt><trkpt lat="45.4448695" lon="10.5705591"><ele>88.0</ele><time>2026-04-25T15:53:10.756Z</time></trkpt><trkpt lat="45.4448893" lon="10.5703105"><ele>88.33333333333333</ele><time>2026-04-25T15:53:11.756Z</time></trkpt><trkpt lat="45.4449127" lon="10.5700628"><ele>88.66666666666667</ele><time>2026-04-25T15:53:12.764Z</time></trkpt><trkpt lat="45.4449406" lon="10.5698163"><ele>89.0</ele><time>2026-04-25T15:53:13.761Z</time></trkpt><trkpt lat="45.4449751" lon="10.5695721"><ele>89.66666666666667</ele><time>2026-04-25T15:53:14.762Z</time></trkpt><trkpt lat="45.4450115" lon="10.5693308"><ele>90.33333333333333</ele><time>2026-04-25T15:53:15.76Z</time></trkpt><trkpt lat="45.4450473" lon="10.5690899"><ele>91.0</ele><time>2026-04-25T15:53:16.765Z</time></trkpt><trkpt lat="45.4450892" lon="10.5688538"><ele>90.66666666666666</ele><time>2026-04-25T15:53:17.752Z</time></trkpt><trkpt lat="45.4451338" lon="10.5686175"><ele>90.33333333333333</ele><time>2026-04-25T15:53:18.762Z</time></trkpt><trkpt lat="45.4451816" lon="10.5683821"><ele>90.0</ele><time>2026-04-25T15:53:19.757Z</time></trkpt><trkpt lat="45.4452303" lon="10.5681454"><ele>90.0</ele><time>2026-04-25T15:53:20.762Z</time></trkpt><trkpt lat="45.4452817" lon="10.5679106"><ele>90.0</ele><time>2026-04-25T15:53:21.76Z</time></trkpt><trkpt lat="45.4453352" lon="10.5676768"><ele>90.0</ele><time>2026-04-25T15:53:22.761Z</time></trkpt><trkpt lat="45.4453863" lon="10.5674385"><ele>89.33333333333333</ele><time>2026-04-25T15:53:23.76Z</time></trkpt><trkpt lat="45.4454348" lon="10.5672006"><ele>88.66666666666666</ele><time>2026-04-25T15:53:24.75Z</time></trkpt><trkpt lat="45.4454821" lon="10.5669675"><ele>88.0</ele><time>2026-04-25T15:53:25.757Z</time></trkpt><trkpt lat="45.4455272" lon="10.5667384"><ele>87.33333333333333</ele><time>2026-04-25T15:53:26.758Z</time></trkpt><trkpt lat="45.4455739" lon="10.5665086"><ele>86.66666666666667</ele><time>2026-04-25T15:53:27.755Z</time></trkpt><trkpt lat="45.4456229" lon="10.56628"><ele>86.0</ele><time>2026-04-25T15:53:28.751Z</time></trkpt><trkpt lat="45.4456745" lon="10.5660484"><ele>86.0</ele><time>2026-04-25T15:53:29.757Z</time></trkpt><trkpt lat="45.4457239" lon="10.5658128"><ele>86.0</ele><time>2026-04-25T15:53:30.759Z</time></trkpt><trkpt lat="45.4457734" lon="10.5655759"><ele>86.0</ele><time>2026-04-25T15:53:31.759Z</time></trkpt><trkpt lat="45.445824" lon="10.5653388"><ele>86.66666666666667</ele><time>2026-04-25T15:53:32.761Z</time></trkpt><trkpt lat="45.4458735" lon="10.5651001"><ele>87.33333333333333</ele><time>2026-04-25T15:53:33.756Z</time></trkpt><trkpt lat="45.4459256" lon="10.5648582"><ele>88.0</ele><time>2026-04-25T15:53:34.757Z</time></trkpt><trkpt lat="45.4459764" lon="10.5646206"><ele>88.0</ele><time>2026-04-25T15:53:35.757Z</time></trkpt><trkpt lat="45.4460261" lon="10.5643864"><ele>88.0</ele><time>2026-04-25T15:53:36.755Z</time></trkpt><trkpt lat="45.4460734" lon="10.5641516"><ele>88.0</ele><time>2026-04-25T15:53:37.76Z</time></trkpt><trkpt lat="45.4461182" lon="10.5639132"><ele>88.33333333333333</ele><time>2026-04-25T15:53:38.758Z</time></trkpt><trkpt lat="45.4461605" lon="10.5636691"><ele>88.66666666666667</ele><time>2026-04-25T15:53:39.763Z</time></trkpt><trkpt lat="45.4462047" lon="10.5634263"><ele>89.0</ele><time>2026-04-25T15:53:40.753Z</time></trkpt><trkpt lat="45.4462523" lon="10.5631794"><ele>89.0</ele><time>2026-04-25T15:53:41.757Z</time></trkpt><trkpt lat="45.4462992" lon="10.5629334"><ele>89.0</ele><time>2026-04-25T15:53:42.76Z</time></trkpt><trkpt lat="45.4463445" lon="10.5626845"><ele>89.0</ele><time>2026-04-25T15:53:43.759Z</time></trkpt><trkpt lat="45.4463896" lon="10.5624356"><ele>88.66666666666667</ele><time>2026-04-25T15:53:44.76Z</time></trkpt><trkpt lat="45.4464334" lon="10.5621854"><ele>88.33333333333333</ele><time>2026-04-25T15:53:45.76Z</time></trkpt><trkpt lat="45.4464804" lon="10.5619343"><ele>88.0</ele><time>2026-04-25T15:53:46.756Z</time></trkpt><trkpt lat="45.4465275" lon="10.5616835"><ele>88.0</ele><time>2026-04-25T15:53:47.759Z</time></trkpt><trkpt lat="45.4465758" lon="10.5614337"><ele>88.0</ele><time>2026-04-25T15:53:48.76Z</time></trkpt><trkpt lat="45.4466228" lon="10.561187"><ele>88.0</ele><time>2026-04-25T15:53:49.751Z</time></trkpt><trkpt lat="45.4466683" lon="10.5609412"><ele>88.0</ele><time>2026-04-25T15:53:50.753Z</time></trkpt><trkpt lat="45.4467119" lon="10.5606956"><ele>88.0</ele><time>2026-04-25T15:53:51.759Z</time></trkpt><trkpt lat="45.4467549" lon="10.5604496"><ele>88.0</ele><time>2026-04-25T15:53:52.756Z</time></trkpt><trkpt lat="45.4467992" lon="10.5602012"><ele>88.0</ele><time>2026-04-25T15:53:53.76Z</time></trkpt><trkpt lat="45.4468443" lon="10.5599491"><ele>88.0</ele><time>2026-04-25T15:53:54.757Z</time></trkpt><trkpt lat="45.4468895" lon="10.559695"><ele>88.0</ele><time>2026-04-25T15:53:55.761Z</time></trkpt><trkpt lat="45.4469343" lon="10.5594401"><ele>88.0</ele><time>2026-04-25T15:53:56.76Z</time></trkpt><trkpt lat="45.4469809" lon="10.5591845"><ele>88.0</ele><time>2026-04-25T15:53:57.766Z</time></trkpt><trkpt lat="45.4470287" lon="10.5589301"><ele>88.0</ele><time>2026-04-25T15:53:58.757Z</time></trkpt><trkpt lat="45.447077" lon="10.5586743"><ele>87.66666666666666</ele><time>2026-04-25T15:53:59.757Z</time></trkpt><trkpt lat="45.4471243" lon="10.558415"><ele>87.33333333333333</ele><time>2026-04-25T15:54:00.76Z</time></trkpt><trkpt lat="45.44717" lon="10.558155"><ele>87.0</ele><time>2026-04-25T15:54:01.761Z</time></trkpt><trkpt lat="45.4472139" lon="10.5578929"><ele>87.66666666666667</ele><time>2026-04-25T15:54:02.754Z</time></trkpt><trkpt lat="45.4472601" lon="10.5576267"><ele>88.33333333333334</ele><time>2026-04-25T15:54:03.763Z</time></trkpt><trkpt lat="45.4473066" lon="10.5573607"><ele>89.0</ele><time>2026-04-25T15:54:04.762Z</time></trkpt><trkpt lat="45.4473545" lon="10.5570964"><ele>88.33333333333334</ele><time>2026-04-25T15:54:05.762Z</time></trkpt><trkpt lat="45.4474" lon="10.5568327"><ele>87.66666666666667</ele><time>2026-04-25T15:54:06.762Z</time></trkpt><trkpt lat="45.4474489" lon="10.5565747"><ele>87.0</ele><time>2026-04-25T15:54:07.763Z</time></trkpt><trkpt lat="45.4474988" lon="10.5563202"><ele>87.33333333333333</ele><time>2026-04-25T15:54:08.76Z</time></trkpt><trkpt lat="45.4475488" lon="10.556068"><ele>87.66666666666666</ele><time>2026-04-25T15:54:09.757Z</time></trkpt><trkpt lat="45.4475976" lon="10.5558208"><ele>88.0</ele><time>2026-04-25T15:54:10.759Z</time></trkpt><trkpt lat="45.4476447" lon="10.5555737"><ele>88.0</ele><time>2026-04-25T15:54:11.76Z</time></trkpt><trkpt lat="45.4476896" lon="10.5553259"><ele>88.0</ele><time>2026-04-25T15:54:12.758Z</time></trkpt><trkpt lat="45.4477345" lon="10.5550751"><ele>88.0</ele><time>2026-04-25T15:54:13.753Z</time></trkpt><trkpt lat="45.4477821" lon="10.5548211"><ele>88.0</ele><time>2026-04-25T15:54:14.76Z</time></trkpt><trkpt lat="45.4478315" lon="10.5545702"><ele>88.0</ele><time>2026-04-25T15:54:15.76Z</time></trkpt><trkpt lat="45.4478818" lon="10.554319"><ele>88.0</ele><time>2026-04-25T15:54:16.758Z</time></trkpt><trkpt lat="45.4479311" lon="10.5540654"><ele>88.0</ele><time>2026-04-25T15:54:17.762Z</time></trkpt><trkpt lat="45.4479808" lon="10.5538096"><ele>88.0</ele><time>2026-04-25T15:54:18.76Z</time></trkpt><trkpt lat="45.448029" lon="10.5535502"><ele>88.0</ele><time>2026-04-25T15:54:19.754Z</time></trkpt><trkpt lat="45.4480818" lon="10.5532892"><ele>88.0</ele><time>2026-04-25T15:54:20.76Z</time></trkpt><trkpt lat="45.4481369" lon="10.5530267"><ele>88.0</ele><time>2026-04-25T15:54:21.758Z</time></trkpt><trkpt lat="45.4481924" lon="10.5527588"><ele>88.0</ele><time>2026-04-25T15:54:22.757Z</time></trkpt><trkpt lat="45.4482491" lon="10.5524881"><ele>88.33333333333333</ele><time>2026-04-25T15:54:23.763Z</time></trkpt><trkpt lat="45.4483056" lon="10.5522186"><ele>88.66666666666667</ele><time>2026-04-25T15:54:24.752Z</time></trkpt><trkpt lat="45.4483638" lon="10.5519448"><ele>89.0</ele><time>2026-04-25T15:54:25.752Z</time></trkpt><trkpt lat="45.4484256" lon="10.5516706"><ele>89.0</ele><time>2026-04-25T15:54:26.761Z</time></trkpt><trkpt lat="45.4484905" lon="10.5513952"><ele>89.0</ele><time>2026-04-25T15:54:27.757Z</time></trkpt><trkpt lat="45.4485559" lon="10.5511218"><ele>89.0</ele><time>2026-04-25T15:54:28.76Z</time></trkpt><trkpt lat="45.4486215" lon="10.5508488"><ele>89.0</ele><time>2026-04-25T15:54:29.761Z</time></trkpt><trkpt lat="45.4486848" lon="10.5505744"><ele>89.0</ele><time>2026-04-25T15:54:30.761Z</time></trkpt><trkpt lat="45.4487451" lon="10.5503031"><ele>89.0</ele><time>2026-04-25T15:54:31.762Z</time></trkpt><trkpt lat="45.4488078" lon="10.5500295"><ele>89.0</ele><time>2026-04-25T15:54:32.76Z</time></trkpt><trkpt lat="45.4488679" lon="10.5497572"><ele>89.0</ele><time>2026-04-25T15:54:33.759Z</time></trkpt><trkpt lat="45.4489291" lon="10.549488"><ele>89.0</ele><time>2026-04-25T15:54:34.76Z</time></trkpt><trkpt lat="45.4489911" lon="10.549222"><ele>89.0</ele><time>2026-04-25T15:54:35.763Z</time></trkpt><trkpt lat="45.4490516" lon="10.5489579"><ele>89.0</ele><time>2026-04-25T15:54:36.761Z</time></trkpt><trkpt lat="45.449114" lon="10.548698"><ele>89.0</ele><time>2026-04-25T15:54:37.76Z</time></trkpt><trkpt lat="45.4491771" lon="10.5484436"><ele>89.0</ele><time>2026-04-25T15:54:38.762Z</time></trkpt><trkpt lat="45.4492366" lon="10.5481922"><ele>89.0</ele><time>2026-04-25T15:54:39.752Z</time></trkpt><trkpt lat="45.4492953" lon="10.5479373"><ele>89.0</ele><time>2026-04-25T15:54:40.76Z</time></trkpt><trkpt lat="45.4493545" lon="10.5476869"><ele>89.0</ele><time>2026-04-25T15:54:41.76Z</time></trkpt><trkpt lat="45.4494144" lon="10.5474365"><ele>89.0</ele><time>2026-04-25T15:54:42.766Z</time></trkpt><trkpt lat="45.4494741" lon="10.547185"><ele>89.0</ele><time>2026-04-25T15:54:43.754Z</time></trkpt><trkpt lat="45.449533" lon="10.546931"><ele>89.66666666666667</ele><time>2026-04-25T15:54:44.758Z</time></trkpt><trkpt lat="45.4495929" lon="10.5466747"><ele>90.33333333333333</ele><time>2026-04-25T15:54:45.76Z</time></trkpt><trkpt lat="45.4496529" lon="10.5464167"><ele>91.0</ele><time>2026-04-25T15:54:46.761Z</time></trkpt><trkpt lat="45.4497127" lon="10.546157"><ele>91.66666666666666</ele><time>2026-04-25T15:54:47.757Z</time></trkpt><trkpt lat="45.4497726" lon="10.5458964"><ele>92.33333333333333</ele><time>2026-04-25T15:54:48.762Z</time></trkpt><trkpt lat="45.4498325" lon="10.5456379"><ele>93.0</ele><time>2026-04-25T15:54:49.757Z</time></trkpt><trkpt lat="45.4498923" lon="10.5453809"><ele>93.0</ele><time>2026-04-25T15:54:50.756Z</time></trkpt><trkpt lat="45.4499513" lon="10.5451281"><ele>93.0</ele><time>2026-04-25T15:54:51.76Z</time></trkpt><trkpt lat="45.450011" lon="10.5448767"><ele>93.0</ele><time>2026-04-25T15:54:52.759Z</time></trkpt><trkpt lat="45.4500709" lon="10.5446254"><ele>93.33333333333333</ele><time>2026-04-25T15:54:53.758Z</time></trkpt><trkpt lat="45.4501297" lon="10.5443715"><ele>93.66666666666666</ele><time>2026-04-25T15:54:54.757Z</time></trkpt><trkpt lat="45.4501882" lon="10.5441165"><ele>94.0</ele><time>2026-04-25T15:54:55.758Z</time></trkpt><trkpt lat="45.4502478" lon="10.5438604"><ele>94.33333333333333</ele><time>2026-04-25T15:54:56.754Z</time></trkpt><trkpt lat="45.4503101" lon="10.5436026"><ele>94.66666666666667</ele><time>2026-04-25T15:54:57.762Z</time></trkpt><trkpt lat="45.4503719" lon="10.5433407"><ele>95.0</ele><time>2026-04-25T15:54:58.761Z</time></trkpt><trkpt lat="45.4504362" lon="10.5430778"><ele>95.0</ele><time>2026-04-25T15:54:59.754Z</time></trkpt><trkpt lat="45.4505018" lon="10.542813"><ele>95.0</ele><time>2026-04-25T15:55:00.764Z</time></trkpt><trkpt lat="45.4505644" lon="10.5425502"><ele>95.0</ele><time>2026-04-25T15:55:01.76Z</time></trkpt><trkpt lat="45.4506261" lon="10.5422908"><ele>95.0</ele><time>2026-04-25T15:55:02.756Z</time></trkpt><trkpt lat="45.4506889" lon="10.5420346"><ele>95.0</ele><time>2026-04-25T15:55:03.76Z</time></trkpt><trkpt lat="45.4507494" lon="10.5417802"><ele>95.0</ele><time>2026-04-25T15:55:04.76Z</time></trkpt><trkpt lat="45.4508093" lon="10.5415285"><ele>95.0</ele><time>2026-04-25T15:55:05.762Z</time></trkpt><trkpt lat="45.4508678" lon="10.5412817"><ele>95.0</ele><time>2026-04-25T15:55:06.758Z</time></trkpt><trkpt lat="45.4509247" lon="10.5410398"><ele>95.0</ele><time>2026-04-25T15:55:07.756Z</time></trkpt><trkpt lat="45.4509774" lon="10.5408026"><ele>95.33333333333334</ele><time>2026-04-25T15:55:08.76Z</time></trkpt><trkpt lat="45.4510299" lon="10.5405704"><ele>95.66666666666667</ele><time>2026-04-25T15:55:09.758Z</time></trkpt><trkpt lat="45.4510817" lon="10.5403416"><ele>96.0</ele><time>2026-04-25T15:55:10.758Z</time></trkpt><trkpt lat="45.451134" lon="10.5401114"><ele>96.0</ele><time>2026-04-25T15:55:11.756Z</time></trkpt><trkpt lat="45.4511863" lon="10.5398817"><ele>96.0</ele><time>2026-04-25T15:55:12.755Z</time></trkpt><trkpt lat="45.451239" lon="10.5396516"><ele>96.0</ele><time>2026-04-25T15:55:13.758Z</time></trkpt><trkpt lat="45.4512937" lon="10.5394208"><ele>96.0</ele><time>2026-04-25T15:55:14.752Z</time></trkpt><trkpt lat="45.451349" lon="10.5391894"><ele>96.0</ele><time>2026-04-25T15:55:15.757Z</time></trkpt><trkpt lat="45.4514051" lon="10.5389629"><ele>96.0</ele><time>2026-04-25T15:55:16.758Z</time></trkpt><trkpt lat="45.4514579" lon="10.5387331"><ele>96.33333333333334</ele><time>2026-04-25T15:55:17.752Z</time></trkpt><trkpt lat="45.4515099" lon="10.5385005"><ele>96.66666666666667</ele><time>2026-04-25T15:55:18.757Z</time></trkpt><trkpt lat="45.4515632" lon="10.5382664"><ele>97.0</ele><time>2026-04-25T15:55:19.755Z</time></trkpt><trkpt lat="45.4516169" lon="10.5380309"><ele>97.66666666666667</ele><time>2026-04-25T15:55:20.758Z</time></trkpt><trkpt lat="45.4516702" lon="10.5377934"><ele>98.33333333333334</ele><time>2026-04-25T15:55:21.756Z</time></trkpt><trkpt lat="45.4517241" lon="10.537556"><ele>99.0</ele><time>2026-04-25T15:55:22.758Z</time></trkpt><trkpt lat="45.451777" lon="10.5373195"><ele>99.0</ele><time>2026-04-25T15:55:23.757Z</time></trkpt><trkpt lat="45.4518318" lon="10.5370807"><ele>99.0</ele><time>2026-04-25T15:55:24.758Z</time></trkpt><trkpt lat="45.4518865" lon="10.5368438"><ele>99.0</ele><time>2026-04-25T15:55:25.766Z</time></trkpt><trkpt lat="45.4519409" lon="10.5366073"><ele>98.66666666666666</ele><time>2026-04-25T15:55:26.754Z</time></trkpt><trkpt lat="45.4519936" lon="10.5363686"><ele>98.33333333333333</ele><time>2026-04-25T15:55:27.77Z</time></trkpt><trkpt lat="45.4520465" lon="10.5361379"><ele>98.0</ele><time>2026-04-25T15:55:28.758Z</time></trkpt><trkpt lat="45.4520959" lon="10.5359059"><ele>98.33333333333333</ele><time>2026-04-25T15:55:29.759Z</time></trkpt><trkpt lat="45.4521479" lon="10.5356766"><ele>98.66666666666666</ele><time>2026-04-25T15:55:30.76Z</time></trkpt><trkpt lat="45.4521984" lon="10.5354562"><ele>99.0</ele><time>2026-04-25T15:55:31.758Z</time></trkpt><trkpt lat="45.4522484" lon="10.5352421"><ele>99.33333333333334</ele><time>2026-04-25T15:55:32.76Z</time></trkpt><trkpt lat="45.4522968" lon="10.5350289"><ele>99.66666666666667</ele><time>2026-04-25T15:55:33.757Z</time></trkpt><trkpt lat="45.4523447" lon="10.5348117"><ele>100.0</ele><time>2026-04-25T15:55:34.757Z</time></trkpt><trkpt lat="45.4523944" lon="10.5345942"><ele>101.0</ele><time>2026-04-25T15:55:35.751Z</time></trkpt><trkpt lat="45.4524417" lon="10.5343761"><ele>102.0</ele><time>2026-04-25T15:55:36.759Z</time></trkpt><trkpt lat="45.4524874" lon="10.5341616"><ele>103.0</ele><time>2026-04-25T15:55:37.755Z</time></trkpt><trkpt lat="45.452536" lon="10.5339421"><ele>103.0</ele><time>2026-04-25T15:55:38.761Z</time></trkpt><trkpt lat="45.4525875" lon="10.5337224"><ele>103.0</ele><time>2026-04-25T15:55:39.752Z</time></trkpt><trkpt lat="45.4526437" lon="10.5335017"><ele>103.0</ele><time>2026-04-25T15:55:40.755Z</time></trkpt><trkpt lat="45.4527012" lon="10.5332785"><ele>103.66666666666667</ele><time>2026-04-25T15:55:41.752Z</time></trkpt><trkpt lat="45.452761" lon="10.533054"><ele>104.33333333333334</ele><time>2026-04-25T15:55:42.757Z</time></trkpt><trkpt lat="45.4528227" lon="10.5328322"><ele>105.0</ele><time>2026-04-25T15:55:43.76Z</time></trkpt><trkpt lat="45.4528873" lon="10.5326153"><ele>105.33333333333334</ele><time>2026-04-25T15:55:44.763Z</time></trkpt><trkpt lat="45.4529551" lon="10.5324018"><ele>105.66666666666667</ele><time>2026-04-25T15:55:45.756Z</time></trkpt><trkpt lat="45.4530253" lon="10.5321924"><ele>106.0</ele><time>2026-04-25T15:55:46.758Z</time></trkpt><trkpt lat="45.4530943" lon="10.5319903"><ele>107.0</ele><time>2026-04-25T15:55:47.758Z</time></trkpt><trkpt lat="45.4531593" lon="10.5317982"><ele>108.0</ele><time>2026-04-25T15:55:48.758Z</time></trkpt><trkpt lat="45.4532228" lon="10.5316151"><ele>109.0</ele><time>2026-04-25T15:55:49.759Z</time></trkpt><trkpt lat="45.4532869" lon="10.5314385"><ele>110.0</ele><time>2026-04-25T15:55:50.751Z</time></trkpt><trkpt lat="45.4533606" lon="10.5312528"><ele>111.25</ele><time>2026-04-25T15:55:51.753Z</time></trkpt><trkpt lat="45.4534371" lon="10.5310671"><ele>112.5</ele><time>2026-04-25T15:55:52.753Z</time></trkpt><trkpt lat="45.4535114" lon="10.530887"><ele>113.75</ele><time>2026-04-25T15:55:53.762Z</time></trkpt><trkpt lat="45.4535933" lon="10.5307075"><ele>115.0</ele><time>2026-04-25T15:55:54.759Z</time></trkpt><trkpt lat="45.4551309" lon="10.5269099"><ele>118.5</ele><time>2026-04-25T15:56:16.762Z</time></trkpt><trkpt lat="45.4552182" lon="10.5264828"><ele>122.0</ele><time>2026-04-25T15:56:17.762Z</time></trkpt><trkpt lat="45.455317" lon="10.5261878"><ele>122.0</ele><time>2026-04-25T15:56:18.761Z</time></trkpt><trkpt lat="45.455415" lon="10.5259421"><ele>122.0</ele><time>2026-04-25T15:56:19.764Z</time></trkpt><trkpt lat="45.4555207" lon="10.5256659"><ele>122.0</ele><time>2026-04-25T15:56:20.763Z</time></trkpt><trkpt lat="45.455628" lon="10.5254171"><ele>120.0</ele><time>2026-04-25T15:56:21.754Z</time></trkpt><trkpt lat="45.4557414" lon="10.5251947"><ele>118.0</ele><time>2026-04-25T15:56:22.76Z</time></trkpt><trkpt lat="45.4558633" lon="10.5249922"><ele>116.0</ele><time>2026-04-25T15:56:23.754Z</time></trkpt><trkpt lat="45.4559937" lon="10.5247976"><ele>116.0</ele><time>2026-04-25T15:56:24.763Z</time></trkpt><trkpt lat="45.456131" lon="10.5246118"><ele>116.0</ele><time>2026-04-25T15:56:25.759Z</time></trkpt><trkpt lat="45.4562748" lon="10.5244247"><ele>116.0</ele><time>2026-04-25T15:56:26.761Z</time></trkpt><trkpt lat="45.4564281" lon="10.5242573"><ele>117.33333333333333</ele><time>2026-04-25T15:56:27.754Z</time></trkpt><trkpt lat="45.4565844" lon="10.5240933"><ele>118.66666666666666</ele><time>2026-04-25T15:56:28.756Z</time></trkpt><trkpt lat="45.4567409" lon="10.5239309"><ele>120.0</ele><time>2026-04-25T15:56:29.758Z</time></trkpt><trkpt lat="45.4568838" lon="10.5237875"><ele>123.0</ele><time>2026-04-25T15:56:30.759Z</time></trkpt><trkpt lat="45.4579959" lon="10.5216029"><ele>123.0</ele><time>2026-04-25T15:56:40.764Z</time></trkpt><trkpt lat="45.4579797" lon="10.521215"><ele>123.0</ele><time>2026-04-25T15:56:41.756Z</time></trkpt><trkpt lat="45.4579619" lon="10.520897"><ele>123.66666666666666</ele><time>2026-04-25T15:56:42.753Z</time></trkpt><trkpt lat="45.4579514" lon="10.5206102"><ele>124.33333333333333</ele><time>2026-04-25T15:56:43.752Z</time></trkpt><trkpt lat="45.4579425" lon="10.5203312"><ele>125.0</ele><time>2026-04-25T15:56:44.751Z</time></trkpt><trkpt lat="45.4579402" lon="10.5200669"><ele>125.33333333333333</ele><time>2026-04-25T15:56:45.753Z</time></trkpt><trkpt lat="45.4579422" lon="10.5198061"><ele>125.66666666666666</ele><time>2026-04-25T15:56:46.751Z</time></trkpt><trkpt lat="45.4579423" lon="10.5195419"><ele>126.0</ele><time>2026-04-25T15:56:47.755Z</time></trkpt><trkpt lat="45.4579497" lon="10.519283"><ele>126.33333333333334</ele><time>2026-04-25T15:56:48.757Z</time></trkpt><trkpt lat="45.4579592" lon="10.5190224"><ele>126.66666666666667</ele><time>2026-04-25T15:56:49.755Z</time></trkpt><trkpt lat="45.4579692" lon="10.5187611"><ele>127.0</ele><time>2026-04-25T15:56:50.752Z</time></trkpt><trkpt lat="45.4579803" lon="10.5184982"><ele>128.0</ele><time>2026-04-25T15:56:51.752Z</time></trkpt><trkpt lat="45.4579888" lon="10.5182286"><ele>129.0</ele><time>2026-04-25T15:56:52.754Z</time></trkpt><trkpt lat="45.4579928" lon="10.5179504"><ele>130.0</ele><time>2026-04-25T15:56:53.754Z</time></trkpt><trkpt lat="45.4579931" lon="10.5176703"><ele>131.0</ele><time>2026-04-25T15:56:54.755Z</time></trkpt><trkpt lat="45.4579912" lon="10.5173899"><ele>132.0</ele><time>2026-04-25T15:56:55.756Z</time></trkpt><trkpt lat="45.4579905" lon="10.5171143"><ele>133.0</ele><time>2026-04-25T15:56:56.752Z</time></trkpt><trkpt lat="45.4579941" lon="10.5168484"><ele>133.0</ele><time>2026-04-25T15:56:57.752Z</time></trkpt><trkpt lat="45.4580035" lon="10.5165889"><ele>133.0</ele><time>2026-04-25T15:56:58.755Z</time></trkpt><trkpt lat="45.4580224" lon="10.5163344"><ele>133.0</ele><time>2026-04-25T15:56:59.754Z</time></trkpt><trkpt lat="45.4580469" lon="10.5160797"><ele>133.33333333333334</ele><time>2026-04-25T15:57:00.753Z</time></trkpt><trkpt lat="45.4580729" lon="10.5158266"><ele>133.66666666666666</ele><time>2026-04-25T15:57:01.751Z</time></trkpt><trkpt lat="45.4581009" lon="10.5155765"><ele>134.0</ele><time>2026-04-25T15:57:02.751Z</time></trkpt><trkpt lat="45.4581367" lon="10.5153304"><ele>134.33333333333331</ele><time>2026-04-25T15:57:03.757Z</time></trkpt><trkpt lat="45.4581825" lon="10.5150915"><ele>134.66666666666666</ele><time>2026-04-25T15:57:04.753Z</time></trkpt><trkpt lat="45.4582348" lon="10.5148581"><ele>135.0</ele><time>2026-04-25T15:57:05.758Z</time></trkpt><trkpt lat="45.458292" lon="10.5146318"><ele>135.0</ele><time>2026-04-25T15:57:06.756Z</time></trkpt><trkpt lat="45.458356" lon="10.514407"><ele>135.0</ele><time>2026-04-25T15:57:07.764Z</time></trkpt><trkpt lat="45.4584254" lon="10.5141892"><ele>135.0</ele><time>2026-04-25T15:57:08.751Z</time></trkpt><trkpt lat="45.4585041" lon="10.5139718"><ele>135.0</ele><time>2026-04-25T15:57:09.761Z</time></trkpt><trkpt lat="45.4585876" lon="10.5137602"><ele>135.0</ele><time>2026-04-25T15:57:10.757Z</time></trkpt><trkpt lat="45.4586776" lon="10.5135546"><ele>135.0</ele><time>2026-04-25T15:57:11.752Z</time></trkpt><trkpt lat="45.4587717" lon="10.5133539"><ele>136.0</ele><time>2026-04-25T15:57:12.761Z</time></trkpt><trkpt lat="45.4588709" lon="10.513161"><ele>137.0</ele><time>2026-04-25T15:57:13.752Z</time></trkpt><trkpt lat="45.4589819" lon="10.5129713"><ele>138.0</ele><time>2026-04-25T15:57:14.765Z</time></trkpt><trkpt lat="45.4590955" lon="10.5127825"><ele>138.0</ele><time>2026-04-25T15:57:15.752Z</time></trkpt><trkpt lat="45.4592119" lon="10.5125897"><ele>138.0</ele><time>2026-04-25T15:57:16.751Z</time></trkpt><trkpt lat="45.4593292" lon="10.5123932"><ele>138.0</ele><time>2026-04-25T15:57:17.753Z</time></trkpt><trkpt lat="45.4594503" lon="10.5121946"><ele>139.0</ele><time>2026-04-25T15:57:18.755Z</time></trkpt><trkpt lat="45.4595741" lon="10.5119946"><ele>140.0</ele><time>2026-04-25T15:57:19.759Z</time></trkpt><trkpt lat="45.4596979" lon="10.5117932"><ele>141.0</ele><time>2026-04-25T15:57:20.759Z</time></trkpt><trkpt lat="45.4598203" lon="10.5115913"><ele>141.0</ele><time>2026-04-25T15:57:21.759Z</time></trkpt><trkpt lat="45.4599411" lon="10.5113934"><ele>141.0</ele><time>2026-04-25T15:57:22.76Z</time></trkpt><trkpt lat="45.4600566" lon="10.5112053"><ele>141.0</ele><time>2026-04-25T15:57:23.756Z</time></trkpt><trkpt lat="45.4601672" lon="10.5110269"><ele>141.66666666666666</ele><time>2026-04-25T15:57:24.756Z</time></trkpt><trkpt lat="45.4602734" lon="10.5108547"><ele>142.33333333333331</ele><time>2026-04-25T15:57:25.759Z</time></trkpt><trkpt lat="45.4603807" lon="10.5106874"><ele>143.0</ele><time>2026-04-25T15:57:26.762Z</time></trkpt><trkpt lat="45.4604849" lon="10.5105199"><ele>145.33333333333331</ele><time>2026-04-25T15:57:27.76Z</time></trkpt><trkpt lat="45.4605864" lon="10.510352"><ele>147.66666666666666</ele><time>2026-04-25T15:57:28.756Z</time></trkpt><trkpt lat="45.460688" lon="10.5101848"><ele>150.0</ele><time>2026-04-25T15:57:29.76Z</time></trkpt><trkpt lat="45.460793" lon="10.5100195"><ele>150.0</ele><time>2026-04-25T15:57:30.761Z</time></trkpt><trkpt lat="45.4608971" lon="10.5098541"><ele>150.0</ele><time>2026-04-25T15:57:31.758Z</time></trkpt><trkpt lat="45.4610006" lon="10.5096855"><ele>150.0</ele><time>2026-04-25T15:57:32.76Z</time></trkpt><trkpt lat="45.461105" lon="10.5095149"><ele>150.0</ele><time>2026-04-25T15:57:33.752Z</time></trkpt><trkpt lat="45.4612107" lon="10.5093422"><ele>150.0</ele><time>2026-04-25T15:57:34.758Z</time></trkpt><trkpt lat="45.4613175" lon="10.5091696"><ele>150.0</ele><time>2026-04-25T15:57:35.758Z</time></trkpt><trkpt lat="45.4614239" lon="10.5089935"><ele>150.0</ele><time>2026-04-25T15:57:36.758Z</time></trkpt><trkpt lat="45.4615313" lon="10.5088157"><ele>150.0</ele><time>2026-04-25T15:57:37.757Z</time></trkpt><trkpt lat="45.4616382" lon="10.508635"><ele>150.0</ele><time>2026-04-25T15:57:38.763Z</time></trkpt><trkpt lat="45.4617451" lon="10.5084549"><ele>152.66666666666666</ele><time>2026-04-25T15:57:39.764Z</time></trkpt><trkpt lat="45.4618509" lon="10.5082752"><ele>155.33333333333331</ele><time>2026-04-25T15:57:40.759Z</time></trkpt><trkpt lat="45.4619559" lon="10.5080998"><ele>158.0</ele><time>2026-04-25T15:57:41.751Z</time></trkpt><trkpt lat="45.4620592" lon="10.5079249"><ele>155.0</ele><time>2026-04-25T15:57:42.756Z</time></trkpt><trkpt lat="45.4621618" lon="10.5077518"><ele>152.0</ele><time>2026-04-25T15:57:43.752Z</time></trkpt><trkpt lat="45.4622666" lon="10.5075798"><ele>149.0</ele><time>2026-04-25T15:57:44.751Z</time></trkpt><trkpt lat="45.4623729" lon="10.5074093"><ele>149.0</ele><time>2026-04-25T15:57:45.754Z</time></trkpt><trkpt lat="45.4624799" lon="10.507242"><ele>149.0</ele><time>2026-04-25T15:57:46.758Z</time></trkpt><trkpt lat="45.4625863" lon="10.5070758"><ele>149.0</ele><time>2026-04-25T15:57:47.757Z</time></trkpt><trkpt lat="45.4626924" lon="10.506909"><ele>149.0</ele><time>2026-04-25T15:57:48.758Z</time></trkpt><trkpt lat="45.4628002" lon="10.5067391"><ele>149.0</ele><time>2026-04-25T15:57:49.752Z</time></trkpt><trkpt lat="45.4629102" lon="10.5065601"><ele>149.0</ele><time>2026-04-25T15:57:50.759Z</time></trkpt><trkpt lat="45.4630212" lon="10.5063763"><ele>149.33333333333331</ele><time>2026-04-25T15:57:51.758Z</time></trkpt><trkpt lat="45.4631403" lon="10.5061918"><ele>149.66666666666666</ele><time>2026-04-25T15:57:52.751Z</time></trkpt><trkpt lat="45.4632604" lon="10.5060034"><ele>150.0</ele><time>2026-04-25T15:57:53.765Z</time></trkpt><trkpt lat="45.4633801" lon="10.5058143"><ele>150.0</ele><time>2026-04-25T15:57:54.758Z</time></trkpt><trkpt lat="45.4635006" lon="10.5056215"><ele>150.0</ele><time>2026-04-25T15:57:55.755Z</time></trkpt><trkpt lat="45.4636227" lon="10.5054272"><ele>150.0</ele><time>2026-04-25T15:57:56.765Z</time></trkpt><trkpt lat="45.4637456" lon="10.5052337"><ele>148.33333333333334</ele><time>2026-04-25T15:57:57.752Z</time></trkpt><trkpt lat="45.463871" lon="10.5050327"><ele>146.66666666666669</ele><time>2026-04-25T15:57:58.758Z</time></trkpt><trkpt lat="45.4639949" lon="10.5048312"><ele>145.0</ele><time>2026-04-25T15:57:59.757Z</time></trkpt><trkpt lat="45.4641197" lon="10.5046315"><ele>146.0</ele><time>2026-04-25T15:58:00.76Z</time></trkpt><trkpt lat="45.464241" lon="10.5044343"><ele>147.0</ele><time>2026-04-25T15:58:01.761Z</time></trkpt><trkpt lat="45.4643601" lon="10.504243"><ele>148.0</ele><time>2026-04-25T15:58:02.76Z</time></trkpt><trkpt lat="45.464478" lon="10.5040524"><ele>148.0</ele><time>2026-04-25T15:58:03.758Z</time></trkpt><trkpt lat="45.4645972" lon="10.5038641"><ele>148.0</ele><time>2026-04-25T15:58:04.752Z</time></trkpt><trkpt lat="45.464718" lon="10.5036729"><ele>148.0</ele><time>2026-04-25T15:58:05.758Z</time></trkpt><trkpt lat="45.464838" lon="10.5034782"><ele>147.0</ele><time>2026-04-25T15:58:06.759Z</time></trkpt><trkpt lat="45.4649609" lon="10.5032813"><ele>146.0</ele><time>2026-04-25T15:58:07.76Z</time></trkpt><trkpt lat="45.4650865" lon="10.5030829"><ele>145.0</ele><time>2026-04-25T15:58:08.762Z</time></trkpt><trkpt lat="45.4652073" lon="10.5028834"><ele>145.0</ele><time>2026-04-25T15:58:09.757Z</time></trkpt><trkpt lat="45.4653258" lon="10.5026899"><ele>145.0</ele><time>2026-04-25T15:58:10.758Z</time></trkpt><trkpt lat="45.465442" lon="10.5025018"><ele>145.0</ele><time>2026-04-25T15:58:11.751Z</time></trkpt><trkpt lat="45.4655561" lon="10.5023158"><ele>144.0</ele><time>2026-04-25T15:58:12.763Z</time></trkpt><trkpt lat="45.4656674" lon="10.5021349"><ele>143.0</ele><time>2026-04-25T15:58:13.759Z</time></trkpt><trkpt lat="45.4657798" lon="10.5019527"><ele>142.0</ele><time>2026-04-25T15:58:14.752Z</time></trkpt><trkpt lat="45.465896" lon="10.5017683"><ele>142.0</ele><time>2026-04-25T15:58:15.768Z</time></trkpt><trkpt lat="45.4660108" lon="10.5015854"><ele>142.0</ele><time>2026-04-25T15:58:16.759Z</time></trkpt><trkpt lat="45.4661232" lon="10.5013935"><ele>142.0</ele><time>2026-04-25T15:58:17.757Z</time></trkpt><trkpt lat="45.4662306" lon="10.5011924"><ele>142.0</ele><time>2026-04-25T15:58:18.759Z</time></trkpt><trkpt lat="45.4663335" lon="10.500985"><ele>142.0</ele><time>2026-04-25T15:58:19.758Z</time></trkpt><trkpt lat="45.4664287" lon="10.5007709"><ele>142.0</ele><time>2026-04-25T15:58:20.761Z</time></trkpt><trkpt lat="45.4665169" lon="10.5005538"><ele>141.66666666666669</ele><time>2026-04-25T15:58:21.761Z</time></trkpt><trkpt lat="45.4665991" lon="10.5003343"><ele>141.33333333333334</ele><time>2026-04-25T15:58:22.759Z</time></trkpt><trkpt lat="45.4666767" lon="10.5001142"><ele>141.0</ele><time>2026-04-25T15:58:23.753Z</time></trkpt><trkpt lat="45.4667511" lon="10.4998894"><ele>141.0</ele><time>2026-04-25T15:58:24.751Z</time></trkpt><trkpt lat="45.466824" lon="10.4996623"><ele>141.0</ele><time>2026-04-25T15:58:25.755Z</time></trkpt><trkpt lat="45.466897" lon="10.4994369"><ele>141.0</ele><time>2026-04-25T15:58:26.755Z</time></trkpt><trkpt lat="45.4669703" lon="10.4992115"><ele>141.66666666666666</ele><time>2026-04-25T15:58:27.755Z</time></trkpt><trkpt lat="45.4670422" lon="10.4989865"><ele>142.33333333333331</ele><time>2026-04-25T15:58:28.751Z</time></trkpt><trkpt lat="45.4671137" lon="10.4987568"><ele>143.0</ele><time>2026-04-25T15:58:29.757Z</time></trkpt><trkpt lat="45.4671864" lon="10.4985291"><ele>143.66666666666666</ele><time>2026-04-25T15:58:30.76Z</time></trkpt><trkpt lat="45.4672604" lon="10.4983045"><ele>144.33333333333334</ele><time>2026-04-25T15:58:31.752Z</time></trkpt><trkpt lat="45.4673341" lon="10.498082"><ele>145.0</ele><time>2026-04-25T15:58:32.758Z</time></trkpt><trkpt lat="45.4674072" lon="10.497867"><ele>145.0</ele><time>2026-04-25T15:58:33.752Z</time></trkpt><trkpt lat="45.4674794" lon="10.4976547"><ele>145.0</ele><time>2026-04-25T15:58:34.757Z</time></trkpt><trkpt lat="45.4675512" lon="10.497445"><ele>145.0</ele><time>2026-04-25T15:58:35.757Z</time></trkpt><trkpt lat="45.4676231" lon="10.497231"><ele>146.0</ele><time>2026-04-25T15:58:36.76Z</time></trkpt><trkpt lat="45.467693" lon="10.4970096"><ele>147.0</ele><time>2026-04-25T15:58:37.755Z</time></trkpt><trkpt lat="45.4677617" lon="10.4967834"><ele>148.0</ele><time>2026-04-25T15:58:38.751Z</time></trkpt><trkpt lat="45.4678355" lon="10.496555"><ele>148.0</ele><time>2026-04-25T15:58:39.759Z</time></trkpt><trkpt lat="45.467912" lon="10.4963286"><ele>148.0</ele><time>2026-04-25T15:58:40.751Z</time></trkpt><trkpt lat="45.467995" lon="10.4961007"><ele>148.0</ele><time>2026-04-25T15:58:41.759Z</time></trkpt><trkpt lat="45.4680829" lon="10.4958744"><ele>147.66666666666669</ele><time>2026-04-25T15:58:42.758Z</time></trkpt><trkpt lat="45.4681747" lon="10.4956545"><ele>147.33333333333334</ele><time>2026-04-25T15:58:43.759Z</time></trkpt><trkpt lat="45.4682656" lon="10.4954386"><ele>147.0</ele><time>2026-04-25T15:58:44.752Z</time></trkpt><trkpt lat="45.4683606" lon="10.4952289"><ele>147.0</ele><time>2026-04-25T15:58:45.759Z</time></trkpt><trkpt lat="45.4684638" lon="10.4950312"><ele>147.0</ele><time>2026-04-25T15:58:46.751Z</time></trkpt><trkpt lat="45.4685762" lon="10.4948377"><ele>147.0</ele><time>2026-04-25T15:58:47.753Z</time></trkpt><trkpt lat="45.4686934" lon="10.4946505"><ele>148.33333333333334</ele><time>2026-04-25T15:58:48.755Z</time></trkpt><trkpt lat="45.4688165" lon="10.4944665"><ele>149.66666666666669</ele><time>2026-04-25T15:58:49.755Z</time></trkpt><trkpt lat="45.4689384" lon="10.494283"><ele>151.0</ele><time>2026-04-25T15:58:50.753Z</time></trkpt><trkpt lat="45.4690623" lon="10.4941014"><ele>151.0</ele><time>2026-04-25T15:58:51.751Z</time></trkpt><trkpt lat="45.4691877" lon="10.4939192"><ele>151.0</ele><time>2026-04-25T15:58:52.752Z</time></trkpt><trkpt lat="45.4693147" lon="10.4937413"><ele>151.0</ele><time>2026-04-25T15:58:53.758Z</time></trkpt><trkpt lat="45.4694427" lon="10.493564"><ele>151.33333333333334</ele><time>2026-04-25T15:58:54.758Z</time></trkpt><trkpt lat="45.4695683" lon="10.4933961"><ele>151.66666666666666</ele><time>2026-04-25T15:58:55.755Z</time></trkpt><trkpt lat="45.4696921" lon="10.4932371"><ele>152.0</ele><time>2026-04-25T15:58:56.757Z</time></trkpt><trkpt lat="45.4698137" lon="10.4930853"><ele>152.0</ele><time>2026-04-25T15:58:57.76Z</time></trkpt><trkpt lat="45.4699289" lon="10.4929393"><ele>152.0</ele><time>2026-04-25T15:58:58.754Z</time></trkpt><trkpt lat="45.4700393" lon="10.4927974"><ele>152.0</ele><time>2026-04-25T15:58:59.754Z</time></trkpt><trkpt lat="45.4701449" lon="10.4926591"><ele>152.0</ele><time>2026-04-25T15:59:00.76Z</time></trkpt><trkpt lat="45.4702448" lon="10.4925264"><ele>152.0</ele><time>2026-04-25T15:59:01.752Z</time></trkpt><trkpt lat="45.4703452" lon="10.4923979"><ele>152.0</ele><time>2026-04-25T15:59:02.753Z</time></trkpt><trkpt lat="45.4704433" lon="10.4922708"><ele>152.0</ele><time>2026-04-25T15:59:03.751Z</time></trkpt><trkpt lat="45.4705441" lon="10.4921581"><ele>152.0</ele><time>2026-04-25T15:59:04.75Z</time></trkpt><trkpt lat="45.4706472" lon="10.4920644"><ele>152.0</ele><time>2026-04-25T15:59:05.752Z</time></trkpt><trkpt lat="45.4707547" lon="10.4920067"><ele>152.0</ele><time>2026-04-25T15:59:06.752Z</time></trkpt><trkpt lat="45.4708647" lon="10.4919878"><ele>152.0</ele><time>2026-04-25T15:59:07.752Z</time></trkpt><trkpt lat="45.4709792" lon="10.492004"><ele>152.0</ele><time>2026-04-25T15:59:08.753Z</time></trkpt><trkpt lat="45.4710934" lon="10.4920385"><ele>152.0</ele><time>2026-04-25T15:59:09.753Z</time></trkpt><trkpt lat="45.47121" lon="10.4920705"><ele>152.0</ele><time>2026-04-25T15:59:10.752Z</time></trkpt><trkpt lat="45.4713258" lon="10.4920809"><ele>152.0</ele><time>2026-04-25T15:59:11.751Z</time></trkpt><trkpt lat="45.4714387" lon="10.4920625"><ele>152.0</ele><time>2026-04-25T15:59:12.752Z</time></trkpt><trkpt lat="45.4715479" lon="10.4920138"><ele>152.0</ele><time>2026-04-25T15:59:13.751Z</time></trkpt><trkpt lat="45.4716578" lon="10.4919544"><ele>152.0</ele><time>2026-04-25T15:59:14.76Z</time></trkpt><trkpt lat="45.4717673" lon="10.4918966"><ele>152.0</ele><time>2026-04-25T15:59:15.752Z</time></trkpt><trkpt lat="45.4718825" lon="10.4918435"><ele>152.0</ele><time>2026-04-25T15:59:16.754Z</time></trkpt><trkpt lat="45.4719932" lon="10.4917897"><ele>152.0</ele><time>2026-04-25T15:59:17.751Z</time></trkpt><trkpt lat="45.4720952" lon="10.4917356"><ele>152.0</ele><time>2026-04-25T15:59:18.766Z</time></trkpt><trkpt lat="45.472193" lon="10.4916863"><ele>152.0</ele><time>2026-04-25T15:59:19.76Z</time></trkpt><trkpt lat="45.472289" lon="10.4916441"><ele>152.0</ele><time>2026-04-25T15:59:20.754Z</time></trkpt><trkpt lat="45.4723856" lon="10.49162"><ele>152.0</ele><time>2026-04-25T15:59:21.758Z</time></trkpt><trkpt lat="45.47249" lon="10.4916217"><ele>152.0</ele><time>2026-04-25T15:59:22.764Z</time></trkpt><trkpt lat="45.4725979" lon="10.4916462"><ele>152.0</ele><time>2026-04-25T15:59:23.767Z</time></trkpt><trkpt lat="45.4727093" lon="10.4916865"><ele>152.0</ele><time>2026-04-25T15:59:24.761Z</time></trkpt><trkpt lat="45.472826" lon="10.4917309"><ele>152.0</ele><time>2026-04-25T15:59:25.761Z</time></trkpt><trkpt lat="45.4729481" lon="10.4917804"><ele>152.5</ele><time>2026-04-25T15:59:26.766Z</time></trkpt><trkpt lat="45.4730757" lon="10.4918316"><ele>153.0</ele><time>2026-04-25T15:59:27.761Z</time></trkpt><trkpt lat="45.4732076" lon="10.4918868"><ele>153.5</ele><time>2026-04-25T15:59:28.76Z</time></trkpt><trkpt lat="45.4733444" lon="10.4919452"><ele>154.0</ele><time>2026-04-25T15:59:29.755Z</time></trkpt><trkpt lat="45.4734868" lon="10.4920076"><ele>154.0</ele><time>2026-04-25T15:59:30.754Z</time></trkpt><trkpt lat="45.4736343" lon="10.4920754"><ele>154.0</ele><time>2026-04-25T15:59:31.755Z</time></trkpt><trkpt lat="45.4737847" lon="10.4921462"><ele>154.0</ele><time>2026-04-25T15:59:32.759Z</time></trkpt><trkpt lat="45.4739436" lon="10.4922189"><ele>153.66666666666669</ele><time>2026-04-25T15:59:33.754Z</time></trkpt><trkpt lat="45.4741009" lon="10.492294"><ele>153.33333333333334</ele><time>2026-04-25T15:59:34.753Z</time></trkpt><trkpt lat="45.4742552" lon="10.4923712"><ele>153.0</ele><time>2026-04-25T15:59:35.76Z</time></trkpt><trkpt lat="45.4743996" lon="10.4924517"><ele>153.0</ele><time>2026-04-25T15:59:36.752Z</time></trkpt><trkpt lat="45.474538" lon="10.4925354"><ele>153.0</ele><time>2026-04-25T15:59:37.759Z</time></trkpt><trkpt lat="45.4746612" lon="10.4926145"><ele>153.0</ele><time>2026-04-25T15:59:38.761Z</time></trkpt><trkpt lat="45.4747711" lon="10.4926894"><ele>153.0</ele><time>2026-04-25T15:59:39.761Z</time></trkpt><trkpt lat="45.4748722" lon="10.4927609"><ele>153.0</ele><time>2026-04-25T15:59:40.756Z</time></trkpt><trkpt lat="45.474969" lon="10.4928295"><ele>153.0</ele><time>2026-04-25T15:59:41.76Z</time></trkpt><trkpt lat="45.4750603" lon="10.4928956"><ele>153.0</ele><time>2026-04-25T15:59:42.753Z</time></trkpt><trkpt lat="45.4751469" lon="10.4929595"><ele>153.0</ele><time>2026-04-25T15:59:43.753Z</time></trkpt><trkpt lat="45.4752288" lon="10.4930211"><ele>153.0</ele><time>2026-04-25T15:59:44.765Z</time></trkpt><trkpt lat="45.4753094" lon="10.4930838"><ele>152.8</ele><time>2026-04-25T15:59:45.759Z</time></trkpt><trkpt lat="45.4753936" lon="10.4931547"><ele>152.60000000000002</ele><time>2026-04-25T15:59:46.757Z</time></trkpt><trkpt lat="45.4754843" lon="10.4932317"><ele>152.39999999999998</ele><time>2026-04-25T15:59:47.762Z</time></trkpt><trkpt lat="45.4755804" lon="10.4933122"><ele>152.2</ele><time>2026-04-25T15:59:48.762Z</time></trkpt><trkpt lat="45.4756822" lon="10.493394"><ele>152.0</ele><time>2026-04-25T15:59:49.768Z</time></trkpt><trkpt lat="45.4757885" lon="10.4934808"><ele>152.0</ele><time>2026-04-25T15:59:50.752Z</time></trkpt><trkpt lat="45.4759036" lon="10.493572"><ele>152.0</ele><time>2026-04-25T15:59:51.763Z</time></trkpt><trkpt lat="45.4760262" lon="10.4936637"><ele>152.0</ele><time>2026-04-25T15:59:52.757Z</time></trkpt><trkpt lat="45.4761579" lon="10.4937517"><ele>152.0</ele><time>2026-04-25T15:59:53.758Z</time></trkpt><trkpt lat="45.4762966" lon="10.4938346"><ele>152.0</ele><time>2026-04-25T15:59:54.753Z</time></trkpt><trkpt lat="45.4764427" lon="10.4939137"><ele>152.0</ele><time>2026-04-25T15:59:55.763Z</time></trkpt><trkpt lat="45.4765961" lon="10.4939842"><ele>152.0</ele><time>2026-04-25T15:59:56.761Z</time></trkpt><trkpt lat="45.476755" lon="10.49405"><ele>152.0</ele><time>2026-04-25T15:59:57.757Z</time></trkpt><trkpt lat="45.4769187" lon="10.4941164"><ele>152.0</ele><time>2026-04-25T15:59:58.755Z</time></trkpt><trkpt lat="45.477087" lon="10.4941816"><ele>152.0</ele><time>2026-04-25T15:59:59.756Z</time></trkpt><trkpt lat="45.4772583" lon="10.4942467"><ele>152.0</ele><time>2026-04-25T16:00:00.752Z</time></trkpt><trkpt lat="45.4774317" lon="10.4943133"><ele>152.0</ele><time>2026-04-25T16:00:01.755Z</time></trkpt><trkpt lat="45.4776033" lon="10.4943867"><ele>152.0</ele><time>2026-04-25T16:00:02.756Z</time></trkpt><trkpt lat="45.477775" lon="10.494465"><ele>150.66666666666666</ele><time>2026-04-25T16:00:03.756Z</time></trkpt><trkpt lat="45.47795" lon="10.4945417"><ele>149.33333333333334</ele><time>2026-04-25T16:00:04.752Z</time></trkpt><trkpt lat="45.4781217" lon="10.4946283"><ele>148.0</ele><time>2026-04-25T16:00:05.762Z</time></trkpt><trkpt lat="45.4783" lon="10.494705"><ele>148.0</ele><time>2026-04-25T16:00:06.76Z</time></trkpt><trkpt lat="45.47848" lon="10.49478"><ele>148.0</ele><time>2026-04-25T16:00:07.761Z</time></trkpt><trkpt lat="45.4786617" lon="10.4948533"><ele>148.0</ele><time>2026-04-25T16:00:08.76Z</time></trkpt><trkpt lat="45.4788433" lon="10.494925"><ele>149.66666666666669</ele><time>2026-04-25T16:00:09.762Z</time></trkpt><trkpt lat="45.47903" lon="10.4949917"><ele>151.33333333333334</ele><time>2026-04-25T16:00:10.76Z</time></trkpt><trkpt lat="45.47922" lon="10.4950617"><ele>153.0</ele><time>2026-04-25T16:00:11.759Z</time></trkpt><trkpt lat="45.47941" lon="10.4951333"><ele>153.0</ele><time>2026-04-25T16:00:12.761Z</time></trkpt><trkpt lat="45.4796" lon="10.495205"><ele>153.0</ele><time>2026-04-25T16:00:13.76Z</time></trkpt><trkpt lat="45.4797917" lon="10.4952767"><ele>153.0</ele><time>2026-04-25T16:00:14.763Z</time></trkpt><trkpt lat="45.4799817" lon="10.495345"><ele>152.66666666666666</ele><time>2026-04-25T16:00:15.753Z</time></trkpt><trkpt lat="45.4801683" lon="10.4954133"><ele>152.33333333333331</ele><time>2026-04-25T16:00:16.76Z</time></trkpt><trkpt lat="45.480355" lon="10.49548"><ele>152.0</ele><time>2026-04-25T16:00:17.759Z</time></trkpt><trkpt lat="45.48054" lon="10.4955467"><ele>152.0</ele><time>2026-04-25T16:00:18.759Z</time></trkpt><trkpt lat="45.4807183" lon="10.495615"><ele>152.0</ele><time>2026-04-25T16:00:19.758Z</time></trkpt><trkpt lat="45.4809" lon="10.4956817"><ele>152.0</ele><time>2026-04-25T16:00:20.761Z</time></trkpt><trkpt lat="45.4810783" lon="10.4957417"><ele>152.0</ele><time>2026-04-25T16:00:21.76Z</time></trkpt><trkpt lat="45.4812583" lon="10.495805"><ele>152.0</ele><time>2026-04-25T16:00:22.758Z</time></trkpt><trkpt lat="45.48144" lon="10.4958683"><ele>152.0</ele><time>2026-04-25T16:00:23.756Z</time></trkpt><trkpt lat="45.4816217" lon="10.4959333"><ele>153.33333333333331</ele><time>2026-04-25T16:00:24.76Z</time></trkpt><trkpt lat="45.4818067" lon="10.496"><ele>154.66666666666666</ele><time>2026-04-25T16:00:25.758Z</time></trkpt><trkpt lat="45.4819917" lon="10.4960633"><ele>156.0</ele><time>2026-04-25T16:00:26.76Z</time></trkpt><trkpt lat="45.482175" lon="10.4961267"><ele>156.33333333333334</ele><time>2026-04-25T16:00:27.758Z</time></trkpt><trkpt lat="45.4823617" lon="10.4961917"><ele>156.66666666666669</ele><time>2026-04-25T16:00:28.763Z</time></trkpt><trkpt lat="45.4825467" lon="10.4962567"><ele>157.0</ele><time>2026-04-25T16:00:29.77Z</time></trkpt><trkpt lat="45.48273" lon="10.496325"><ele>155.66666666666669</ele><time>2026-04-25T16:00:30.759Z</time></trkpt><trkpt lat="45.4829133" lon="10.4963833"><ele>154.33333333333334</ele><time>2026-04-25T16:00:31.755Z</time></trkpt><trkpt lat="45.4830967" lon="10.4964317"><ele>153.0</ele><time>2026-04-25T16:00:32.761Z</time></trkpt><trkpt lat="45.4832783" lon="10.4964717"><ele>153.0</ele><time>2026-04-25T16:00:33.759Z</time></trkpt><trkpt lat="45.4834583" lon="10.4965"><ele>153.0</ele><time>2026-04-25T16:00:34.757Z</time></trkpt><trkpt lat="45.4836267" lon="10.4965267"><ele>153.0</ele><time>2026-04-25T16:00:35.754Z</time></trkpt><trkpt lat="45.4837867" lon="10.49655"><ele>153.0</ele><time>2026-04-25T16:00:36.763Z</time></trkpt><trkpt lat="45.48394" lon="10.4965717"><ele>153.0</ele><time>2026-04-25T16:00:37.759Z</time></trkpt><trkpt lat="45.4840867" lon="10.4965933"><ele>153.0</ele><time>2026-04-25T16:00:38.76Z</time></trkpt><trkpt lat="45.4842283" lon="10.496615"><ele>153.0</ele><time>2026-04-25T16:00:39.759Z</time></trkpt><trkpt lat="45.4843683" lon="10.4966367"><ele>153.0</ele><time>2026-04-25T16:00:40.752Z</time></trkpt><trkpt lat="45.4845033" lon="10.49666"><ele>153.0</ele><time>2026-04-25T16:00:41.76Z</time></trkpt><trkpt lat="45.4846383" lon="10.496685"><ele>153.0</ele><time>2026-04-25T16:00:42.76Z</time></trkpt><trkpt lat="45.48478" lon="10.496705"><ele>153.0</ele><time>2026-04-25T16:00:43.757Z</time></trkpt><trkpt lat="45.4849233" lon="10.4967217"><ele>153.5</ele><time>2026-04-25T16:00:44.761Z</time></trkpt><trkpt lat="45.4850717" lon="10.4967383"><ele>154.0</ele><time>2026-04-25T16:00:45.764Z</time></trkpt><trkpt lat="45.48522" lon="10.49675"><ele>154.5</ele><time>2026-04-25T16:00:46.759Z</time></trkpt><trkpt lat="45.4853717" lon="10.4967617"><ele>155.0</ele><time>2026-04-25T16:00:47.759Z</time></trkpt><trkpt lat="45.4855267" lon="10.49677"><ele>155.0</ele><time>2026-04-25T16:00:48.756Z</time></trkpt><trkpt lat="45.48568" lon="10.4967767"><ele>155.0</ele><time>2026-04-25T16:00:49.757Z</time></trkpt><trkpt lat="45.4858367" lon="10.496785"><ele>155.0</ele><time>2026-04-25T16:00:50.761Z</time></trkpt><trkpt lat="45.4859967" lon="10.4967933"><ele>155.0</ele><time>2026-04-25T16:00:51.758Z</time></trkpt><trkpt lat="45.4861533" lon="10.4968033"><ele>155.0</ele><time>2026-04-25T16:00:52.76Z</time></trkpt><trkpt lat="45.4863033" lon="10.4968033"><ele>155.0</ele><time>2026-04-25T16:00:53.76Z</time></trkpt><trkpt lat="45.4864567" lon="10.4967933"><ele>155.75</ele><time>2026-04-25T16:00:54.759Z</time></trkpt><trkpt lat="45.4866" lon="10.49679"><ele>156.5</ele><time>2026-04-25T16:00:55.752Z</time></trkpt><trkpt lat="45.4867383" lon="10.4967917"><ele>157.25</ele><time>2026-04-25T16:00:56.758Z</time></trkpt><trkpt lat="45.4868717" lon="10.4967917"><ele>158.0</ele><time>2026-04-25T16:00:57.754Z</time></trkpt><trkpt lat="45.486995" lon="10.4967917"><ele>157.6</ele><time>2026-04-25T16:00:58.757Z</time></trkpt><trkpt lat="45.4871117" lon="10.4967883"><ele>157.20000000000002</ele><time>2026-04-25T16:00:59.766Z</time></trkpt><trkpt lat="45.4872167" lon="10.496785"><ele>156.8</ele><time>2026-04-25T16:01:00.76Z</time></trkpt><trkpt lat="45.4872917" lon="10.4967833"><ele>156.4</ele><time>2026-04-25T16:01:01.75Z</time></trkpt><trkpt lat="45.4873667" lon="10.496785"><ele>156.0</ele><time>2026-04-25T16:01:03.758Z</time></trkpt><trkpt lat="45.48745" lon="10.49678"><ele>156.0</ele><time>2026-04-25T16:01:07.76Z</time></trkpt><trkpt lat="45.4875417" lon="10.4967867"><ele>156.0</ele><time>2026-04-25T16:01:09.761Z</time></trkpt><trkpt lat="45.4876267" lon="10.496795"><ele>156.0</ele><time>2026-04-25T16:01:11.759Z</time></trkpt><trkpt lat="45.4876917" lon="10.4968017"><ele>156.0</ele><time>2026-04-25T16:01:13.756Z</time></trkpt><trkpt lat="45.4877733" lon="10.4968117"><ele>156.0</ele><time>2026-04-25T16:01:16.761Z</time></trkpt><trkpt lat="45.4878383" lon="10.4968167"><ele>156.0</ele><time>2026-04-25T16:01:18.759Z</time></trkpt><trkpt lat="45.487925" lon="10.496815"><ele>155.71428571428572</ele><time>2026-04-25T16:01:20.759Z</time></trkpt><trkpt lat="45.4880317" lon="10.4968133"><ele>155.42857142857142</ele><time>2026-04-25T16:01:22.758Z</time></trkpt><trkpt lat="45.488095" lon="10.4968183"><ele>155.14285714285714</ele><time>2026-04-25T16:01:23.757Z</time></trkpt><trkpt lat="45.4881633" lon="10.4968217"><ele>154.85714285714286</ele><time>2026-04-25T16:01:24.758Z</time></trkpt><trkpt lat="45.4882333" lon="10.4968233"><ele>154.57142857142856</ele><time>2026-04-25T16:01:25.756Z</time></trkpt><trkpt lat="45.4883" lon="10.4968283"><ele>154.28571428571428</ele><time>2026-04-25T16:01:26.76Z</time></trkpt><trkpt lat="45.4883717" lon="10.49683"><ele>154.0</ele><time>2026-04-25T16:01:27.765Z</time></trkpt><trkpt lat="45.4884517" lon="10.4968333"><ele>154.0</ele><time>2026-04-25T16:01:28.75Z</time></trkpt><trkpt lat="45.48854" lon="10.4968333"><ele>154.0</ele><time>2026-04-25T16:01:29.76Z</time></trkpt><trkpt lat="45.4886367" lon="10.4968333"><ele>154.0</ele><time>2026-04-25T16:01:30.762Z</time></trkpt><trkpt lat="45.4887367" lon="10.4968367"><ele>154.0</ele><time>2026-04-25T16:01:31.757Z</time></trkpt><trkpt lat="45.4888417" lon="10.49684"><ele>154.0</ele><time>2026-04-25T16:01:32.758Z</time></trkpt><trkpt lat="45.48895" lon="10.4968433"><ele>153.0</ele><time>2026-04-25T16:01:33.756Z</time></trkpt><trkpt lat="45.489065" lon="10.4968417"><ele>152.0</ele><time>2026-04-25T16:01:34.756Z</time></trkpt><trkpt lat="45.48919" lon="10.4968433"><ele>151.0</ele><time>2026-04-25T16:01:35.759Z</time></trkpt><trkpt lat="45.4893217" lon="10.4968467"><ele>150.0</ele><time>2026-04-25T16:01:36.751Z</time></trkpt><trkpt lat="45.4894517" lon="10.496845"><ele>150.0</ele><time>2026-04-25T16:01:37.75Z</time></trkpt><trkpt lat="45.489585" lon="10.496825"><ele>150.0</ele><time>2026-04-25T16:01:38.754Z</time></trkpt><trkpt lat="45.4897183" lon="10.4967867"><ele>150.0</ele><time>2026-04-25T16:01:39.759Z</time></trkpt><trkpt lat="45.48985" lon="10.496725"><ele>150.0</ele><time>2026-04-25T16:01:40.752Z</time></trkpt><trkpt lat="45.4899833" lon="10.49664"><ele>149.66666666666666</ele><time>2026-04-25T16:01:41.755Z</time></trkpt><trkpt lat="45.4901117" lon="10.4965333"><ele>149.33333333333331</ele><time>2026-04-25T16:01:42.757Z</time></trkpt><trkpt lat="45.4902417" lon="10.4964167"><ele>149.0</ele><time>2026-04-25T16:01:43.757Z</time></trkpt><trkpt lat="45.4903733" lon="10.4962983"><ele>149.66666666666666</ele><time>2026-04-25T16:01:44.751Z</time></trkpt><trkpt lat="45.49051" lon="10.4961883"><ele>150.33333333333334</ele><time>2026-04-25T16:01:45.758Z</time></trkpt><trkpt lat="45.4906483" lon="10.4960983"><ele>151.0</ele><time>2026-04-25T16:01:46.759Z</time></trkpt><trkpt lat="45.4907917" lon="10.496025"><ele>151.0</ele><time>2026-04-25T16:01:47.75Z</time></trkpt><trkpt lat="45.4909383" lon="10.49596"><ele>151.0</ele><time>2026-04-25T16:01:48.758Z</time></trkpt><trkpt lat="45.4910833" lon="10.495905"><ele>151.0</ele><time>2026-04-25T16:01:49.758Z</time></trkpt><trkpt lat="45.4912283" lon="10.4958383"><ele>149.33333333333334</ele><time>2026-04-25T16:01:50.76Z</time></trkpt><trkpt lat="45.491375" lon="10.4957633"><ele>147.66666666666666</ele><time>2026-04-25T16:01:51.759Z</time></trkpt><trkpt lat="45.4915183" lon="10.4956783"><ele>146.0</ele><time>2026-04-25T16:01:52.758Z</time></trkpt><trkpt lat="45.4916667" lon="10.4956"><ele>146.0</ele><time>2026-04-25T16:01:53.768Z</time></trkpt><trkpt lat="45.4918167" lon="10.495515"><ele>146.0</ele><time>2026-04-25T16:01:54.759Z</time></trkpt><trkpt lat="45.4919633" lon="10.4954333"><ele>146.0</ele><time>2026-04-25T16:01:55.762Z</time></trkpt><trkpt lat="45.4921083" lon="10.49535"><ele>146.33333333333331</ele><time>2026-04-25T16:01:56.761Z</time></trkpt><trkpt lat="45.4922533" lon="10.4952617"><ele>146.66666666666666</ele><time>2026-04-25T16:01:57.759Z</time></trkpt><trkpt lat="45.4923967" lon="10.49518"><ele>147.0</ele><time>2026-04-25T16:01:58.757Z</time></trkpt><trkpt lat="45.4925417" lon="10.4951"><ele>147.0</ele><time>2026-04-25T16:01:59.759Z</time></trkpt><trkpt lat="45.4926833" lon="10.4950217"><ele>147.0</ele><time>2026-04-25T16:02:00.758Z</time></trkpt><trkpt lat="45.492825" lon="10.4949567"><ele>147.0</ele><time>2026-04-25T16:02:01.756Z</time></trkpt><trkpt lat="45.4929683" lon="10.4949133"><ele>147.0</ele><time>2026-04-25T16:02:02.751Z</time></trkpt><trkpt lat="45.49311" lon="10.4948933"><ele>146.25</ele><time>2026-04-25T16:02:03.751Z</time></trkpt><trkpt lat="45.49325" lon="10.4948983"><ele>145.5</ele><time>2026-04-25T16:02:04.765Z</time></trkpt><trkpt lat="45.493385" lon="10.4949183"><ele>144.75</ele><time>2026-04-25T16:02:05.752Z</time></trkpt><trkpt lat="45.4935167" lon="10.4949483"><ele>144.0</ele><time>2026-04-25T16:02:06.753Z</time></trkpt><trkpt lat="45.4936417" lon="10.495"><ele>146.0</ele><time>2026-04-25T16:02:07.751Z</time></trkpt><trkpt lat="45.493765" lon="10.495075"><ele>148.0</ele><time>2026-04-25T16:02:08.758Z</time></trkpt><trkpt lat="45.4938867" lon="10.4951667"><ele>150.0</ele><time>2026-04-25T16:02:09.756Z</time></trkpt><trkpt lat="45.4940033" lon="10.4952717"><ele>152.0</ele><time>2026-04-25T16:02:10.756Z</time></trkpt><trkpt lat="45.494125" lon="10.4953783"><ele>150.0</ele><time>2026-04-25T16:02:11.757Z</time></trkpt><trkpt lat="45.4942507" lon="10.4954816"><ele>148.0</ele><time>2026-04-25T16:02:12.76Z</time></trkpt><trkpt lat="45.4943836" lon="10.4955777"><ele>146.0</ele><time>2026-04-25T16:02:13.757Z</time></trkpt><trkpt lat="45.4945218" lon="10.4956657"><ele>144.0</ele><time>2026-04-25T16:02:14.759Z</time></trkpt><trkpt lat="45.4946637" lon="10.4957431"><ele>144.0</ele><time>2026-04-25T16:02:15.765Z</time></trkpt><trkpt lat="45.4948031" lon="10.4958144"><ele>144.0</ele><time>2026-04-25T16:02:16.752Z</time></trkpt><trkpt lat="45.4949423" lon="10.4958884"><ele>144.0</ele><time>2026-04-25T16:02:17.757Z</time></trkpt><trkpt lat="45.495079" lon="10.495969"><ele>144.0</ele><time>2026-04-25T16:02:18.76Z</time></trkpt><trkpt lat="45.4952198" lon="10.4960485"><ele>144.0</ele><time>2026-04-25T16:02:19.76Z</time></trkpt><trkpt lat="45.4953658" lon="10.4961237"><ele>144.0</ele><time>2026-04-25T16:02:20.763Z</time></trkpt><trkpt lat="45.4955147" lon="10.4961997"><ele>144.0</ele><time>2026-04-25T16:02:21.752Z</time></trkpt><trkpt lat="45.4956659" lon="10.4962805"><ele>139.33333333333334</ele><time>2026-04-25T16:02:22.759Z</time></trkpt><trkpt lat="45.4958147" lon="10.4963583"><ele>134.66666666666669</ele><time>2026-04-25T16:02:23.754Z</time></trkpt><trkpt lat="45.4959622" lon="10.4964387"><ele>130.0</ele><time>2026-04-25T16:02:24.751Z</time></trkpt><trkpt lat="45.4961042" lon="10.4965183"><ele>130.0</ele><time>2026-04-25T16:02:25.76Z</time></trkpt><trkpt lat="45.4962386" lon="10.4965916"><ele>130.0</ele><time>2026-04-25T16:02:26.753Z</time></trkpt><trkpt lat="45.4963636" lon="10.4966615"><ele>130.0</ele><time>2026-04-25T16:02:27.761Z</time></trkpt><trkpt lat="45.496479" lon="10.4967363"><ele>130.0</ele><time>2026-04-25T16:02:28.76Z</time></trkpt><trkpt lat="45.4965825" lon="10.4968183"><ele>129.2</ele><time>2026-04-25T16:02:29.758Z</time></trkpt><trkpt lat="45.4966729" lon="10.4969023"><ele>128.4</ele><time>2026-04-25T16:02:30.755Z</time></trkpt><trkpt lat="45.4967497" lon="10.4969853"><ele>127.6</ele><time>2026-04-25T16:02:31.755Z</time></trkpt><trkpt lat="45.4968175" lon="10.4970729"><ele>126.8</ele><time>2026-04-25T16:02:32.758Z</time></trkpt><trkpt lat="45.4968804" lon="10.4971693"><ele>126.0</ele><time>2026-04-25T16:02:33.75Z</time></trkpt><trkpt lat="45.496937" lon="10.4972762"><ele>126.0</ele><time>2026-04-25T16:02:34.759Z</time></trkpt><trkpt lat="45.4969929" lon="10.4973956"><ele>126.0</ele><time>2026-04-25T16:02:35.758Z</time></trkpt><trkpt lat="45.4970533" lon="10.4975248"><ele>126.0</ele><time>2026-04-25T16:02:36.763Z</time></trkpt><trkpt lat="45.4971168" lon="10.4976619"><ele>126.0</ele><time>2026-04-25T16:02:37.756Z</time></trkpt><trkpt lat="45.4971849" lon="10.4978058"><ele>126.0</ele><time>2026-04-25T16:02:38.758Z</time></trkpt><trkpt lat="45.4972578" lon="10.4979576"><ele>126.25</ele><time>2026-04-25T16:02:39.758Z</time></trkpt><trkpt lat="45.4973321" lon="10.4981183"><ele>126.5</ele><time>2026-04-25T16:02:40.76Z</time></trkpt><trkpt lat="45.4974132" lon="10.4982779"><ele>126.75</ele><time>2026-04-25T16:02:41.752Z</time></trkpt><trkpt lat="45.4975026" lon="10.4984395"><ele>127.0</ele><time>2026-04-25T16:02:42.755Z</time></trkpt><trkpt lat="45.4976036" lon="10.4986002"><ele>126.33333333333334</ele><time>2026-04-25T16:02:43.762Z</time></trkpt><trkpt lat="45.4977118" lon="10.4987591"><ele>125.66666666666666</ele><time>2026-04-25T16:02:44.754Z</time></trkpt><trkpt lat="45.4978279" lon="10.4989113"><ele>125.0</ele><time>2026-04-25T16:02:45.752Z</time></trkpt><trkpt lat="45.4979545" lon="10.4990476"><ele>125.0</ele><time>2026-04-25T16:02:46.752Z</time></trkpt><trkpt lat="45.4980907" lon="10.4991564"><ele>125.0</ele><time>2026-04-25T16:02:47.754Z</time></trkpt><trkpt lat="45.4982325" lon="10.4992395"><ele>125.0</ele><time>2026-04-25T16:02:48.756Z</time></trkpt><trkpt lat="45.4983696" lon="10.4993095"><ele>125.0</ele><time>2026-04-25T16:02:49.752Z</time></trkpt><trkpt lat="45.4985032" lon="10.4993664"><ele>125.0</ele><time>2026-04-25T16:02:50.762Z</time></trkpt><trkpt lat="45.4986316" lon="10.4994103"><ele>125.0</ele><time>2026-04-25T16:02:51.756Z</time></trkpt><trkpt lat="45.4987489" lon="10.4994461"><ele>125.0</ele><time>2026-04-25T16:02:52.755Z</time></trkpt><trkpt lat="45.498852" lon="10.4994743"><ele>125.16666666666666</ele><time>2026-04-25T16:02:53.756Z</time></trkpt><trkpt lat="45.4989437" lon="10.4995009"><ele>125.33333333333333</ele><time>2026-04-25T16:02:54.76Z</time></trkpt><trkpt lat="45.499026" lon="10.4995239"><ele>125.5</ele><time>2026-04-25T16:02:55.758Z</time></trkpt><trkpt lat="45.4990995" lon="10.4995439"><ele>125.66666666666666</ele><time>2026-04-25T16:02:56.759Z</time></trkpt><trkpt lat="45.4991645" lon="10.4995671"><ele>125.83333333333333</ele><time>2026-04-25T16:02:57.759Z</time></trkpt><trkpt lat="45.4992709" lon="10.499613"><ele>126.0</ele><time>2026-04-25T16:02:59.759Z</time></trkpt><trkpt lat="45.4993383" lon="10.4996583"><ele>124.66666666666667</ele><time>2026-04-25T16:03:01.751Z</time></trkpt><trkpt lat="45.4993967" lon="10.4997033"><ele>123.33333333333334</ele><time>2026-04-25T16:03:03.76Z</time></trkpt><trkpt lat="45.4994567" lon="10.49975"><ele>122.0</ele><time>2026-04-25T16:03:05.759Z</time></trkpt><trkpt lat="45.4995283" lon="10.4997967"><ele>120.66666666666667</ele><time>2026-04-25T16:03:07.758Z</time></trkpt><trkpt lat="45.4996167" lon="10.49986"><ele>119.33333333333334</ele><time>2026-04-25T16:03:09.758Z</time></trkpt><trkpt lat="45.49972" lon="10.499925"><ele>118.0</ele><time>2026-04-25T16:03:11.756Z</time></trkpt><trkpt lat="45.4997833" lon="10.4999717"><ele>118.00000000000001</ele><time>2026-04-25T16:03:12.757Z</time></trkpt><trkpt lat="45.4998483" lon="10.5000283"><ele>118.0</ele><time>2026-04-25T16:03:13.755Z</time></trkpt><trkpt lat="45.4999167" lon="10.5000833"><ele>118.0</ele><time>2026-04-25T16:03:14.758Z</time></trkpt><trkpt lat="45.4999967" lon="10.50013"><ele>118.0</ele><time>2026-04-25T16:03:15.758Z</time></trkpt><trkpt lat="45.5000867" lon="10.5001667"><ele>118.00000000000001</ele><time>2026-04-25T16:03:16.75Z</time></trkpt><trkpt lat="45.5001767" lon="10.5002183"><ele>118.0</ele><time>2026-04-25T16:03:17.751Z</time></trkpt><trkpt lat="45.5002633" lon="10.500295"><ele>118.0</ele><time>2026-04-25T16:03:18.761Z</time></trkpt><trkpt lat="45.5003483" lon="10.5003983"><ele>118.0</ele><time>2026-04-25T16:03:19.756Z</time></trkpt><trkpt lat="45.5004383" lon="10.500515"><ele>118.0</ele><time>2026-04-25T16:03:20.759Z</time></trkpt><trkpt lat="45.5005333" lon="10.5006467"><ele>118.0</ele><time>2026-04-25T16:03:21.758Z</time></trkpt><trkpt lat="45.50063" lon="10.50078"><ele>118.25</ele><time>2026-04-25T16:03:22.751Z</time></trkpt><trkpt lat="45.500725" lon="10.5009133"><ele>118.5</ele><time>2026-04-25T16:03:23.763Z</time></trkpt><trkpt lat="45.5008233" lon="10.50105"><ele>118.75</ele><time>2026-04-25T16:03:24.757Z</time></trkpt><trkpt lat="45.5009217" lon="10.5011867"><ele>119.0</ele><time>2026-04-25T16:03:25.751Z</time></trkpt><trkpt lat="45.5010217" lon="10.5013267"><ele>117.5</ele><time>2026-04-25T16:03:26.755Z</time></trkpt><trkpt lat="45.5011233" lon="10.501465"><ele>116.0</ele><time>2026-04-25T16:03:27.757Z</time></trkpt><trkpt lat="45.5012233" lon="10.5016033"><ele>114.5</ele><time>2026-04-25T16:03:28.757Z</time></trkpt><trkpt lat="45.5013217" lon="10.5017367"><ele>113.0</ele><time>2026-04-25T16:03:29.76Z</time></trkpt><trkpt lat="45.5014133" lon="10.50186"><ele>113.0</ele><time>2026-04-25T16:03:30.756Z</time></trkpt><trkpt lat="45.5014967" lon="10.5019733"><ele>113.00000000000001</ele><time>2026-04-25T16:03:31.762Z</time></trkpt><trkpt lat="45.5015617" lon="10.5020817"><ele>113.00000000000001</ele><time>2026-04-25T16:03:32.759Z</time></trkpt><trkpt lat="45.5016167" lon="10.5021717"><ele>113.0</ele><time>2026-04-25T16:03:33.759Z</time></trkpt><trkpt lat="45.5016533" lon="10.50226"><ele>113.0</ele><time>2026-04-25T16:03:34.76Z</time></trkpt><trkpt lat="45.5016867" lon="10.5023917"><ele>112.99999999999999</ele><time>2026-04-25T16:03:36.76Z</time></trkpt><trkpt lat="45.5017033" lon="10.5025083"><ele>113.0</ele><time>2026-04-25T16:03:39.76Z</time></trkpt><trkpt lat="45.5017133" lon="10.50261"><ele>113.0</ele><time>2026-04-25T16:03:42.759Z</time></trkpt><trkpt lat="45.5017167" lon="10.5027017"><ele>113.0</ele><time>2026-04-25T16:03:44.759Z</time></trkpt><trkpt lat="45.501715" lon="10.502835"><ele>112.99999999999999</ele><time>2026-04-25T16:03:46.758Z</time></trkpt><trkpt lat="45.5016933" lon="10.5029883"><ele>113.0</ele><time>2026-04-25T16:03:48.759Z</time></trkpt><trkpt lat="45.50165" lon="10.5031367"><ele>112.83333333333333</ele><time>2026-04-25T16:03:50.765Z</time></trkpt><trkpt lat="45.5015767" lon="10.50328"><ele>112.66666666666666</ele><time>2026-04-25T16:03:52.761Z</time></trkpt><trkpt lat="45.5015433" lon="10.50337"><ele>112.5</ele><time>2026-04-25T16:03:53.753Z</time></trkpt><trkpt lat="45.50153" lon="10.5034683"><ele>112.33333333333334</ele><time>2026-04-25T16:03:54.751Z</time></trkpt><trkpt lat="45.50154" lon="10.5035583"><ele>112.16666666666667</ele><time>2026-04-25T16:03:55.759Z</time></trkpt><trkpt lat="45.5015633" lon="10.5036483"><ele>112.0</ele><time>2026-04-25T16:03:56.753Z</time></trkpt><trkpt lat="45.50162" lon="10.5037233"><ele>112.00000000000001</ele><time>2026-04-25T16:03:57.75Z</time></trkpt><trkpt lat="45.5016983" lon="10.5037383"><ele>112.0</ele><time>2026-04-25T16:03:58.764Z</time></trkpt><trkpt lat="45.5017717" lon="10.503745"><ele>112.0</ele><time>2026-04-25T16:03:59.757Z</time></trkpt><trkpt lat="45.501845" lon="10.5037767"><ele>112.0</ele><time>2026-04-25T16:04:00.756Z</time></trkpt><trkpt lat="45.50192" lon="10.50383"><ele>112.00000000000001</ele><time>2026-04-25T16:04:01.757Z</time></trkpt><trkpt lat="45.502" lon="10.5039"><ele>112.0</ele><time>2026-04-25T16:04:02.752Z</time></trkpt><trkpt lat="45.502085" lon="10.5039783"><ele>112.39999999999999</ele><time>2026-04-25T16:04:03.765Z</time></trkpt><trkpt lat="45.5021783" lon="10.5040517"><ele>112.79999999999998</ele><time>2026-04-25T16:04:04.759Z</time></trkpt><trkpt lat="45.5022767" lon="10.5041283"><ele>113.2</ele><time>2026-04-25T16:04:05.757Z</time></trkpt><trkpt lat="45.5023717" lon="10.504205"><ele>113.6</ele><time>2026-04-25T16:04:06.751Z</time></trkpt><trkpt lat="45.502465" lon="10.50428"><ele>114.0</ele><time>2026-04-25T16:04:07.764Z</time></trkpt><trkpt lat="45.5025533" lon="10.504355"><ele>114.0</ele><time>2026-04-25T16:04:08.759Z</time></trkpt><trkpt lat="45.50264" lon="10.50443"><ele>114.0</ele><time>2026-04-25T16:04:09.758Z</time></trkpt><trkpt lat="45.502725" lon="10.5045017"><ele>114.0</ele><time>2026-04-25T16:04:10.757Z</time></trkpt><trkpt lat="45.50281" lon="10.5045733"><ele>114.0</ele><time>2026-04-25T16:04:11.759Z</time></trkpt><trkpt lat="45.5029" lon="10.504645"><ele>114.0</ele><time>2026-04-25T16:04:12.758Z</time></trkpt><trkpt lat="45.5029917" lon="10.50472"><ele>114.0</ele><time>2026-04-25T16:04:13.757Z</time></trkpt><trkpt lat="45.50309" lon="10.5047983"><ele>114.0</ele><time>2026-04-25T16:04:14.756Z</time></trkpt><trkpt lat="45.5031867" lon="10.5048817"><ele>114.0</ele><time>2026-04-25T16:04:15.756Z</time></trkpt><trkpt lat="45.5032883" lon="10.5049683"><ele>114.0</ele><time>2026-04-25T16:04:16.756Z</time></trkpt><trkpt lat="45.5033967" lon="10.5050583"><ele>114.0</ele><time>2026-04-25T16:04:17.758Z</time></trkpt><trkpt lat="45.5035067" lon="10.50515"><ele>114.0</ele><time>2026-04-25T16:04:18.761Z</time></trkpt><trkpt lat="45.50362" lon="10.50524"><ele>114.0</ele><time>2026-04-25T16:04:19.76Z</time></trkpt><trkpt lat="45.503735" lon="10.5053267"><ele>114.0</ele><time>2026-04-25T16:04:20.757Z</time></trkpt><trkpt lat="45.5038467" lon="10.5054117"><ele>114.75</ele><time>2026-04-25T16:04:21.758Z</time></trkpt><trkpt lat="45.50396" lon="10.5054867"><ele>115.5</ele><time>2026-04-25T16:04:22.757Z</time></trkpt><trkpt lat="45.50407" lon="10.505555"><ele>116.25</ele><time>2026-04-25T16:04:23.759Z</time></trkpt><trkpt lat="45.5041783" lon="10.5056217"><ele>117.0</ele><time>2026-04-25T16:04:24.76Z</time></trkpt><trkpt lat="45.5042883" lon="10.5056833"><ele>117.0</ele><time>2026-04-25T16:04:25.76Z</time></trkpt><trkpt lat="45.5043917" lon="10.5057467"><ele>116.99999999999999</ele><time>2026-04-25T16:04:26.762Z</time></trkpt><trkpt lat="45.5044933" lon="10.505805"><ele>116.99999999999999</ele><time>2026-04-25T16:04:27.758Z</time></trkpt><trkpt lat="45.5045883" lon="10.5058617"><ele>117.0</ele><time>2026-04-25T16:04:28.763Z</time></trkpt><trkpt lat="45.5046783" lon="10.5059117"><ele>117.0</ele><time>2026-04-25T16:04:29.765Z</time></trkpt><trkpt lat="45.5047617" lon="10.5059583"><ele>116.85714285714286</ele><time>2026-04-25T16:04:30.758Z</time></trkpt><trkpt lat="45.50484" lon="10.506005"><ele>116.71428571428572</ele><time>2026-04-25T16:04:31.759Z</time></trkpt><trkpt lat="45.50491" lon="10.5060483"><ele>116.57142857142858</ele><time>2026-04-25T16:04:32.759Z</time></trkpt><trkpt lat="45.5049767" lon="10.5060867"><ele>116.42857142857144</ele><time>2026-04-25T16:04:33.761Z</time></trkpt><trkpt lat="45.5050433" lon="10.5061217"><ele>116.28571428571429</ele><time>2026-04-25T16:04:34.759Z</time></trkpt><trkpt lat="45.5051067" lon="10.5061567"><ele>116.14285714285717</ele><time>2026-04-25T16:04:35.752Z</time></trkpt><trkpt lat="45.505175" lon="10.506195"><ele>116.00000000000001</ele><time>2026-04-25T16:04:36.758Z</time></trkpt><trkpt lat="45.5052433" lon="10.5062367"><ele>116.49999999999999</ele><time>2026-04-25T16:04:37.759Z</time></trkpt><trkpt lat="45.5053183" lon="10.5062783"><ele>117.0</ele><time>2026-04-25T16:04:38.756Z</time></trkpt><trkpt lat="45.5053983" lon="10.5063183"><ele>117.5</ele><time>2026-04-25T16:04:39.754Z</time></trkpt><trkpt lat="45.5054733" lon="10.5063667"><ele>118.0</ele><time>2026-04-25T16:04:40.759Z</time></trkpt><trkpt lat="45.50554" lon="10.50641"><ele>118.49999999999999</ele><time>2026-04-25T16:04:41.756Z</time></trkpt><trkpt lat="45.5056267" lon="10.5064733"><ele>119.0</ele><time>2026-04-25T16:04:43.756Z</time></trkpt><trkpt lat="45.50568" lon="10.5065433"><ele>119.0</ele><time>2026-04-25T16:04:50.762Z</time></trkpt><trkpt lat="45.5057433" lon="10.5066333"><ele>119.0</ele><time>2026-04-25T16:04:52.757Z</time></trkpt><trkpt lat="45.505805" lon="10.50677"><ele>119.0</ele><time>2026-04-25T16:04:54.763Z</time></trkpt><trkpt lat="45.5058483" lon="10.5069017"><ele>119.0</ele><time>2026-04-25T16:04:56.758Z</time></trkpt><trkpt lat="45.5058867" lon="10.5070083"><ele>119.0</ele><time>2026-04-25T16:04:58.763Z</time></trkpt><trkpt lat="45.5059117" lon="10.507125"><ele>119.4</ele><time>2026-04-25T16:05:00.759Z</time></trkpt><trkpt lat="45.5059117" lon="10.5072767"><ele>119.80000000000001</ele><time>2026-04-25T16:05:02.762Z</time></trkpt><trkpt lat="45.505935" lon="10.5074217"><ele>120.19999999999999</ele><time>2026-04-25T16:05:04.765Z</time></trkpt><trkpt lat="45.5060183" lon="10.5074817"><ele>120.6</ele><time>2026-04-25T16:05:06.759Z</time></trkpt><trkpt lat="45.50612" lon="10.5074583"><ele>121.0</ele><time>2026-04-25T16:05:08.767Z</time></trkpt><trkpt lat="45.5061867" lon="10.5074217"><ele>120.85714285714285</ele><time>2026-04-25T16:05:10.758Z</time></trkpt><trkpt lat="45.5062467" lon="10.5073917"><ele>120.7142857142857</ele><time>2026-04-25T16:05:12.756Z</time></trkpt><trkpt lat="45.5063133" lon="10.507365"><ele>120.57142857142857</ele><time>2026-04-25T16:05:14.761Z</time></trkpt><trkpt lat="45.5063817" lon="10.507345"><ele>120.42857142857142</ele><time>2026-04-25T16:05:16.759Z</time></trkpt><trkpt lat="45.5064483" lon="10.507325"><ele>120.28571428571428</ele><time>2026-04-25T16:05:18.759Z</time></trkpt><trkpt lat="45.5065233" lon="10.5073117"><ele>120.14285714285714</ele><time>2026-04-25T16:05:20.761Z</time></trkpt><trkpt lat="45.50659" lon="10.50729"><ele>120.0</ele><time>2026-04-25T16:05:22.759Z</time></trkpt><trkpt lat="45.506665" lon="10.5072833"><ele>120.0</ele><time>2026-04-25T16:05:24.761Z</time></trkpt><trkpt lat="45.5067417" lon="10.5073767"><ele>120.0</ele><time>2026-04-25T16:05:26.759Z</time></trkpt><trkpt lat="45.506785" lon="10.5075517"><ele>120.0</ele><time>2026-04-25T16:05:28.754Z</time></trkpt><trkpt lat="45.5068083" lon="10.50765"><ele>120.0</ele><time>2026-04-25T16:05:29.762Z</time></trkpt><trkpt lat="45.5068417" lon="10.5077433"><ele>120.0</ele><time>2026-04-25T16:05:30.762Z</time></trkpt><trkpt lat="45.5068833" lon="10.5078317"><ele>119.6</ele><time>2026-04-25T16:05:31.753Z</time></trkpt><trkpt lat="45.50693" lon="10.5079267"><ele>119.2</ele><time>2026-04-25T16:05:32.752Z</time></trkpt><trkpt lat="45.50698" lon="10.5080317"><ele>118.80000000000001</ele><time>2026-04-25T16:05:33.757Z</time></trkpt><trkpt lat="45.50703" lon="10.508145"><ele>118.4</ele><time>2026-04-25T16:05:34.759Z</time></trkpt><trkpt lat="45.5070817" lon="10.5082683"><ele>118.0</ele><time>2026-04-25T16:05:35.758Z</time></trkpt><trkpt lat="45.50714" lon="10.5083933"><ele>118.0</ele><time>2026-04-25T16:05:36.762Z</time></trkpt><trkpt lat="45.5071933" lon="10.5085133"><ele>118.00000000000001</ele><time>2026-04-25T16:05:37.76Z</time></trkpt><trkpt lat="45.5072533" lon="10.508625"><ele>118.00000000000001</ele><time>2026-04-25T16:05:38.765Z</time></trkpt><trkpt lat="45.507305" lon="10.5087367"><ele>118.0</ele><time>2026-04-25T16:05:39.757Z</time></trkpt><trkpt lat="45.50736" lon="10.508855"><ele>118.0</ele><time>2026-04-25T16:05:40.761Z</time></trkpt><trkpt lat="45.5074233" lon="10.5089767"><ele>118.0</ele><time>2026-04-25T16:05:41.752Z</time></trkpt><trkpt lat="45.5074833" lon="10.5091083"><ele>118.0</ele><time>2026-04-25T16:05:42.763Z</time></trkpt><trkpt lat="45.5075467" lon="10.5092483"><ele>118.0</ele><time>2026-04-25T16:05:43.761Z</time></trkpt><trkpt lat="45.50761" lon="10.509385"><ele>118.0</ele><time>2026-04-25T16:05:44.765Z</time></trkpt><trkpt lat="45.5076733" lon="10.5095267"><ele>118.5</ele><time>2026-04-25T16:05:45.76Z</time></trkpt><trkpt lat="45.507725" lon="10.5096683"><ele>119.0</ele><time>2026-04-25T16:05:46.758Z</time></trkpt><trkpt lat="45.5077833" lon="10.5098067"><ele>119.5</ele><time>2026-04-25T16:05:47.758Z</time></trkpt><trkpt lat="45.5078467" lon="10.5099433"><ele>120.0</ele><time>2026-04-25T16:05:48.757Z</time></trkpt><trkpt lat="45.5079233" lon="10.5100733"><ele>120.5</ele><time>2026-04-25T16:05:49.759Z</time></trkpt><trkpt lat="45.5080117" lon="10.5101967"><ele>121.0</ele><time>2026-04-25T16:05:50.756Z</time></trkpt><trkpt lat="45.5081133" lon="10.51031"><ele>121.5</ele><time>2026-04-25T16:05:51.761Z</time></trkpt><trkpt lat="45.5082183" lon="10.5104167"><ele>122.0</ele><time>2026-04-25T16:05:52.751Z</time></trkpt><trkpt lat="45.5083267" lon="10.5105283"><ele>122.0</ele><time>2026-04-25T16:05:53.758Z</time></trkpt><trkpt lat="45.508435" lon="10.51064"><ele>122.0</ele><time>2026-04-25T16:05:54.758Z</time></trkpt><trkpt lat="45.508545" lon="10.5107483"><ele>122.0</ele><time>2026-04-25T16:05:55.759Z</time></trkpt><trkpt lat="45.5086467" lon="10.510855"><ele>122.0</ele><time>2026-04-25T16:05:56.762Z</time></trkpt><trkpt lat="45.508745" lon="10.5109567"><ele>120.75</ele><time>2026-04-25T16:05:57.762Z</time></trkpt><trkpt lat="45.5088433" lon="10.5110517"><ele>119.5</ele><time>2026-04-25T16:05:58.762Z</time></trkpt><trkpt lat="45.5089483" lon="10.51113"><ele>118.25</ele><time>2026-04-25T16:05:59.759Z</time></trkpt><trkpt lat="45.5090517" lon="10.51119"><ele>117.0</ele><time>2026-04-25T16:06:00.761Z</time></trkpt><trkpt lat="45.5091567" lon="10.511235"><ele>117.8</ele><time>2026-04-25T16:06:01.753Z</time></trkpt><trkpt lat="45.5092583" lon="10.51127"><ele>118.6</ele><time>2026-04-25T16:06:02.76Z</time></trkpt><trkpt lat="45.5093617" lon="10.5113"><ele>119.39999999999999</ele><time>2026-04-25T16:06:03.761Z</time></trkpt><trkpt lat="45.5094683" lon="10.51133"><ele>120.19999999999999</ele><time>2026-04-25T16:06:04.759Z</time></trkpt><trkpt lat="45.5095733" lon="10.5113517"><ele>121.0</ele><time>2026-04-25T16:06:05.758Z</time></trkpt><trkpt lat="45.50967" lon="10.5113767"><ele>121.0</ele><time>2026-04-25T16:06:06.761Z</time></trkpt><trkpt lat="45.5097667" lon="10.5114067"><ele>121.0</ele><time>2026-04-25T16:06:07.751Z</time></trkpt><trkpt lat="45.5098617" lon="10.5114383"><ele>121.0</ele><time>2026-04-25T16:06:08.761Z</time></trkpt><trkpt lat="45.5099567" lon="10.5114683"><ele>121.0</ele><time>2026-04-25T16:06:09.756Z</time></trkpt><trkpt lat="45.5100583" lon="10.511495"><ele>121.0</ele><time>2026-04-25T16:06:10.759Z</time></trkpt><trkpt lat="45.5101667" lon="10.5115233"><ele>121.0</ele><time>2026-04-25T16:06:11.762Z</time></trkpt><trkpt lat="45.5102783" lon="10.5115517"><ele>121.0</ele><time>2026-04-25T16:06:12.762Z</time></trkpt><trkpt lat="45.5103833" lon="10.5115817"><ele>121.0</ele><time>2026-04-25T16:06:13.757Z</time></trkpt><trkpt lat="45.5104767" lon="10.5116133"><ele>121.0</ele><time>2026-04-25T16:06:14.767Z</time></trkpt><trkpt lat="45.51056" lon="10.5116467"><ele>121.0</ele><time>2026-04-25T16:06:15.759Z</time></trkpt><trkpt lat="45.51063" lon="10.5116717"><ele>120.33333333333334</ele><time>2026-04-25T16:06:16.757Z</time></trkpt><trkpt lat="45.5106933" lon="10.51169"><ele>119.66666666666667</ele><time>2026-04-25T16:06:17.76Z</time></trkpt><trkpt lat="45.510805" lon="10.5116933"><ele>119.0</ele><time>2026-04-25T16:06:19.758Z</time></trkpt><trkpt lat="45.51091" lon="10.5116383"><ele>118.33333333333334</ele><time>2026-04-25T16:06:21.754Z</time></trkpt><trkpt lat="45.51096" lon="10.51157"><ele>117.66666666666667</ele><time>2026-04-25T16:06:22.763Z</time></trkpt><trkpt lat="45.5110083" lon="10.51148"><ele>117.0</ele><time>2026-04-25T16:06:23.766Z</time></trkpt><trkpt lat="45.5110583" lon="10.5113817"><ele>117.0</ele><time>2026-04-25T16:06:24.76Z</time></trkpt><trkpt lat="45.51111" lon="10.511275"><ele>116.99999999999999</ele><time>2026-04-25T16:06:25.76Z</time></trkpt><trkpt lat="45.5111467" lon="10.51116"><ele>116.99999999999999</ele><time>2026-04-25T16:06:26.753Z</time></trkpt><trkpt lat="45.511165" lon="10.5110333"><ele>117.0</ele><time>2026-04-25T16:06:27.75Z</time></trkpt><trkpt lat="45.5111683" lon="10.5109"><ele>117.0</ele><time>2026-04-25T16:06:28.751Z</time></trkpt><trkpt lat="45.5111683" lon="10.5107633"><ele>117.0</ele><time>2026-04-25T16:06:29.764Z</time></trkpt><trkpt lat="45.511175" lon="10.5106267"><ele>116.99999999999999</ele><time>2026-04-25T16:06:30.761Z</time></trkpt><trkpt lat="45.51119" lon="10.5104917"><ele>116.99999999999999</ele><time>2026-04-25T16:06:31.754Z</time></trkpt><trkpt lat="45.5112167" lon="10.5103617"><ele>117.0</ele><time>2026-04-25T16:06:32.76Z</time></trkpt><trkpt lat="45.5112383" lon="10.5102283"><ele>117.0</ele><time>2026-04-25T16:06:33.759Z</time></trkpt><trkpt lat="45.511255" lon="10.510095"><ele>119.0</ele><time>2026-04-25T16:06:34.752Z</time></trkpt><trkpt lat="45.5112733" lon="10.5099617"><ele>120.99999999999999</ele><time>2026-04-25T16:06:35.756Z</time></trkpt><trkpt lat="45.51129" lon="10.50983"><ele>122.99999999999999</ele><time>2026-04-25T16:06:36.758Z</time></trkpt><trkpt lat="45.5113083" lon="10.5096967"><ele>125.0</ele><time>2026-04-25T16:06:37.757Z</time></trkpt><trkpt lat="45.5113183" lon="10.5095633"><ele>127.0</ele><time>2026-04-25T16:06:38.759Z</time></trkpt><trkpt lat="45.51133" lon="10.5094417"><ele>127.8</ele><time>2026-04-25T16:06:39.763Z</time></trkpt><trkpt lat="45.51134" lon="10.509335"><ele>128.6</ele><time>2026-04-25T16:06:40.756Z</time></trkpt><trkpt lat="45.51137" lon="10.5091933"><ele>129.39999999999998</ele><time>2026-04-25T16:06:42.759Z</time></trkpt><trkpt lat="45.5114267" lon="10.5091167"><ele>130.2</ele><time>2026-04-25T16:06:44.757Z</time></trkpt><trkpt lat="45.5115267" lon="10.5091233"><ele>131.0</ele><time>2026-04-25T16:06:46.762Z</time></trkpt><trkpt lat="45.511645" lon="10.5091883"><ele>131.0</ele><time>2026-04-25T16:06:48.759Z</time></trkpt><trkpt lat="45.51171" lon="10.509235"><ele>131.0</ele><time>2026-04-25T16:06:49.759Z</time></trkpt><trkpt lat="45.51178" lon="10.50928"><ele>131.0</ele><time>2026-04-25T16:06:50.759Z</time></trkpt><trkpt lat="45.511855" lon="10.509325"><ele>131.0</ele><time>2026-04-25T16:06:51.758Z</time></trkpt><trkpt lat="45.5119317" lon="10.509365"><ele>131.0</ele><time>2026-04-25T16:06:52.762Z</time></trkpt><trkpt lat="45.512005" lon="10.509405"><ele>131.0</ele><time>2026-04-25T16:06:53.762Z</time></trkpt><trkpt lat="45.51208" lon="10.50944"><ele>131.83333333333331</ele><time>2026-04-25T16:06:54.757Z</time></trkpt><trkpt lat="45.5121617" lon="10.50946"><ele>132.66666666666666</ele><time>2026-04-25T16:06:55.758Z</time></trkpt><trkpt lat="45.5122433" lon="10.5094733"><ele>133.5</ele><time>2026-04-25T16:06:56.762Z</time></trkpt><trkpt lat="45.5123283" lon="10.5094883"><ele>134.33333333333334</ele><time>2026-04-25T16:06:57.762Z</time></trkpt><trkpt lat="45.512415" lon="10.5095033"><ele>135.16666666666669</ele><time>2026-04-25T16:06:58.754Z</time></trkpt><trkpt lat="45.5125033" lon="10.509515"><ele>136.0</ele><time>2026-04-25T16:06:59.761Z</time></trkpt><trkpt lat="45.5125883" lon="10.5095317"><ele>136.0</ele><time>2026-04-25T16:07:00.761Z</time></trkpt><trkpt lat="45.51268" lon="10.5095533"><ele>136.0</ele><time>2026-04-25T16:07:01.763Z</time></trkpt><trkpt lat="45.5127667" lon="10.5095767"><ele>136.0</ele><time>2026-04-25T16:07:02.76Z</time></trkpt><trkpt lat="45.5128583" lon="10.509605"><ele>136.0</ele><time>2026-04-25T16:07:03.752Z</time></trkpt><trkpt lat="45.5129467" lon="10.5096317"><ele>136.0</ele><time>2026-04-25T16:07:04.759Z</time></trkpt><trkpt lat="45.5130267" lon="10.5096583"><ele>136.0</ele><time>2026-04-25T16:07:05.752Z</time></trkpt><trkpt lat="45.5131017" lon="10.5096883"><ele>136.33333333333334</ele><time>2026-04-25T16:07:06.762Z</time></trkpt><trkpt lat="45.5131733" lon="10.509715"><ele>136.66666666666669</ele><time>2026-04-25T16:07:07.756Z</time></trkpt><trkpt lat="45.5132417" lon="10.5097367"><ele>137.0</ele><time>2026-04-25T16:07:08.751Z</time></trkpt><trkpt lat="45.513305" lon="10.5097467"><ele>137.33333333333334</ele><time>2026-04-25T16:07:09.754Z</time></trkpt><trkpt lat="45.5134167" lon="10.5097"><ele>137.66666666666666</ele><time>2026-04-25T16:07:11.751Z</time></trkpt><trkpt lat="45.5134967" lon="10.50957"><ele>138.0</ele><time>2026-04-25T16:07:13.751Z</time></trkpt><trkpt lat="45.51353" lon="10.50949"><ele>138.0</ele><time>2026-04-25T16:07:14.753Z</time></trkpt><trkpt lat="45.5135667" lon="10.5094033"><ele>138.0</ele><time>2026-04-25T16:07:15.751Z</time></trkpt><trkpt lat="45.5136083" lon="10.509315"><ele>138.0</ele><time>2026-04-25T16:07:16.752Z</time></trkpt><trkpt lat="45.51365" lon="10.5092233"><ele>138.0</ele><time>2026-04-25T16:07:17.752Z</time></trkpt><trkpt lat="45.5136883" lon="10.509135"><ele>138.0</ele><time>2026-04-25T16:07:18.754Z</time></trkpt><trkpt lat="45.513725" lon="10.5090567"><ele>138.0</ele><time>2026-04-25T16:07:19.752Z</time></trkpt><trkpt lat="45.513805" lon="10.50895"><ele>138.5</ele><time>2026-04-25T16:07:21.752Z</time></trkpt><trkpt lat="45.5138767" lon="10.5089217"><ele>139.0</ele><time>2026-04-25T16:07:23.751Z</time></trkpt><trkpt lat="45.51395" lon="10.50894"><ele>139.5</ele><time>2026-04-25T16:07:26.754Z</time></trkpt><trkpt lat="45.5140267" lon="10.5089733"><ele>140.0</ele><time>2026-04-25T16:07:38.762Z</time></trkpt><trkpt lat="45.5141183" lon="10.5089917"><ele>140.5</ele><time>2026-04-25T16:07:40.765Z</time></trkpt><trkpt lat="45.5142233" lon="10.5090033"><ele>141.0</ele><time>2026-04-25T16:07:42.763Z</time></trkpt><trkpt lat="45.5143433" lon="10.5090467"><ele>141.0</ele><time>2026-04-25T16:07:44.771Z</time></trkpt><trkpt lat="45.5144567" lon="10.50908"><ele>141.0</ele><time>2026-04-25T16:07:46.76Z</time></trkpt><trkpt lat="45.5145567" lon="10.509085"><ele>141.0</ele><time>2026-04-25T16:07:48.76Z</time></trkpt><trkpt lat="45.51464" lon="10.5091217"><ele>141.0</ele><time>2026-04-25T16:07:50.76Z</time></trkpt><trkpt lat="45.5147133" lon="10.5091083"><ele>141.0</ele><time>2026-04-25T16:07:53.754Z</time></trkpt><trkpt lat="45.514655" lon="10.5090467"><ele>141.0</ele><time>2026-04-25T16:07:56.764Z</time></trkpt><trkpt lat="45.51458" lon="10.5090467"><ele>141.0</ele><time>2026-04-25T16:07:58.764Z</time></trkpt><trkpt lat="45.5145033" lon="10.50904"><ele>141.0</ele><time>2026-04-25T16:08:00.76Z</time></trkpt><trkpt lat="45.5144233" lon="10.5090167"><ele>141.0</ele><time>2026-04-25T16:08:02.764Z</time></trkpt><trkpt lat="45.5143167" lon="10.508995"><ele>141.0</ele><time>2026-04-25T16:08:04.762Z</time></trkpt><trkpt lat="45.5142083" lon="10.5089733"><ele>141.0</ele><time>2026-04-25T16:08:06.767Z</time></trkpt><trkpt lat="45.5141233" lon="10.5089633"><ele>141.0</ele><time>2026-04-25T16:08:08.764Z</time></trkpt></trkseg></trk></gpx>